GFSWCAN_prec_precacc_012.txt.gz
Total_Precipitation_Accumulation
0.20 0.16 0.19 0.21 0.18 0.16 0.13 0.14 0.19 0.14 0.11 0.06 0.02 0.02 0.02 0.01 0.04 0.02 0.00 0.00 0.00 0.00 0.00 0.00 0.00 0.00 0.00 0.01 0.02 0.00 0.01 0.01 0.05 0.06 0.02 0.03 0.01 0.01 0.00 0.00 0.00 0.00 0.00 0.00 0.00 0.01 0.00 0.00 0.00 0.00 0.00 0.00 0.00 0.00
0.24 0.22 0.22 0.24 0.20 0.15 0.16 0.16 0.19 0.12 0.10 0.06 0.03 0.02 0.01 0.01 0.04 0.03 0.00 0.00 0.00 0.00 0.00 0.00 0.00 0.00 0.00 0.00 0.00 0.00 0.00 0.00 0.01 0.02 0.01 0.00 0.00 0.00 0.00 0.00 0.00 0.00 0.00 0.00 0.00 0.00 0.00 0.00 0.00 0.00 0.00 0.00 0.00 0.00
0.24 0.24 0.20 0.20 0.17 0.15 0.14 0.16 0.17 0.11 0.10 0.07 0.03 0.03 0.02 0.01 0.04 0.05 0.01 0.00 0.00 0.00 0.00 0.00 0.00 0.00 0.00 0.00 0.00 0.00 0.00 0.00 0.00 0.00 0.00 0.00 0.00 0.00 0.00 0.00 0.00 0.00 0.00 0.00 0.00 0.00 0.00 0.00 0.00 0.00 0.00 0.00 0.00 0.00
0.17 0.18 0.13 0.13 0.15 0.12 0.10 0.13 0.13 0.09 0.06 0.04 0.03 0.02 0.02 0.01 0.03 0.05 0.01 0.00 0.00 0.00 0.00 0.00 0.00 0.00 0.00 0.00 0.00 0.00 0.00 0.00 0.00 0.00 0.00 0.00 0.00 0.00 0.00 0.00 0.00 0.00 0.00 0.00 0.00 0.00 0.00 0.00 0.00 0.00 0.00 0.00 0.00 0.00
0.11 0.11 0.10 0.10 0.09 0.10 0.08 0.09 0.08 0.05 0.04 0.02 0.02 0.02 0.02 0.01 0.04 0.03 0.00 0.01 0.00 0.00 0.00 0.00 0.00 0.00 0.00 0.00 0.00 0.00 0.00 0.00 0.00 0.00 0.00 0.00 0.00 0.00 0.00 0.00 0.00 0.00 0.00 0.00 0.00 0.00 0.00 0.00 0.00 0.00 0.00 0.00 0.00 0.00
0.12 0.10 0.09 0.09 0.08 0.10 0.09 0.06 0.05 0.04 0.02 0.02 0.01 0.01 0.02 0.02 0.05 0.02 0.01 0.01 0.01 0.00 0.00 0.00 0.00 0.00 0.00 0.00 0.00 0.00 0.00 0.00 0.00 0.00 0.00 0.00 0.00 0.00 0.00 0.00 0.00 0.00 0.00 0.00 0.00 0.00 0.00 0.00 0.00 0.00 0.00 0.00 0.00 0.00
0.17 0.16 0.13 0.13 0.13 0.15 0.14 0.06 0.06 0.09 0.06 0.02 0.01 0.01 0.02 0.06 0.04 0.02 0.01 0.00 0.04 0.02 0.00 0.00 0.00 0.00 0.00 0.00 0.00 0.00 0.00 0.00 0.01 0.00 0.00 0.00 0.00 0.00 0.00 0.00 0.00 0.00 0.00 0.00 0.00 0.00 0.00 0.00 0.00 0.00 0.00 0.00 0.00 0.00
0.52 0.63 0.62 0.38 0.31 0.31 0.31 0.15 0.13 0.14 0.13 0.02 0.02 0.03 0.07 0.08 0.04 0.03 0.00 0.00 0.00 0.02 0.01 0.01 0.00 0.00 0.00 0.00 0.00 0.00 0.00 0.00 0.01 0.00 0.00 0.00 0.00 0.00 0.00 0.00 0.00 0.00 0.00 0.00 0.00 0.00 0.00 0.00 0.00 0.00 0.00 0.00 0.00 0.00
0.58 0.64 0.84 1.04 0.91 0.74 0.60 0.40 0.27 0.20 0.13 0.05 0.03 0.05 0.06 0.02 0.00 0.00 0.01 0.00 0.00 0.00 0.01 0.00 0.00 0.00 0.00 0.00 0.00 0.00 0.01 0.01 0.00 0.00 0.00 0.00 0.00 0.00 0.00 0.00 0.00 0.00 0.00 0.00 0.00 0.00 0.00 0.00 0.00 0.00 0.00 0.00 0.00 0.00
0.50 0.59 0.62 0.79 1.06 1.24 1.18 0.87 0.63 0.31 0.13 0.04 0.03 0.02 0.01 0.00 0.00 0.00 0.00 0.00 0.00 0.00 0.00 0.00 0.00 0.00 0.00 0.00 0.01 0.01 0.00 0.01 0.00 0.00 0.00 0.00 0.00 0.00 0.00 0.00 0.00 0.00 0.00 0.00 0.00 0.00 0.00 0.00 0.00 0.00 0.00 0.00 0.00 0.00
0.27 0.49 0.65 0.72 0.92 1.13 1.45 1.47 1.17 0.69 0.26 0.02 0.01 0.00 0.00 0.00 0.00 0.00 0.00 0.00 0.00 0.00 0.00 0.00 0.00 0.00 0.00 0.00 0.00 0.00 0.00 0.00 0.00 0.00 0.00 0.00 0.00 0.00 0.00 0.00 0.00 0.00 0.00 0.00 0.00 0.00 0.00 0.00 0.00 0.00 0.00 0.00 0.00 0.00
0.16 0.29 0.54 0.73 0.86 1.33 1.52 1.87 1.92 1.40 0.55 0.03 0.00 0.02 0.01 0.01 0.00 0.00 0.00 0.00 0.00 0.00 0.00 0.00 0.00 0.00 0.00 0.00 0.00 0.00 0.00 0.00 0.00 0.00 0.00 0.00 0.00 0.00 0.00 0.00 0.00 0.00 0.00 0.00 0.00 0.00 0.00 0.00 0.00 0.00 0.00 0.00 0.00 0.00
0.10 0.22 0.38 0.60 0.80 1.09 1.60 1.67 2.03 1.78 0.67 0.14 0.28 0.37 0.11 0.10 0.05 0.00 0.00 0.00 0.00 0.00 0.00 0.00 0.00 0.00 0.00 0.00 0.00 0.00 0.00 0.00 0.00 0.00 0.00 0.00 0.00 0.00 0.00 0.00 0.00 0.00 0.00 0.00 0.00 0.00 0.00 0.00 0.00 0.00 0.00 0.00 0.00 0.00
0.05 0.14 0.25 0.38 0.73 1.00 1.59 2.03 2.28 1.88 1.16 0.62 0.54 0.36 0.11 0.13 0.00 0.00 0.00 0.00 0.00 0.00 0.00 0.00 0.00 0.00 0.00 0.00 0.00 0.00 0.01 0.00 0.01 0.00 0.00 0.00 0.00 0.00 0.00 0.00 0.00 0.00 0.00 0.00 0.00 0.00 0.00 0.00 0.00 0.00 0.00 0.00 0.00 0.00
0.02 0.07 0.13 0.28 0.57 1.09 1.80 2.41 2.19 1.26 0.93 0.76 0.28 0.09 0.02 0.00 0.00 0.00 0.00 0.00 0.00 0.00 0.00 0.00 0.00 0.00 0.00 0.00 0.00 0.01 0.02 0.01 0.00 0.00 0.00 0.00 0.00 0.00 0.00 0.00 0.00 0.00 0.00 0.00 0.00 0.00 0.00 0.00 0.00 0.00 0.00 0.00 0.00 0.00
0.02 0.03 0.11 0.22 0.38 0.75 1.38 1.43 1.39 0.99 1.06 0.85 0.31 0.10 0.01 0.00 0.00 0.00 0.00 0.00 0.00 0.00 0.00 0.00 0.00 0.00 0.00 0.00 0.00 0.00 0.00 0.00 0.00 0.00 0.00 0.00 0.00 0.00 0.00 0.00 0.00 0.00 0.00 0.00 0.00 0.00 0.00 0.00 0.00 0.00 0.00 0.00 0.00 0.00
0.02 0.02 0.12 0.14 0.22 0.45 0.94 1.19 1.00 1.02 1.03 0.81 0.24 0.02 0.00 0.00 0.00 0.00 0.00 0.00 0.00 0.00 0.00 0.00 0.00 0.00 0.00 0.00 0.00 0.00 0.00 0.00 0.00 0.00 0.00 0.00 0.00 0.00 0.00 0.00 0.00 0.00 0.00 0.00 0.00 0.00 0.00 0.00 0.00 0.00 0.00 0.00 0.00 0.00
0.02 0.01 0.07 0.07 0.15 0.41 0.63 0.85 1.07 0.97 0.83 0.41 0.06 0.01 0.00 0.00 0.00 0.00 0.00 0.00 0.00 0.00 0.00 0.00 0.00 0.00 0.00 0.00 0.00 0.00 0.00 0.00 0.00 0.00 0.00 0.00 0.00 0.00 0.00 0.00 0.00 0.00 0.00 0.00 0.00 0.00 0.00 0.00 0.00 0.00 0.00 0.00 0.00 0.00
0.01 0.02 0.04 0.05 0.17 0.35 0.51 0.65 0.75 0.63 0.42 0.16 0.03 0.01 0.01 0.01 0.01 0.01 0.00 0.00 0.00 0.00 0.00 0.00 0.00 0.00 0.00 0.00 0.00 0.00 0.00 0.00 0.00 0.00 0.00 0.00 0.00 0.00 0.00 0.00 0.00 0.00 0.00 0.00 0.00 0.00 0.00 0.00 0.00 0.00 0.00 0.00 0.00 0.00
0.06 0.08 0.03 0.05 0.18 0.30 0.37 0.52 0.51 0.37 0.25 0.18 0.08 0.04 0.02 0.02 0.02 0.02 0.02 0.01 0.01 0.00 0.01 0.00 0.00 0.00 0.00 0.00 0.00 0.00 0.00 0.00 0.00 0.00 0.00 0.00 0.00 0.00 0.00 0.00 0.00 0.00 0.00 0.00 0.00 0.00 0.00 0.00 0.00 0.00 0.00 0.00 0.00 0.00
0.02 0.02 0.01 0.04 0.20 0.30 0.35 0.27 0.41 0.34 0.27 0.23 0.25 0.11 0.10 0.06 0.05 0.06 0.10 0.06 0.08 0.06 0.01 0.00 0.00 0.00 0.00 0.00 0.00 0.00 0.00 0.00 0.00 0.00 0.00 0.00 0.00 0.00 0.00 0.00 0.00 0.00 0.00 0.00 0.00 0.00 0.00 0.00 0.00 0.00 0.00 0.00 0.00 0.00
0.01 0.04 0.05 0.08 0.22 0.21 0.19 0.22 0.27 0.27 0.16 0.25 0.32 0.21 0.21 0.18 0.14 0.14 0.15 0.18 0.16 0.04 0.00 0.00 0.00 0.00 0.00 0.00 0.00 0.00 0.00 0.00 0.00 0.00 0.00 0.00 0.00 0.00 0.00 0.00 0.00 0.00 0.00 0.00 0.00 0.00 0.00 0.00 0.00 0.00 0.00 0.00 0.00 0.00
0.01 0.02 0.07 0.11 0.15 0.12 0.17 0.19 0.16 0.23 0.20 0.26 0.27 0.19 0.22 0.23 0.28 0.26 0.31 0.25 0.13 0.06 0.01 0.00 0.00 0.00 0.00 0.00 0.00 0.00 0.00 0.00 0.00 0.00 0.00 0.00 0.00 0.00 0.00 0.00 0.00 0.00 0.00 0.00 0.00 0.00 0.00 0.00 0.00 0.00 0.00 0.00 0.00 0.00
0.00 0.00 0.00 0.03 0.09 0.12 0.13 0.16 0.10 0.13 0.16 0.17 0.20 0.16 0.13 0.18 0.23 0.21 0.15 0.07 0.09 0.09 0.03 0.00 0.00 0.00 0.00 0.00 0.00 0.00 0.00 0.00 0.00 0.00 0.00 0.00 0.00 0.00 0.00 0.00 0.00 0.00 0.00 0.00 0.00 0.00 0.00 0.00 0.00 0.00 0.00 0.00 0.00 0.00
0.01 0.00 0.00 0.00 0.00 0.02 0.04 0.10 0.09 0.06 0.10 0.15 0.16 0.17 0.14 0.15 0.16 0.12 0.08 0.07 0.10 0.11 0.06 0.01 0.00 0.00 0.00 0.00 0.00 0.00 0.00 0.00 0.00 0.00 0.00 0.00 0.00 0.01 0.01 0.00 0.00 0.00 0.00 0.00 0.00 0.00 0.00 0.00 0.00 0.00 0.00 0.00 0.00 0.00
0.02 0.01 0.00 0.00 0.00 0.00 0.00 0.05 0.09 0.10 0.11 0.13 0.13 0.13 0.12 0.10 0.09 0.09 0.06 0.07 0.10 0.10 0.08 0.05 0.01 0.00 0.00 0.00 0.00 0.00 0.00 0.00 0.00 0.00 0.01 0.01 0.00 0.00 0.00 0.01 0.00 0.00 0.00 0.00 0.00 0.00 0.00 0.00 0.00 0.00 0.00 0.00 0.00 0.00
0.00 0.00 0.00 0.00 0.00 0.00 0.00 0.00 0.01 0.02 0.05 0.06 0.07 0.06 0.05 0.04 0.05 0.03 0.04 0.08 0.09 0.08 0.07 0.04 0.02 0.00 0.00 0.00 0.00 0.00 0.00 0.00 0.00 0.00 0.00 0.01 0.01 0.00 0.00 0.00 0.00 0.00 0.00 0.00 0.00 0.00 0.00 0.00 0.00 0.00 0.00 0.00 0.00 0.00
0.00 0.00 0.00 0.00 0.00 0.00 0.00 0.00 0.00 0.00 0.00 0.00 0.02 0.02 0.01 0.00 0.00 0.01 0.03 0.05 0.06 0.05 0.03 0.01 0.00 0.00 0.00 0.00 0.00 0.00 0.01 0.01 0.00 0.00 0.00 0.00 0.00 0.00 0.00 0.00 0.00 0.00 0.00 0.00 0.00 0.00 0.00 0.00 0.00 0.00 0.00 0.00 0.00 0.00
0.00 0.00 0.00 0.00 0.00 0.00 0.00 0.00 0.00 0.00 0.00 0.00 0.00 0.00 0.00 0.00 0.01 0.01 0.01 0.01 0.01 0.01 0.00 0.00 0.00 0.00 0.01 0.01 0.01 0.01 0.01 0.00 0.00 0.00 0.00 0.00 0.00 0.01 0.00 0.00 0.00 0.00 0.00 0.00 0.00 0.00 0.00 0.00 0.00 0.00 0.00 0.00 0.00 0.00
0.00 0.00 0.00 0.00 0.00 0.00 0.00 0.00 0.00 0.00 0.00 0.00 0.00 0.00 0.00 0.00 0.01 0.01 0.00 0.00 0.00 0.00 0.00 0.00 0.00 0.00 0.00 0.00 0.01 0.01 0.01 0.00 0.00 0.00 0.00 0.00 0.00 0.00 0.00 0.00 0.00 0.00 0.00 0.00 0.00 0.00 0.00 0.00 0.00 0.00 0.00 0.00 0.00 0.00
0.01 0.00 0.00 0.00 0.00 0.00 0.01 0.01 0.01 0.00 0.00 0.00 0.00 0.00 0.00 0.00 0.00 0.00 0.00 0.00 0.00 0.00 0.00 0.00 0.01 0.01 0.00 0.01 0.00 0.00 0.01 0.01 0.00 0.00 0.00 0.00 0.00 0.00 0.00 0.00 0.00 0.00 0.00 0.00 0.00 0.00 0.00 0.00 0.00 0.00 0.00 0.00 0.00 0.00
0.02 0.01 0.00 0.00 0.00 0.01 0.01 0.01 0.01 0.00 0.01 0.01 0.01 0.01 0.01 0.01 0.01 0.01 0.01 0.01 0.01 0.01 0.01 0.01 0.00 0.01 0.01 0.01 0.01 0.02 0.01 0.01 0.01 0.00 0.00 0.00 0.00 0.00 0.00 0.00 0.00 0.00 0.00 0.00 0.00 0.00 0.00 0.00 0.00 0.00 0.00 0.00 0.00 0.00
0.04 0.04 0.04 0.03 0.01 0.01 0.01 0.01 0.01 0.01 0.01 0.01 0.01 0.01 0.01 0.01 0.01 0.01 0.01 0.01 0.01 0.01 0.01 0.02 0.02 0.02 0.02 0.03 0.03 0.03 0.03 0.03 0.03 0.02 0.02 0.01 0.01 0.00 0.00 0.00 0.00 0.00 0.00 0.00 0.00 0.00 0.00 0.00 0.00 0.00 0.00 0.00 0.00 0.00

GFSWCAN_prec_precacc_015.txt.gz
Total_Precipitation_Accumulation
0.21 0.17 0.19 0.21 0.19 0.19 0.16 0.17 0.23 0.22 0.17 0.14 0.11 0.06 0.03 0.01 0.05 0.04 0.00 0.01 0.00 0.00 0.00 0.00 0.00 0.00 0.06 0.09 0.07 0.01 0.08 0.04 0.08 0.09 0.03 0.03 0.01 0.01 0.00 0.00 0.00 0.00 0.01 0.01 0.02 0.01 0.00 0.00 0.00 0.00 0.00 0.00 0.00 0.00
0.25 0.23 0.22 0.24 0.21 0.17 0.19 0.20 0.23 0.20 0.16 0.15 0.12 0.06 0.02 0.01 0.04 0.06 0.02 0.02 0.00 0.00 0.00 0.00 0.00 0.00 0.01 0.02 0.07 0.03 0.02 0.01 0.03 0.07 0.02 0.02 0.01 0.00 0.00 0.00 0.00 0.00 0.00 0.00 0.00 0.00 0.00 0.00 0.00 0.00 0.00 0.00 0.00 0.00
0.25 0.24 0.21 0.20 0.17 0.17 0.18 0.19 0.23 0.20 0.17 0.15 0.14 0.08 0.03 0.01 0.05 0.07 0.03 0.04 0.00 0.00 0.00 0.00 0.00 0.00 0.00 0.00 0.04 0.08 0.04 0.01 0.01 0.02 0.02 0.00 0.00 0.00 0.00 0.00 0.00 0.00 0.00 0.00 0.00 0.00 0.00 0.00 0.00 0.00 0.00 0.00 0.00 0.00
0.18 0.18 0.14 0.13 0.15 0.14 0.13 0.16 0.18 0.16 0.11 0.12 0.11 0.06 0.03 0.01 0.04 0.08 0.03 0.04 0.00 0.00 0.00 0.00 0.00 0.00 0.00 0.00 0.00 0.02 0.02 0.01 0.00 0.00 0.03 0.01 0.00 0.00 0.00 0.00 0.00 0.00 0.00 0.00 0.00 0.00 0.00 0.00 0.00 0.00 0.00 0.00 0.00 0.00
0.13 0.12 0.10 0.10 0.10 0.12 0.11 0.11 0.12 0.11 0.07 0.08 0.07 0.04 0.03 0.02 0.04 0.05 0.04 0.09 0.00 0.00 0.00 0.00 0.00 0.00 0.00 0.00 0.00 0.00 0.00 0.00 0.00 0.00 0.00 0.00 0.00 0.00 0.00 0.00 0.00 0.00 0.00 0.00 0.00 0.00 0.00 0.00 0.00 0.00 0.00 0.00 0.00 0.00
0.14 0.11 0.10 0.09 0.09 0.12 0.11 0.08 0.08 0.10 0.05 0.05 0.06 0.03 0.03 0.03 0.06 0.05 0.07 0.09 0.01 0.00 0.00 0.00 0.00 0.00 0.00 0.00 0.00 0.00 0.00 0.00 0.00 0.00 0.00 0.00 0.00 0.00 0.00 0.00 0.00 0.00 0.00 0.00 0.00 0.00 0.00 0.00 0.00 0.00 0.00 0.00 0.00 0.00
0.19 0.17 0.13 0.13 0.14 0.17 0.16 0.08 0.08 0.15 0.12 0.07 0.06 0.03 0.02 0.07 0.06 0.06 0.04 0.02 0.09 0.02 0.00 0.00 0.00 0.00 0.00 0.00 0.00 0.00 0.00 0.00 0.01 0.00 0.00 0.00 0.00 0.00 0.00 0.00 0.00 0.00 0.00 0.00 0.00 0.00 0.00 0.00 0.00 0.00 0.00 0.00 0.00 0.00
0.54 0.64 0.63 0.38 0.31 0.33 0.32 0.16 0.16 0.23 0.27 0.13 0.09 0.04 0.08 0.11 0.09 0.06 0.02 0.02 0.08 0.11 0.06 0.02 0.00 0.00 0.00 0.00 0.00 0.00 0.00 0.00 0.01 0.00 0.00 0.00 0.00 0.00 0.00 0.00 0.00 0.00 0.00 0.00 0.00 0.00 0.00 0.00 0.00 0.00 0.00 0.00 0.00 0.00
0.59 0.64 0.85 1.04 0.92 0.75 0.62 0.41 0.30 0.31 0.36 0.27 0.11 0.08 0.09 0.04 0.01 0.02 0.04 0.05 0.01 0.11 0.14 0.04 0.00 0.00 0.00 0.00 0.00 0.00 0.01 0.01 0.00 0.00 0.00 0.00 0.00 0.00 0.00 0.00 0.00 0.00 0.00 0.00 0.00 0.00 0.00 0.00 0.00 0.00 0.00 0.00 0.00 0.00
0.52 0.59 0.62 0.79 1.06 1.25 1.20 0.89 0.66 0.49 0.44 0.37 0.11 0.04 0.03 0.01 0.01 0.03 0.04 0.02 0.03 0.03 0.02 0.02 0.00 0.00 0.00 0.00 0.01 0.01 0.01 0.01 0.00 0.00 0.00 0.00 0.00 0.00 0.00 0.00 0.00 0.00 0.00 0.00 0.00 0.00 0.00 0.00 0.00 0.00 0.00 0.00 0.00 0.00
0.28 0.49 0.65 0.73 0.93 1.14 1.47 1.53 1.41 1.11 0.72 0.36 0.10 0.00 0.00 0.01 0.00 0.00 0.03 0.01 0.01 0.01 0.00 0.00 0.00 0.00 0.00 0.00 0.00 0.00 0.00 0.00 0.00 0.00 0.00 0.00 0.00 0.00 0.00 0.00 0.00 0.00 0.00 0.00 0.00 0.00 0.00 0.00 0.00 0.00 0.00 0.00 0.00 0.00
0.16 0.29 0.54 0.73 0.87 1.35 1.56 2.03 2.46 2.24 1.11 0.27 0.02 0.03 0.01 0.01 0.00 0.00 0.00 0.00 0.00 0.00 0.00 0.00 0.00 0.00 0.00 0.00 0.00 0.00 0.00 0.00 0.00 0.00 0.00 0.00 0.00 0.00 0.00 0.00 0.00 0.00 0.00 0.00 0.00 0.00 0.00 0.00 0.00 0.00 0.00 0.00 0.00 0.00
0.10 0.22 0.38 0.60 0.81 1.11 1.66 1.95 2.53 2.31 1.02 0.33 0.32 0.39 0.12 0.10 0.05 0.00 0.00 0.00 0.00 0.00 0.00 0.00 0.00 0.00 0.00 0.00 0.00 0.00 0.00 0.00 0.00 0.00 0.00 0.00 0.00 0.00 0.00 0.00 0.00 0.00 0.00 0.00 0.00 0.00 0.00 0.00 0.00 0.00 0.00 0.00 0.00 0.00
0.05 0.14 0.25 0.38 0.75 1.03 1.70 2.37 2.83 2.41 1.62 0.95 0.71 0.42 0.11 0.13 0.00 0.00 0.00 0.00 0.00 0.00 0.00 0.00 0.00 0.00 0.00 0.00 0.00 0.00 0.01 0.00 0.01 0.00 0.00 0.00 0.00 0.00 0.00 0.00 0.00 0.00 0.00 0.00 0.00 0.00 0.00 0.00 0.00 0.00 0.00 0.00 0.00 0.00
0.02 0.07 0.13 0.29 0.58 1.12 1.94 2.81 2.82 1.84 1.30 0.93 0.34 0.09 0.02 0.00 0.00 0.00 0.00 0.00 0.00 0.00 0.00 0.00 0.00 0.00 0.00 0.00 0.00 0.01 0.02 0.01 0.00 0.00 0.00 0.00 0.00 0.00 0.00 0.00 0.00 0.00 0.00 0.00 0.00 0.00 0.00 0.00 0.00 0.00 0.00 0.00 0.00 0.00
0.02 0.03 0.11 0.22 0.39 0.80 1.55 1.79 1.77 1.28 1.31 0.95 0.34 0.11 0.01 0.00 0.00 0.00 0.00 0.00 0.00 0.00 0.00 0.00 0.00 0.00 0.00 0.00 0.00 0.00 0.00 0.00 0.00 0.00 0.00 0.00 0.00 0.00 0.00 0.00 0.00 0.00 0.00 0.00 0.00 0.00 0.00 0.00 0.00 0.00 0.00 0.00 0.00 0.00
0.02 0.02 0.12 0.14 0.23 0.50 1.12 1.56 1.24 1.27 1.33 0.99 0.27 0.02 0.00 0.00 0.00 0.00 0.00 0.00 0.00 0.00 0.00 0.00 0.00 0.00 0.00 0.00 0.00 0.00 0.00 0.00 0.00 0.00 0.00 0.00 0.00 0.00 0.00 0.00 0.00 0.00 0.00 0.00 0.00 0.00 0.00 0.00 0.00 0.00 0.00 0.00 0.00 0.00
0.02 0.01 0.07 0.07 0.15 0.46 0.79 1.14 1.43 1.29 1.04 0.52 0.08 0.02 0.00 0.00 0.00 0.00 0.00 0.00 0.00 0.00 0.00 0.00 0.00 0.00 0.00 0.00 0.00 0.00 0.00 0.00 0.00 0.00 0.00 0.00 0.00 0.00 0.00 0.00 0.00 0.00 0.00 0.00 0.00 0.00 0.00 0.00 0.00 0.00 0.00 0.00 0.00 0.00
0.01 0.02 0.04 0.05 0.18 0.42 0.63 0.83 0.97 0.78 0.49 0.18 0.03 0.02 0.01 0.01 0.01 0.01 0.00 0.00 0.00 0.00 0.00 0.00 0.00 0.00 0.00 0.00 0.00 0.00 0.00 0.00 0.00 0.00 0.00 0.00 0.00 0.00 0.00 0.00 0.00 0.00 0.00 0.00 0.00 0.00 0.00 0.00 0.00 0.00 0.00 0.00 0.00 0.00
0.06 0.08 0.03 0.05 0.19 0.34 0.45 0.62 0.61 0.45 0.29 0.20 0.10 0.05 0.03 0.03 0.03 0.02 0.02 0.02 0.01 0.01 0.01 0.00 0.00 0.00 0.00 0.00 0.00 0.00 0.00 0.00 0.00 0.00 0.00 0.00 0.00 0.00 0.00 0.00 0.00 0.00 0.00 0.00 0.00 0.00 0.00 0.00 0.00 0.00 0.00 0.00 0.00 0.00
0.02 0.02 0.01 0.04 0.20 0.32 0.41 0.33 0.47 0.39 0.31 0.28 0.31 0.17 0.16 0.11 0.09 0.11 0.19 0.15 0.18 0.13 0.03 0.00 0.00 0.00 0.00 0.00 0.00 0.00 0.00 0.00 0.00 0.00 0.00 0.00 0.00 0.00 0.00 0.00 0.00 0.00 0.00 0.00 0.00 0.00 0.00 0.00 0.00 0.00 0.00 0.00 0.00 0.00
0.01 0.04 0.05 0.08 0.23 0.23 0.23 0.28 0.33 0.32 0.19 0.30 0.40 0.30 0.30 0.26 0.21 0.21 0.22 0.26 0.24 0.09 0.02 0.01 0.01 0.00 0.00 0.00 0.00 0.00 0.00 0.00 0.00 0.00 0.00 0.00 0.00 0.00 0.00 0.00 0.00 0.00 0.00 0.00 0.00 0.00 0.00 0.00 0.00 0.00 0.00 0.00 0.00 0.00
0.01 0.02 0.07 0.11 0.15 0.12 0.19 0.22 0.21 0.27 0.25 0.32 0.34 0.28 0.31 0.31 0.37 0.35 0.40 0.32 0.16 0.07 0.01 0.00 0.00 0.00 0.00 0.00 0.00 0.00 0.00 0.00 0.00 0.00 0.00 0.00 0.00 0.00 0.00 0.00 0.00 0.00 0.00 0.00 0.00 0.00 0.00 0.00 0.00 0.00 0.00 0.00 0.00 0.00
0.00 0.00 0.00 0.03 0.09 0.12 0.14 0.19 0.13 0.16 0.19 0.21 0.25 0.21 0.17 0.24 0.30 0.29 0.18 0.08 0.10 0.10 0.03 0.00 0.00 0.00 0.00 0.00 0.00 0.00 0.00 0.00 0.00 0.00 0.00 0.00 0.00 0.00 0.00 0.00 0.00 0.00 0.00 0.00 0.00 0.00 0.00 0.00 0.00 0.00 0.00 0.00 0.00 0.00
0.01 0.00 0.00 0.00 0.00 0.02 0.04 0.12 0.13 0.09 0.13 0.18 0.20 0.21 0.19 0.20 0.22 0.16 0.10 0.09 0.15 0.16 0.08 0.01 0.00 0.00 0.00 0.00 0.00 0.00 0.00 0.00 0.00 0.00 0.00 0.00 0.00 0.01 0.01 0.00 0.00 0.00 0.00 0.00 0.00 0.00 0.00 0.00 0.00 0.00 0.00 0.00 0.00 0.00
0.02 0.01 0.00 0.00 0.00 0.00 0.00 0.06 0.11 0.14 0.15 0.16 0.17 0.16 0.16 0.14 0.12 0.12 0.07 0.09 0.16 0.19 0.15 0.07 0.02 0.00 0.00 0.00 0.00 0.00 0.00 0.00 0.00 0.00 0.01 0.01 0.00 0.00 0.00 0.01 0.00 0.00 0.00 0.00 0.00 0.00 0.00 0.00 0.00 0.00 0.00 0.00 0.00 0.00
0.00 0.00 0.00 0.00 0.00 0.00 0.00 0.00 0.01 0.03 0.07 0.09 0.10 0.10 0.08 0.07 0.09 0.04 0.06 0.11 0.15 0.17 0.16 0.12 0.06 0.01 0.00 0.00 0.00 0.00 0.00 0.00 0.00 0.00 0.00 0.01 0.01 0.00 0.00 0.00 0.00 0.00 0.00 0.00 0.00 0.00 0.00 0.00 0.00 0.00 0.00 0.00 0.00 0.00
0.00 0.00 0.00 0.00 0.00 0.00 0.00 0.00 0.00 0.00 0.00 0.01 0.05 0.04 0.03 0.01 0.01 0.02 0.05 0.10 0.14 0.14 0.13 0.10 0.06 0.02 0.01 0.00 0.00 0.00 0.01 0.01 0.00 0.00 0.00 0.00 0.00 0.00 0.00 0.00 0.00 0.00 0.00 0.00 0.00 0.00 0.00 0.00 0.00 0.00 0.00 0.00 0.00 0.00
0.00 0.00 0.00 0.00 0.00 0.00 0.00 0.00 0.00 0.00 0.00 0.00 0.00 0.01 0.00 0.00 0.02 0.04 0.06 0.07 0.08 0.08 0.07 0.05 0.04 0.02 0.01 0.01 0.01 0.01 0.01 0.00 0.00 0.00 0.00 0.00 0.00 0.01 0.00 0.00 0.00 0.00 0.00 0.00 0.00 0.00 0.00 0.00 0.00 0.00 0.00 0.00 0.00 0.00
0.00 0.00 0.00 0.00 0.00 0.00 0.00 0.00 0.00 0.00 0.00 0.00 0.00 0.00 0.00 0.01 0.02 0.03 0.03 0.04 0.05 0.05 0.04 0.03 0.02 0.01 0.00 0.00 0.01 0.01 0.01 0.00 0.00 0.00 0.00 0.00 0.00 0.00 0.00 0.00 0.00 0.00 0.00 0.00 0.00 0.00 0.00 0.00 0.00 0.00 0.00 0.00 0.00 0.00
0.01 0.00 0.00 0.00 0.00 0.00 0.01 0.01 0.01 0.00 0.00 0.00 0.00 0.00 0.00 0.01 0.01 0.01 0.01 0.02 0.02 0.02 0.02 0.02 0.01 0.01 0.00 0.01 0.00 0.00 0.01 0.01 0.00 0.00 0.00 0.00 0.00 0.00 0.00 0.00 0.00 0.00 0.00 0.00 0.00 0.00 0.00 0.00 0.00 0.00 0.00 0.00 0.00 0.00
0.02 0.01 0.00 0.00 0.00 0.01 0.02 0.01 0.01 0.00 0.01 0.01 0.01 0.01 0.01 0.01 0.01 0.01 0.01 0.01 0.01 0.01 0.01 0.01 0.00 0.01 0.01 0.01 0.01 0.02 0.01 0.01 0.01 0.00 0.00 0.00 0.00 0.00 0.00 0.00 0.00 0.00 0.00 0.00 0.00 0.00 0.00 0.00 0.00 0.00 0.00 0.00 0.00 0.00
0.04 0.05 0.04 0.03 0.01 0.01 0.01 0.01 0.01 0.01 0.01 0.01 0.01 0.01 0.01 0.01 0.01 0.01 0.01 0.02 0.01 0.01 0.02 0.02 0.02 0.02 0.03 0.03 0.03 0.03 0.03 0.03 0.03 0.02 0.02 0.01 0.01 0.00 0.00 0.00 0.00 0.00 0.00 0.00 0.00 0.00 0.00 0.00 0.00 0.00 0.00 0.00 0.00 0.00

GFSWCAN_prec_precacc_018.txt.gz
Total_Precipitation_Accumulation
0.24 0.20 0.22 0.22 0.20 0.19 0.16 0.18 0.25 0.25 0.20 0.16 0.16 0.20 0.14 0.04 0.08 0.07 0.01 0.05 0.08 0.04 0.01 0.00 0.00 0.00 0.11 0.18 0.13 0.06 0.10 0.04 0.09 0.18 0.10 0.04 0.01 0.01 0.00 0.00 0.00 0.00 0.01 0.01 0.03 0.03 0.00 0.00 0.00 0.00 0.00 0.00 0.00 0.00
0.27 0.26 0.25 0.25 0.22 0.18 0.19 0.21 0.25 0.23 0.19 0.17 0.15 0.16 0.11 0.03 0.06 0.09 0.03 0.07 0.09 0.03 0.01 0.00 0.00 0.00 0.03 0.12 0.16 0.09 0.05 0.02 0.03 0.10 0.04 0.02 0.01 0.00 0.00 0.00 0.00 0.00 0.00 0.00 0.00 0.00 0.00 0.00 0.00 0.00 0.00 0.00 0.00 0.00
0.27 0.27 0.23 0.22 0.18 0.18 0.18 0.20 0.25 0.22 0.19 0.17 0.16 0.13 0.09 0.03 0.07 0.10 0.04 0.09 0.10 0.02 0.00 0.00 0.00 0.00 0.00 0.03 0.10 0.16 0.09 0.06 0.02 0.04 0.05 0.00 0.01 0.00 0.00 0.00 0.00 0.00 0.00 0.00 0.00 0.00 0.00 0.00 0.00 0.00 0.00 0.00 0.00 0.00
0.21 0.23 0.17 0.16 0.16 0.14 0.14 0.17 0.20 0.18 0.13 0.13 0.15 0.10 0.06 0.02 0.07 0.11 0.04 0.08 0.09 0.03 0.00 0.00 0.00 0.00 0.00 0.01 0.05 0.11 0.12 0.06 0.05 0.06 0.10 0.04 0.00 0.00 0.00 0.00 0.00 0.00 0.00 0.00 0.00 0.00 0.00 0.00 0.00 0.00 0.00 0.00 0.00 0.00
0.16 0.16 0.14 0.11 0.11 0.12 0.11 0.12 0.14 0.14 0.09 0.09 0.11 0.09 0.06 0.03 0.08 0.06 0.04 0.12 0.09 0.04 0.02 0.00 0.00 0.00 0.00 0.00 0.01 0.05 0.07 0.09 0.01 0.05 0.02 0.02 0.00 0.00 0.00 0.00 0.00 0.00 0.00 0.00 0.00 0.00 0.00 0.00 0.00 0.00 0.00 0.00 0.00 0.00
0.16 0.15 0.12 0.11 0.09 0.12 0.11 0.09 0.10 0.11 0.07 0.07 0.11 0.12 0.08 0.05 0.11 0.08 0.10 0.12 0.09 0.03 0.00 0.00 0.00 0.00 0.00 0.00 0.00 0.00 0.00 0.01 0.00 0.00 0.00 0.00 0.00 0.00 0.00 0.00 0.00 0.00 0.00 0.00 0.00 0.00 0.00 0.00 0.00 0.00 0.00 0.00 0.00 0.00
0.21 0.20 0.15 0.14 0.15 0.17 0.17 0.09 0.10 0.16 0.14 0.12 0.18 0.17 0.08 0.11 0.09 0.07 0.06 0.03 0.12 0.05 0.01 0.00 0.00 0.00 0.00 0.00 0.00 0.00 0.00 0.00 0.01 0.00 0.00 0.00 0.00 0.00 0.00 0.00 0.00 0.00 0.00 0.00 0.00 0.00 0.00 0.00 0.00 0.00 0.00 0.00 0.00 0.00
0.56 0.66 0.64 0.39 0.33 0.33 0.33 0.17 0.17 0.25 0.29 0.20 0.25 0.20 0.15 0.18 0.12 0.07 0.03 0.03 0.14 0.18 0.06 0.03 0.00 0.00 0.00 0.00 0.00 0.00 0.00 0.00 0.01 0.00 0.00 0.00 0.00 0.00 0.00 0.00 0.00 0.00 0.00 0.00 0.00 0.00 0.00 0.00 0.00 0.00 0.00 0.00 0.00 0.00
0.62 0.67 0.86 1.05 0.92 0.75 0.62 0.42 0.31 0.32 0.40 0.40 0.39 0.33 0.23 0.12 0.03 0.02 0.04 0.11 0.05 0.31 0.27 0.06 0.00 0.00 0.00 0.00 0.00 0.00 0.01 0.01 0.00 0.00 0.00 0.00 0.00 0.00 0.00 0.00 0.00 0.00 0.00 0.00 0.00 0.00 0.00 0.00 0.00 0.00 0.00 0.00 0.00 0.00
0.54 0.61 0.63 0.80 1.06 1.25 1.21 0.91 0.68 0.51 0.53 0.66 0.53 0.34 0.13 0.05 0.04 0.04 0.05 0.11 0.14 0.08 0.16 0.14 0.04 0.00 0.00 0.00 0.01 0.01 0.01 0.01 0.00 0.00 0.00 0.00 0.00 0.00 0.00 0.00 0.00 0.00 0.00 0.00 0.00 0.00 0.00 0.00 0.00 0.00 0.00 0.00 0.00 0.00
0.30 0.51 0.65 0.73 0.93 1.14 1.49 1.55 1.43 1.19 1.06 0.89 0.55 0.19 0.04 0.03 0.01 0.01 0.07 0.09 0.12 0.05 0.02 0.03 0.05 0.03 0.00 0.00 0.00 0.00 0.00 0.00 0.00 0.00 0.00 0.00 0.00 0.00 0.00 0.00 0.00 0.00 0.00 0.00 0.00 0.00 0.00 0.00 0.00 0.00 0.00 0.00 0.00 0.00
0.17 0.29 0.54 0.74 0.87 1.35 1.57 2.05 2.54 2.63 1.84 0.71 0.21 0.18 0.05 0.03 0.03 0.01 0.02 0.04 0.01 0.01 0.00 0.00 0.00 0.00 0.00 0.00 0.00 0.00 0.00 0.00 0.00 0.00 0.00 0.00 0.00 0.00 0.00 0.00 0.00 0.00 0.00 0.00 0.00 0.00 0.00 0.00 0.00 0.00 0.00 0.00 0.00 0.00
0.10 0.22 0.38 0.60 0.81 1.12 1.68 1.98 2.67 2.68 1.45 0.76 0.71 0.64 0.16 0.16 0.06 0.00 0.00 0.00 0.00 0.00 0.00 0.00 0.00 0.00 0.00 0.00 0.00 0.00 0.00 0.00 0.00 0.00 0.00 0.00 0.00 0.00 0.00 0.00 0.00 0.00 0.00 0.00 0.00 0.00 0.00 0.00 0.00 0.00 0.00 0.00 0.00 0.00
0.05 0.14 0.25 0.38 0.75 1.03 1.72 2.42 3.07 2.85 2.05 1.45 1.13 0.59 0.13 0.15 0.00 0.00 0.00 0.00 0.00 0.00 0.00 0.00 0.00 0.00 0.00 0.00 0.00 0.00 0.01 0.00 0.01 0.00 0.00 0.00 0.00 0.00 0.00 0.00 0.00 0.00 0.00 0.00 0.00 0.00 0.00 0.00 0.00 0.00 0.00 0.00 0.00 0.00
0.02 0.07 0.13 0.29 0.58 1.12 1.95 2.87 3.11 2.25 1.71 1.21 0.49 0.11 0.02 0.00 0.00 0.00 0.00 0.00 0.00 0.00 0.00 0.00 0.00 0.00 0.00 0.00 0.00 0.01 0.02 0.01 0.00 0.00 0.00 0.00 0.00 0.00 0.00 0.00 0.00 0.00 0.00 0.00 0.00 0.00 0.00 0.00 0.00 0.00 0.00 0.00 0.00 0.00
0.02 0.03 0.11 0.22 0.39 0.80 1.56 1.88 2.02 1.50 1.61 1.11 0.39 0.11 0.01 0.00 0.00 0.00 0.00 0.00 0.00 0.00 0.00 0.00 0.00 0.00 0.00 0.00 0.00 0.00 0.00 0.00 0.00 0.00 0.00 0.00 0.00 0.00 0.00 0.00 0.00 0.00 0.00 0.00 0.00 0.00 0.00 0.00 0.00 0.00 0.00 0.00 0.00 0.00
0.02 0.02 0.12 0.14 0.23 0.50 1.15 1.70 1.45 1.54 1.64 1.14 0.30 0.02 0.00 0.00 0.00 0.00 0.00 0.00 0.00 0.00 0.00 0.00 0.00 0.00 0.00 0.00 0.00 0.00 0.00 0.00 0.00 0.00 0.00 0.00 0.00 0.00 0.00 0.00 0.00 0.00 0.00 0.00 0.00 0.00 0.00 0.00 0.00 0.00 0.00 0.00 0.00 0.00
0.02 0.01 0.07 0.07 0.15 0.47 0.83 1.27 1.66 1.57 1.26 0.61 0.09 0.02 0.00 0.00 0.00 0.00 0.00 0.00 0.00 0.00 0.00 0.00 0.00 0.00 0.00 0.00 0.00 0.00 0.00 0.00 0.00 0.00 0.00 0.00 0.00 0.00 0.00 0.00 0.00 0.00 0.00 0.00 0.00 0.00 0.00 0.00 0.00 0.00 0.00 0.00 0.00 0.00
0.01 0.02 0.04 0.05 0.18 0.43 0.68 0.94 1.15 0.95 0.58 0.21 0.04 0.02 0.01 0.01 0.01 0.01 0.00 0.00 0.00 0.00 0.00 0.00 0.00 0.00 0.00 0.00 0.00 0.00 0.00 0.00 0.00 0.00 0.00 0.00 0.00 0.00 0.00 0.00 0.00 0.00 0.00 0.00 0.00 0.00 0.00 0.00 0.00 0.00 0.00 0.00 0.00 0.00
0.06 0.08 0.03 0.05 0.19 0.35 0.49 0.70 0.71 0.55 0.34 0.23 0.11 0.06 0.03 0.03 0.03 0.02 0.02 0.02 0.01 0.01 0.01 0.00 0.00 0.00 0.00 0.00 0.00 0.00 0.00 0.00 0.00 0.00 0.00 0.00 0.00 0.00 0.00 0.00 0.00 0.00 0.00 0.00 0.00 0.00 0.00 0.00 0.00 0.00 0.00 0.00 0.00 0.00
0.02 0.02 0.01 0.04 0.20 0.32 0.44 0.37 0.54 0.45 0.36 0.31 0.35 0.19 0.17 0.11 0.10 0.14 0.24 0.20 0.23 0.18 0.04 0.00 0.00 0.00 0.00 0.00 0.00 0.00 0.00 0.00 0.00 0.00 0.00 0.00 0.00 0.00 0.00 0.00 0.00 0.00 0.00 0.00 0.00 0.00 0.00 0.00 0.00 0.00 0.00 0.00 0.00 0.00
0.01 0.04 0.05 0.08 0.23 0.23 0.25 0.31 0.39 0.37 0.24 0.33 0.45 0.34 0.33 0.29 0.23 0.25 0.30 0.38 0.37 0.16 0.05 0.01 0.02 0.01 0.00 0.00 0.00 0.00 0.00 0.00 0.00 0.00 0.00 0.00 0.00 0.00 0.00 0.00 0.00 0.00 0.00 0.00 0.00 0.00 0.00 0.00 0.00 0.00 0.00 0.00 0.00 0.00
0.01 0.02 0.07 0.11 0.15 0.12 0.20 0.24 0.25 0.32 0.31 0.37 0.40 0.32 0.35 0.36 0.43 0.42 0.47 0.39 0.21 0.11 0.05 0.05 0.06 0.03 0.01 0.00 0.00 0.00 0.00 0.00 0.00 0.00 0.00 0.00 0.00 0.00 0.00 0.00 0.00 0.00 0.00 0.00 0.00 0.00 0.00 0.00 0.00 0.00 0.00 0.00 0.00 0.00
0.00 0.00 0.00 0.03 0.09 0.12 0.14 0.20 0.16 0.20 0.24 0.26 0.31 0.27 0.22 0.30 0.38 0.38 0.23 0.11 0.13 0.14 0.08 0.04 0.02 0.01 0.00 0.00 0.00 0.00 0.00 0.00 0.00 0.00 0.00 0.00 0.00 0.00 0.00 0.00 0.00 0.00 0.00 0.00 0.00 0.00 0.00 0.00 0.00 0.00 0.00 0.00 0.00 0.00
0.01 0.00 0.00 0.00 0.00 0.02 0.04 0.12 0.14 0.12 0.17 0.23 0.26 0.26 0.25 0.26 0.30 0.21 0.15 0.13 0.20 0.23 0.15 0.04 0.00 0.00 0.00 0.00 0.00 0.00 0.00 0.00 0.00 0.00 0.00 0.00 0.00 0.01 0.01 0.00 0.00 0.00 0.00 0.00 0.00 0.00 0.00 0.00 0.00 0.00 0.00 0.00 0.00 0.00
0.02 0.01 0.00 0.00 0.00 0.00 0.00 0.06 0.12 0.16 0.18 0.21 0.22 0.22 0.22 0.20 0.17 0.16 0.10 0.14 0.23 0.27 0.23 0.11 0.02 0.00 0.00 0.00 0.00 0.00 0.00 0.00 0.00 0.00 0.01 0.01 0.00 0.00 0.00 0.01 0.00 0.00 0.00 0.00 0.00 0.00 0.00 0.00 0.00 0.00 0.00 0.00 0.00 0.00
0.00 0.00 0.00 0.00 0.00 0.00 0.00 0.00 0.01 0.04 0.09 0.12 0.13 0.13 0.12 0.12 0.14 0.06 0.07 0.15 0.22 0.25 0.25 0.21 0.09 0.01 0.00 0.00 0.00 0.00 0.00 0.00 0.00 0.00 0.00 0.01 0.01 0.00 0.00 0.00 0.00 0.00 0.00 0.00 0.00 0.00 0.00 0.00 0.00 0.00 0.00 0.00 0.00 0.00
0.00 0.00 0.00 0.00 0.00 0.00 0.00 0.00 0.00 0.00 0.00 0.02 0.08 0.07 0.06 0.04 0.02 0.03 0.07 0.14 0.22 0.24 0.24 0.21 0.15 0.05 0.02 0.01 0.00 0.00 0.01 0.01 0.00 0.00 0.00 0.00 0.00 0.00 0.00 0.00 0.00 0.00 0.00 0.00 0.00 0.00 0.00 0.00 0.00 0.00 0.00 0.00 0.00 0.00
0.00 0.00 0.00 0.00 0.00 0.00 0.00 0.00 0.00 0.00 0.00 0.00 0.01 0.02 0.02 0.02 0.04 0.06 0.09 0.12 0.15 0.17 0.17 0.16 0.15 0.11 0.07 0.05 0.03 0.02 0.01 0.00 0.00 0.00 0.00 0.01 0.00 0.01 0.00 0.00 0.00 0.00 0.00 0.00 0.00 0.00 0.00 0.00 0.00 0.00 0.00 0.00 0.00 0.00
0.01 0.00 0.00 0.01 0.00 0.00 0.00 0.00 0.00 0.00 0.00 0.00 0.00 0.00 0.00 0.02 0.04 0.06 0.08 0.11 0.13 0.15 0.15 0.14 0.12 0.09 0.06 0.03 0.02 0.01 0.01 0.00 0.00 0.00 0.00 0.00 0.00 0.00 0.00 0.00 0.00 0.00 0.00 0.00 0.00 0.00 0.00 0.00 0.00 0.00 0.00 0.00 0.00 0.00
0.01 0.00 0.00 0.00 0.00 0.00 0.01 0.01 0.01 0.00 0.00 0.00 0.00 0.00 0.00 0.01 0.03 0.04 0.06 0.08 0.09 0.11 0.11 0.11 0.09 0.06 0.03 0.02 0.00 0.00 0.01 0.01 0.00 0.00 0.00 0.00 0.00 0.00 0.00 0.00 0.00 0.00 0.00 0.00 0.00 0.00 0.00 0.00 0.00 0.00 0.00 0.00 0.00 0.00
0.02 0.01 0.00 0.01 0.01 0.01 0.02 0.01 0.01 0.01 0.01 0.01 0.01 0.01 0.01 0.01 0.01 0.02 0.02 0.03 0.04 0.04 0.05 0.04 0.03 0.02 0.01 0.01 0.01 0.02 0.01 0.01 0.01 0.00 0.00 0.00 0.00 0.00 0.00 0.00 0.00 0.00 0.00 0.00 0.00 0.00 0.00 0.00 0.00 0.00 0.00 0.00 0.00 0.00
0.05 0.05 0.04 0.03 0.02 0.01 0.01 0.01 0.01 0.01 0.01 0.01 0.01 0.01 0.01 0.01 0.01 0.01 0.01 0.02 0.02 0.02 0.02 0.02 0.02 0.02 0.03 0.03 0.03 0.03 0.03 0.03 0.03 0.02 0.02 0.01 0.01 0.00 0.00 0.00 0.00 0.00 0.00 0.00 0.00 0.00 0.00 0.00 0.00 0.00 0.00 0.00 0.00 0.00

GFSWCAN_prec_precacc_021.txt.gz
Total_Precipitation_Accumulation
0.26 0.22 0.23 0.24 0.23 0.20 0.17 0.19 0.25 0.25 0.22 0.18 0.17 0.22 0.24 0.16 0.20 0.16 0.02 0.06 0.12 0.07 0.02 0.00 0.00 0.00 0.13 0.25 0.28 0.19 0.18 0.10 0.13 0.22 0.12 0.06 0.02 0.01 0.00 0.00 0.00 0.00 0.01 0.02 0.03 0.03 0.00 0.00 0.00 0.00 0.00 0.00 0.00 0.00
0.29 0.27 0.26 0.28 0.25 0.20 0.20 0.21 0.25 0.23 0.20 0.19 0.16 0.18 0.20 0.15 0.14 0.17 0.04 0.07 0.13 0.08 0.02 0.01 0.00 0.00 0.03 0.15 0.27 0.22 0.15 0.06 0.07 0.11 0.07 0.04 0.01 0.00 0.00 0.00 0.00 0.00 0.00 0.00 0.00 0.00 0.00 0.00 0.00 0.00 0.00 0.00 0.00 0.00
0.29 0.29 0.26 0.24 0.23 0.20 0.18 0.20 0.25 0.22 0.20 0.19 0.17 0.14 0.15 0.14 0.13 0.16 0.05 0.09 0.16 0.09 0.02 0.00 0.00 0.00 0.00 0.04 0.19 0.28 0.18 0.11 0.04 0.04 0.07 0.01 0.01 0.00 0.00 0.00 0.00 0.00 0.00 0.00 0.00 0.00 0.00 0.00 0.00 0.00 0.00 0.00 0.00 0.00
0.23 0.25 0.20 0.18 0.20 0.16 0.14 0.17 0.20 0.19 0.14 0.15 0.16 0.12 0.10 0.10 0.12 0.16 0.05 0.08 0.12 0.09 0.03 0.00 0.00 0.00 0.00 0.01 0.09 0.19 0.22 0.11 0.07 0.07 0.11 0.04 0.00 0.00 0.00 0.00 0.00 0.00 0.00 0.00 0.00 0.00 0.00 0.00 0.00 0.00 0.00 0.00 0.00 0.00
0.18 0.19 0.16 0.14 0.13 0.14 0.12 0.13 0.14 0.14 0.10 0.11 0.12 0.10 0.10 0.13 0.12 0.08 0.04 0.12 0.13 0.14 0.10 0.00 0.00 0.00 0.00 0.00 0.04 0.12 0.20 0.19 0.08 0.11 0.05 0.03 0.00 0.00 0.00 0.00 0.00 0.00 0.00 0.00 0.00 0.00 0.00 0.00 0.00 0.00 0.00 0.00 0.00 0.00
0.18 0.16 0.14 0.13 0.11 0.14 0.12 0.09 0.10 0.11 0.08 0.09 0.12 0.13 0.12 0.13 0.18 0.12 0.15 0.12 0.13 0.10 0.08 0.01 0.00 0.00 0.00 0.00 0.03 0.04 0.08 0.07 0.03 0.05 0.01 0.00 0.00 0.00 0.00 0.00 0.00 0.00 0.00 0.00 0.00 0.00 0.00 0.00 0.00 0.00 0.00 0.00 0.00 0.00
0.23 0.21 0.16 0.16 0.17 0.19 0.18 0.09 0.10 0.17 0.15 0.14 0.19 0.18 0.12 0.17 0.15 0.15 0.08 0.03 0.13 0.11 0.07 0.01 0.01 0.00 0.00 0.00 0.00 0.01 0.01 0.02 0.01 0.00 0.00 0.00 0.00 0.00 0.00 0.00 0.00 0.00 0.00 0.00 0.00 0.00 0.00 0.00 0.00 0.00 0.00 0.00 0.00 0.00
0.57 0.67 0.66 0.42 0.36 0.34 0.33 0.17 0.18 0.26 0.31 0.21 0.25 0.25 0.23 0.29 0.21 0.12 0.04 0.05 0.15 0.24 0.11 0.03 0.00 0.00 0.00 0.00 0.00 0.00 0.01 0.00 0.01 0.00 0.00 0.00 0.00 0.00 0.00 0.00 0.00 0.00 0.00 0.00 0.00 0.00 0.00 0.00 0.00 0.00 0.00 0.00 0.00 0.00
0.64 0.68 0.88 1.07 0.94 0.75 0.62 0.43 0.32 0.34 0.41 0.40 0.41 0.45 0.46 0.29 0.08 0.03 0.06 0.17 0.08 0.39 0.41 0.07 0.00 0.00 0.00 0.00 0.00 0.00 0.01 0.01 0.00 0.00 0.00 0.00 0.00 0.00 0.00 0.00 0.00 0.00 0.00 0.00 0.00 0.00 0.00 0.00 0.00 0.00 0.00 0.00 0.00 0.00
0.55 0.62 0.65 0.81 1.07 1.25 1.21 0.92 0.70 0.52 0.54 0.70 0.70 0.67 0.41 0.17 0.07 0.04 0.06 0.19 0.25 0.16 0.21 0.17 0.04 0.00 0.00 0.00 0.01 0.01 0.01 0.01 0.00 0.00 0.00 0.00 0.00 0.00 0.00 0.00 0.00 0.00 0.00 0.00 0.00 0.00 0.00 0.00 0.00 0.00 0.00 0.00 0.00 0.00
0.31 0.51 0.66 0.73 0.93 1.14 1.49 1.56 1.45 1.21 1.10 1.11 0.97 0.45 0.23 0.09 0.03 0.03 0.13 0.12 0.22 0.11 0.03 0.04 0.06 0.05 0.01 0.00 0.00 0.00 0.00 0.00 0.00 0.00 0.00 0.00 0.00 0.00 0.00 0.00 0.00 0.00 0.00 0.00 0.00 0.00 0.00 0.00 0.00 0.00 0.00 0.00 0.00 0.00
0.17 0.29 0.54 0.74 0.87 1.35 1.58 2.06 2.55 2.66 2.02 1.11 0.54 0.51 0.32 0.06 0.09 0.09 0.08 0.06 0.02 0.01 0.00 0.00 0.00 0.03 0.09 0.06 0.01 0.00 0.00 0.00 0.00 0.00 0.00 0.00 0.00 0.00 0.00 0.00 0.00 0.00 0.00 0.00 0.00 0.00 0.00 0.00 0.00 0.00 0.00 0.00 0.00 0.00
0.10 0.22 0.38 0.60 0.81 1.12 1.68 1.99 2.69 2.72 1.65 1.04 1.00 1.15 0.42 0.23 0.09 0.02 0.02 0.00 0.00 0.00 0.00 0.00 0.00 0.00 0.02 0.07 0.03 0.00 0.00 0.00 0.00 0.00 0.00 0.00 0.00 0.00 0.00 0.00 0.00 0.00 0.00 0.00 0.00 0.00 0.00 0.00 0.00 0.00 0.00 0.00 0.00 0.00
0.05 0.14 0.25 0.38 0.75 1.03 1.72 2.43 3.09 2.94 2.33 1.73 1.44 0.99 0.23 0.17 0.00 0.00 0.00 0.00 0.00 0.00 0.00 0.00 0.00 0.00 0.00 0.00 0.00 0.00 0.01 0.00 0.01 0.00 0.00 0.00 0.00 0.00 0.00 0.00 0.00 0.00 0.00 0.00 0.00 0.00 0.00 0.00 0.00 0.00 0.00 0.00 0.00 0.00
0.02 0.07 0.13 0.29 0.58 1.12 1.96 2.88 3.12 2.35 1.93 1.47 0.72 0.24 0.04 0.00 0.00 0.00 0.00 0.00 0.00 0.00 0.00 0.00 0.00 0.00 0.00 0.00 0.00 0.01 0.02 0.01 0.00 0.00 0.00 0.00 0.00 0.00 0.00 0.00 0.00 0.00 0.00 0.00 0.00 0.00 0.00 0.00 0.00 0.00 0.00 0.00 0.00 0.00
0.02 0.03 0.11 0.22 0.39 0.80 1.57 1.88 2.04 1.58 1.82 1.36 0.55 0.15 0.01 0.00 0.00 0.00 0.00 0.00 0.00 0.00 0.00 0.00 0.00 0.00 0.00 0.00 0.00 0.00 0.00 0.00 0.00 0.00 0.00 0.00 0.00 0.00 0.00 0.00 0.00 0.00 0.00 0.00 0.00 0.00 0.00 0.00 0.00 0.00 0.00 0.00 0.00 0.00
0.02 0.02 0.12 0.14 0.23 0.50 1.16 1.71 1.49 1.65 1.84 1.32 0.37 0.03 0.00 0.00 0.00 0.00 0.00 0.00 0.00 0.00 0.00 0.00 0.00 0.00 0.00 0.00 0.00 0.00 0.00 0.00 0.00 0.00 0.00 0.00 0.00 0.00 0.00 0.00 0.00 0.00 0.00 0.00 0.00 0.00 0.00 0.00 0.00 0.00 0.00 0.00 0.00 0.00
0.02 0.01 0.07 0.07 0.15 0.47 0.83 1.28 1.73 1.71 1.41 0.69 0.11 0.02 0.00 0.00 0.00 0.00 0.00 0.00 0.00 0.00 0.00 0.00 0.00 0.00 0.00 0.00 0.00 0.00 0.00 0.00 0.00 0.00 0.00 0.00 0.00 0.00 0.00 0.00 0.00 0.00 0.00 0.00 0.00 0.00 0.00 0.00 0.00 0.00 0.00 0.00 0.00 0.00
0.01 0.02 0.04 0.05 0.18 0.43 0.68 0.95 1.21 1.06 0.67 0.25 0.06 0.03 0.01 0.01 0.01 0.01 0.00 0.00 0.00 0.00 0.00 0.00 0.00 0.00 0.00 0.00 0.00 0.00 0.00 0.00 0.00 0.00 0.00 0.00 0.00 0.00 0.00 0.00 0.00 0.00 0.00 0.00 0.00 0.00 0.00 0.00 0.00 0.00 0.00 0.00 0.00 0.00
0.06 0.08 0.03 0.05 0.19 0.35 0.49 0.71 0.74 0.62 0.40 0.28 0.15 0.09 0.05 0.03 0.03 0.02 0.02 0.02 0.01 0.01 0.01 0.00 0.00 0.00 0.00 0.00 0.00 0.00 0.00 0.00 0.00 0.00 0.00 0.00 0.00 0.00 0.00 0.00 0.00 0.00 0.00 0.00 0.00 0.00 0.00 0.00 0.00 0.00 0.00 0.00 0.00 0.00
0.02 0.02 0.01 0.04 0.20 0.32 0.44 0.37 0.56 0.50 0.40 0.35 0.42 0.26 0.22 0.14 0.12 0.14 0.25 0.21 0.25 0.20 0.05 0.00 0.00 0.00 0.00 0.00 0.00 0.00 0.00 0.00 0.00 0.00 0.00 0.00 0.00 0.00 0.00 0.00 0.00 0.00 0.00 0.00 0.00 0.00 0.00 0.00 0.00 0.00 0.00 0.00 0.00 0.00
0.01 0.04 0.05 0.08 0.23 0.23 0.25 0.31 0.41 0.40 0.29 0.38 0.51 0.44 0.42 0.36 0.30 0.32 0.37 0.47 0.46 0.22 0.07 0.01 0.02 0.01 0.00 0.00 0.00 0.00 0.00 0.00 0.00 0.00 0.00 0.00 0.00 0.00 0.00 0.00 0.00 0.00 0.00 0.00 0.00 0.00 0.00 0.00 0.00 0.00 0.00 0.00 0.00 0.00
0.01 0.02 0.07 0.11 0.15 0.12 0.20 0.24 0.26 0.34 0.34 0.41 0.45 0.40 0.45 0.43 0.48 0.48 0.54 0.46 0.25 0.15 0.09 0.09 0.08 0.04 0.01 0.00 0.00 0.00 0.00 0.00 0.00 0.00 0.00 0.00 0.00 0.00 0.00 0.00 0.00 0.00 0.00 0.00 0.00 0.00 0.00 0.00 0.00 0.00 0.00 0.00 0.00 0.00
0.00 0.00 0.00 0.03 0.09 0.12 0.14 0.20 0.16 0.21 0.26 0.30 0.36 0.33 0.29 0.37 0.46 0.43 0.26 0.12 0.15 0.17 0.14 0.12 0.09 0.06 0.02 0.00 0.00 0.00 0.00 0.00 0.00 0.00 0.00 0.00 0.00 0.00 0.00 0.00 0.00 0.00 0.00 0.00 0.00 0.00 0.00 0.00 0.00 0.00 0.00 0.00 0.00 0.00
0.01 0.00 0.00 0.00 0.00 0.02 0.04 0.12 0.14 0.12 0.19 0.26 0.31 0.32 0.31 0.34 0.38 0.26 0.16 0.14 0.22 0.26 0.21 0.12 0.05 0.02 0.01 0.01 0.01 0.02 0.00 0.00 0.00 0.00 0.00 0.00 0.00 0.01 0.01 0.00 0.00 0.00 0.00 0.00 0.00 0.00 0.00 0.00 0.00 0.00 0.00 0.00 0.00 0.00
0.02 0.01 0.00 0.00 0.00 0.00 0.00 0.06 0.12 0.16 0.19 0.23 0.26 0.28 0.30 0.29 0.25 0.22 0.13 0.17 0.27 0.34 0.32 0.21 0.11 0.04 0.02 0.01 0.01 0.02 0.01 0.00 0.00 0.00 0.01 0.01 0.00 0.00 0.00 0.01 0.00 0.00 0.00 0.00 0.00 0.00 0.00 0.00 0.00 0.00 0.00 0.00 0.00 0.00
0.00 0.00 0.00 0.00 0.00 0.00 0.00 0.00 0.01 0.04 0.09 0.13 0.16 0.17 0.18 0.19 0.21 0.11 0.11 0.19 0.28 0.33 0.34 0.32 0.19 0.07 0.03 0.01 0.01 0.00 0.00 0.00 0.00 0.01 0.01 0.01 0.01 0.00 0.00 0.00 0.00 0.00 0.00 0.00 0.00 0.00 0.00 0.00 0.00 0.00 0.00 0.00 0.00 0.00
0.00 0.00 0.00 0.00 0.00 0.00 0.00 0.00 0.00 0.00 0.00 0.03 0.09 0.09 0.09 0.08 0.06 0.07 0.11 0.19 0.29 0.31 0.33 0.33 0.26 0.12 0.06 0.03 0.02 0.01 0.01 0.01 0.00 0.00 0.00 0.00 0.00 0.00 0.00 0.00 0.00 0.00 0.00 0.00 0.00 0.00 0.00 0.00 0.00 0.00 0.00 0.00 0.00 0.00
0.00 0.00 0.00 0.00 0.00 0.00 0.00 0.00 0.00 0.00 0.00 0.00 0.01 0.03 0.03 0.03 0.05 0.08 0.13 0.18 0.23 0.27 0.28 0.27 0.27 0.21 0.16 0.11 0.08 0.05 0.03 0.01 0.00 0.00 0.00 0.01 0.00 0.01 0.00 0.00 0.00 0.00 0.00 0.00 0.00 0.00 0.00 0.00 0.00 0.00 0.00 0.00 0.00 0.00
0.01 0.00 0.00 0.01 0.00 0.00 0.00 0.00 0.01 0.00 0.00 0.00 0.00 0.00 0.01 0.03 0.06 0.09 0.12 0.16 0.20 0.24 0.25 0.25 0.24 0.20 0.16 0.12 0.11 0.08 0.05 0.03 0.02 0.01 0.01 0.00 0.00 0.00 0.00 0.00 0.00 0.00 0.00 0.00 0.00 0.00 0.00 0.00 0.00 0.00 0.00 0.00 0.00 0.00
0.01 0.00 0.00 0.00 0.00 0.00 0.01 0.02 0.01 0.00 0.00 0.00 0.00 0.00 0.00 0.02 0.04 0.06 0.09 0.13 0.16 0.19 0.20 0.20 0.19 0.17 0.13 0.10 0.06 0.03 0.02 0.01 0.00 0.00 0.00 0.00 0.00 0.00 0.00 0.00 0.00 0.00 0.00 0.00 0.00 0.00 0.00 0.00 0.00 0.00 0.00 0.00 0.00 0.00
0.03 0.02 0.00 0.01 0.01 0.01 0.02 0.01 0.01 0.01 0.01 0.01 0.01 0.01 0.01 0.01 0.02 0.03 0.05 0.07 0.10 0.12 0.12 0.12 0.10 0.09 0.07 0.05 0.03 0.02 0.01 0.01 0.01 0.00 0.00 0.00 0.00 0.00 0.00 0.00 0.00 0.00 0.00 0.00 0.00 0.00 0.00 0.00 0.00 0.00 0.00 0.00 0.00 0.00
0.05 0.05 0.04 0.03 0.02 0.01 0.01 0.01 0.01 0.01 0.01 0.01 0.01 0.01 0.01 0.02 0.02 0.02 0.02 0.03 0.04 0.06 0.06 0.06 0.06 0.05 0.04 0.03 0.03 0.03 0.03 0.03 0.03 0.02 0.02 0.01 0.01 0.00 0.00 0.00 0.00 0.00 0.00 0.00 0.00 0.00 0.00 0.00 0.00 0.00 0.00 0.00 0.00 0.00

GFSWCAN_prec_precacc_024.txt.gz
Total_Precipitation_Accumulation
0.29 0.23 0.25 0.26 0.25 0.23 0.19 0.20 0.25 0.25 0.22 0.18 0.18 0.23 0.26 0.24 0.43 0.31 0.12 0.07 0.13 0.09 0.03 0.00 0.00 0.00 0.14 0.32 0.40 0.30 0.29 0.15 0.15 0.25 0.15 0.07 0.02 0.01 0.00 0.00 0.00 0.00 0.01 0.02 0.03 0.03 0.00 0.00 0.00 0.00 0.00 0.00 0.00 0.00
0.30 0.29 0.28 0.30 0.28 0.22 0.23 0.22 0.25 0.23 0.20 0.20 0.17 0.19 0.21 0.17 0.30 0.36 0.10 0.09 0.16 0.09 0.02 0.01 0.00 0.00 0.03 0.17 0.36 0.30 0.24 0.07 0.09 0.12 0.07 0.04 0.01 0.00 0.00 0.00 0.00 0.00 0.00 0.00 0.00 0.00 0.00 0.00 0.00 0.00 0.00 0.00 0.00 0.00
0.30 0.31 0.28 0.27 0.26 0.23 0.20 0.20 0.26 0.23 0.20 0.19 0.18 0.16 0.16 0.16 0.20 0.32 0.13 0.09 0.18 0.10 0.02 0.00 0.00 0.00 0.00 0.04 0.23 0.36 0.24 0.20 0.07 0.05 0.07 0.01 0.01 0.00 0.00 0.00 0.00 0.00 0.00 0.00 0.00 0.00 0.00 0.00 0.00 0.00 0.00 0.00 0.00 0.00
0.24 0.27 0.22 0.21 0.23 0.18 0.15 0.18 0.20 0.19 0.14 0.15 0.17 0.13 0.11 0.15 0.22 0.26 0.08 0.08 0.13 0.11 0.03 0.00 0.00 0.00 0.00 0.01 0.10 0.25 0.31 0.23 0.18 0.11 0.13 0.05 0.00 0.00 0.00 0.00 0.00 0.00 0.00 0.00 0.00 0.00 0.00 0.00 0.00 0.00 0.00 0.00 0.00 0.00
0.20 0.20 0.19 0.17 0.16 0.16 0.13 0.13 0.14 0.14 0.10 0.11 0.13 0.11 0.10 0.17 0.28 0.15 0.05 0.12 0.13 0.16 0.15 0.01 0.00 0.00 0.00 0.00 0.05 0.15 0.26 0.28 0.21 0.16 0.05 0.03 0.00 0.00 0.00 0.00 0.00 0.00 0.00 0.00 0.00 0.00 0.00 0.00 0.00 0.00 0.00 0.00 0.00 0.00
0.19 0.18 0.16 0.15 0.13 0.16 0.13 0.10 0.10 0.11 0.08 0.09 0.13 0.13 0.12 0.19 0.36 0.28 0.19 0.13 0.13 0.11 0.14 0.04 0.00 0.00 0.00 0.00 0.04 0.08 0.14 0.12 0.08 0.08 0.02 0.01 0.00 0.00 0.00 0.00 0.00 0.00 0.00 0.00 0.00 0.00 0.00 0.00 0.00 0.00 0.00 0.00 0.00 0.00
0.23 0.23 0.18 0.18 0.19 0.20 0.18 0.10 0.10 0.17 0.16 0.15 0.20 0.18 0.12 0.24 0.31 0.34 0.10 0.03 0.13 0.12 0.11 0.01 0.01 0.00 0.00 0.00 0.01 0.06 0.10 0.07 0.03 0.03 0.01 0.00 0.00 0.00 0.00 0.00 0.00 0.00 0.00 0.00 0.00 0.00 0.00 0.00 0.00 0.00 0.00 0.00 0.00 0.00
0.58 0.68 0.68 0.44 0.37 0.35 0.33 0.17 0.18 0.26 0.32 0.21 0.25 0.25 0.23 0.35 0.33 0.25 0.06 0.05 0.15 0.25 0.13 0.04 0.00 0.00 0.00 0.00 0.00 0.01 0.07 0.03 0.01 0.00 0.00 0.00 0.00 0.00 0.00 0.00 0.00 0.00 0.00 0.00 0.00 0.00 0.00 0.00 0.00 0.00 0.00 0.00 0.00 0.00
0.64 0.69 0.89 1.08 0.94 0.76 0.62 0.43 0.32 0.35 0.42 0.40 0.41 0.45 0.47 0.35 0.17 0.05 0.09 0.20 0.09 0.40 0.46 0.09 0.00 0.00 0.00 0.00 0.00 0.00 0.01 0.02 0.01 0.00 0.00 0.00 0.00 0.00 0.00 0.00 0.00 0.00 0.00 0.00 0.00 0.00 0.00 0.00 0.00 0.00 0.00 0.00 0.00 0.00
0.55 0.62 0.65 0.81 1.07 1.25 1.21 0.92 0.71 0.52 0.54 0.70 0.72 0.72 0.49 0.24 0.10 0.04 0.08 0.32 0.35 0.21 0.23 0.19 0.04 0.00 0.00 0.00 0.01 0.01 0.01 0.01 0.00 0.00 0.00 0.00 0.00 0.00 0.00 0.00 0.00 0.00 0.00 0.00 0.00 0.00 0.00 0.00 0.00 0.00 0.00 0.00 0.00 0.00
0.31 0.51 0.66 0.73 0.93 1.14 1.50 1.57 1.45 1.21 1.11 1.15 1.13 0.63 0.41 0.25 0.07 0.13 0.16 0.18 0.29 0.15 0.04 0.04 0.06 0.05 0.01 0.00 0.00 0.00 0.00 0.00 0.00 0.00 0.00 0.00 0.00 0.00 0.00 0.00 0.00 0.00 0.00 0.00 0.00 0.00 0.00 0.00 0.00 0.00 0.00 0.00 0.00 0.00
0.17 0.29 0.54 0.74 0.87 1.35 1.58 2.06 2.56 2.67 2.05 1.17 0.73 0.78 0.69 0.28 0.24 0.24 0.12 0.09 0.03 0.01 0.00 0.00 0.00 0.03 0.09 0.06 0.02 0.00 0.00 0.00 0.00 0.00 0.00 0.00 0.00 0.00 0.00 0.00 0.00 0.00 0.00 0.00 0.00 0.00 0.00 0.00 0.00 0.00 0.00 0.00 0.00 0.00
0.10 0.22 0.38 0.60 0.81 1.12 1.68 1.99 2.70 2.74 1.66 1.14 1.20 1.48 0.70 0.41 0.16 0.04 0.02 0.01 0.00 0.00 0.00 0.00 0.00 0.00 0.02 0.11 0.09 0.02 0.00 0.00 0.00 0.00 0.00 0.00 0.00 0.00 0.00 0.00 0.00 0.00 0.00 0.00 0.00 0.00 0.00 0.00 0.00 0.00 0.00 0.00 0.00 0.00
0.05 0.14 0.25 0.38 0.75 1.03 1.72 2.43 3.10 2.95 2.38 1.90 1.68 1.32 0.39 0.21 0.00 0.00 0.00 0.00 0.00 0.00 0.00 0.00 0.00 0.00 0.00 0.00 0.02 0.00 0.01 0.00 0.01 0.00 0.00 0.00 0.00 0.00 0.00 0.00 0.00 0.00 0.00 0.00 0.00 0.00 0.00 0.00 0.00 0.00 0.00 0.00 0.00 0.00
0.02 0.07 0.13 0.29 0.58 1.12 1.96 2.89 3.13 2.36 2.01 1.62 0.89 0.45 0.12 0.00 0.00 0.00 0.00 0.00 0.00 0.00 0.00 0.00 0.00 0.00 0.00 0.00 0.00 0.01 0.02 0.01 0.00 0.00 0.00 0.00 0.00 0.00 0.00 0.00 0.00 0.00 0.00 0.00 0.00 0.00 0.00 0.00 0.00 0.00 0.00 0.00 0.00 0.00
0.02 0.03 0.11 0.22 0.39 0.80 1.57 1.88 2.04 1.60 1.89 1.48 0.68 0.26 0.03 0.00 0.00 0.00 0.00 0.00 0.00 0.00 0.00 0.00 0.00 0.00 0.00 0.00 0.00 0.00 0.00 0.00 0.00 0.00 0.00 0.00 0.00 0.00 0.00 0.00 0.00 0.00 0.00 0.00 0.00 0.00 0.00 0.00 0.00 0.00 0.00 0.00 0.00 0.00
0.02 0.02 0.12 0.14 0.23 0.50 1.16 1.71 1.49 1.68 1.92 1.42 0.42 0.04 0.00 0.00 0.00 0.00 0.00 0.00 0.00 0.00 0.00 0.00 0.00 0.00 0.00 0.00 0.00 0.00 0.00 0.00 0.00 0.00 0.00 0.00 0.00 0.00 0.00 0.00 0.00 0.00 0.00 0.00 0.00 0.00 0.00 0.00 0.00 0.00 0.00 0.00 0.00 0.00
0.02 0.01 0.07 0.07 0.15 0.47 0.83 1.29 1.74 1.73 1.47 0.72 0.12 0.03 0.01 0.00 0.00 0.00 0.00 0.00 0.00 0.00 0.00 0.00 0.00 0.00 0.00 0.00 0.00 0.00 0.00 0.00 0.00 0.00 0.00 0.00 0.00 0.00 0.00 0.00 0.00 0.00 0.00 0.00 0.00 0.00 0.00 0.00 0.00 0.00 0.00 0.00 0.00 0.00
0.01 0.02 0.04 0.05 0.18 0.43 0.68 0.95 1.21 1.07 0.68 0.26 0.06 0.04 0.03 0.02 0.01 0.01 0.00 0.00 0.00 0.00 0.00 0.00 0.00 0.00 0.00 0.00 0.00 0.00 0.00 0.00 0.00 0.00 0.00 0.00 0.00 0.00 0.00 0.00 0.00 0.00 0.00 0.00 0.00 0.00 0.00 0.00 0.00 0.00 0.00 0.00 0.00 0.00
0.06 0.08 0.03 0.05 0.19 0.35 0.49 0.71 0.75 0.62 0.42 0.29 0.16 0.12 0.09 0.06 0.04 0.03 0.02 0.02 0.01 0.01 0.01 0.00 0.00 0.00 0.00 0.00 0.00 0.00 0.00 0.00 0.00 0.00 0.00 0.00 0.00 0.00 0.00 0.00 0.00 0.00 0.00 0.00 0.00 0.00 0.00 0.00 0.00 0.00 0.00 0.00 0.00 0.00
0.02 0.02 0.01 0.04 0.20 0.32 0.44 0.37 0.56 0.51 0.41 0.37 0.45 0.30 0.27 0.23 0.18 0.18 0.26 0.21 0.25 0.20 0.05 0.00 0.00 0.00 0.00 0.00 0.00 0.00 0.00 0.00 0.00 0.00 0.00 0.00 0.00 0.00 0.00 0.00 0.00 0.00 0.00 0.00 0.00 0.00 0.00 0.00 0.00 0.00 0.00 0.00 0.00 0.00
0.01 0.04 0.05 0.08 0.23 0.23 0.25 0.31 0.41 0.40 0.30 0.40 0.55 0.51 0.49 0.46 0.45 0.44 0.46 0.54 0.49 0.23 0.07 0.01 0.02 0.01 0.00 0.00 0.00 0.00 0.00 0.00 0.00 0.00 0.00 0.00 0.00 0.00 0.00 0.00 0.00 0.00 0.00 0.00 0.00 0.00 0.00 0.00 0.00 0.00 0.00 0.00 0.00 0.00
0.01 0.02 0.07 0.11 0.15 0.12 0.20 0.24 0.26 0.34 0.34 0.42 0.48 0.47 0.56 0.52 0.60 0.67 0.73 0.58 0.30 0.16 0.10 0.10 0.08 0.04 0.01 0.00 0.00 0.00 0.00 0.00 0.00 0.00 0.00 0.00 0.00 0.00 0.00 0.00 0.00 0.00 0.00 0.00 0.00 0.00 0.00 0.00 0.00 0.00 0.00 0.00 0.00 0.00
0.00 0.00 0.00 0.03 0.09 0.12 0.14 0.20 0.16 0.21 0.26 0.30 0.38 0.38 0.37 0.49 0.57 0.53 0.36 0.17 0.18 0.20 0.17 0.16 0.12 0.06 0.02 0.00 0.00 0.00 0.00 0.00 0.00 0.00 0.00 0.00 0.00 0.00 0.00 0.00 0.00 0.00 0.00 0.00 0.00 0.00 0.00 0.00 0.00 0.00 0.00 0.00 0.00 0.00
0.01 0.00 0.00 0.00 0.00 0.02 0.04 0.12 0.14 0.12 0.19 0.26 0.32 0.35 0.36 0.42 0.49 0.35 0.19 0.16 0.24 0.29 0.24 0.16 0.08 0.05 0.03 0.02 0.01 0.02 0.01 0.00 0.00 0.00 0.01 0.01 0.01 0.01 0.01 0.00 0.00 0.00 0.00 0.00 0.00 0.00 0.00 0.00 0.00 0.00 0.00 0.00 0.00 0.00
0.02 0.01 0.00 0.00 0.00 0.00 0.00 0.06 0.12 0.16 0.19 0.23 0.27 0.29 0.33 0.33 0.30 0.28 0.16 0.19 0.29 0.35 0.34 0.24 0.15 0.08 0.05 0.04 0.04 0.06 0.04 0.03 0.04 0.04 0.06 0.04 0.02 0.01 0.01 0.01 0.00 0.00 0.00 0.00 0.00 0.00 0.00 0.00 0.00 0.00 0.00 0.00 0.00 0.00
0.00 0.00 0.00 0.00 0.00 0.00 0.00 0.00 0.01 0.04 0.09 0.14 0.16 0.18 0.19 0.21 0.24 0.13 0.12 0.21 0.30 0.35 0.38 0.36 0.25 0.13 0.09 0.08 0.07 0.07 0.08 0.10 0.09 0.06 0.03 0.02 0.01 0.00 0.00 0.00 0.00 0.00 0.00 0.00 0.00 0.00 0.00 0.00 0.00 0.00 0.00 0.00 0.00 0.00
0.00 0.00 0.00 0.00 0.00 0.00 0.00 0.00 0.00 0.00 0.00 0.03 0.10 0.09 0.10 0.10 0.07 0.08 0.13 0.22 0.33 0.36 0.40 0.41 0.35 0.22 0.16 0.13 0.12 0.09 0.10 0.09 0.06 0.02 0.00 0.00 0.00 0.00 0.00 0.00 0.00 0.00 0.00 0.00 0.00 0.00 0.00 0.00 0.00 0.00 0.00 0.00 0.00 0.00
0.00 0.00 0.00 0.00 0.00 0.00 0.00 0.00 0.00 0.00 0.00 0.00 0.01 0.03 0.03 0.03 0.06 0.09 0.14 0.21 0.29 0.34 0.37 0.37 0.37 0.32 0.26 0.22 0.19 0.17 0.11 0.06 0.03 0.03 0.01 0.02 0.01 0.02 0.00 0.00 0.00 0.00 0.00 0.00 0.00 0.00 0.00 0.00 0.00 0.00 0.00 0.00 0.00 0.00
0.01 0.00 0.00 0.01 0.00 0.00 0.00 0.01 0.01 0.01 0.00 0.00 0.00 0.00 0.01 0.03 0.06 0.09 0.13 0.19 0.25 0.31 0.34 0.36 0.35 0.32 0.28 0.23 0.22 0.20 0.16 0.13 0.10 0.06 0.05 0.04 0.02 0.01 0.00 0.00 0.00 0.00 0.00 0.00 0.00 0.00 0.00 0.00 0.00 0.00 0.00 0.00 0.00 0.00
0.01 0.01 0.00 0.00 0.00 0.01 0.01 0.02 0.01 0.00 0.00 0.00 0.00 0.00 0.01 0.02 0.04 0.07 0.10 0.15 0.20 0.25 0.28 0.30 0.30 0.31 0.27 0.24 0.19 0.14 0.11 0.08 0.04 0.02 0.01 0.00 0.00 0.00 0.00 0.00 0.00 0.00 0.00 0.00 0.00 0.00 0.00 0.00 0.00 0.00 0.00 0.00 0.00 0.00
0.03 0.02 0.00 0.01 0.01 0.02 0.02 0.01 0.01 0.01 0.01 0.01 0.01 0.01 0.01 0.02 0.03 0.04 0.06 0.10 0.13 0.16 0.19 0.20 0.19 0.19 0.18 0.15 0.12 0.09 0.06 0.04 0.02 0.00 0.00 0.00 0.00 0.00 0.00 0.00 0.00 0.00 0.00 0.00 0.00 0.00 0.00 0.00 0.00 0.00 0.00 0.00 0.00 0.00
0.05 0.06 0.05 0.03 0.02 0.01 0.01 0.01 0.01 0.01 0.01 0.01 0.01 0.01 0.02 0.02 0.03 0.03 0.03 0.06 0.08 0.11 0.12 0.13 0.14 0.13 0.12 0.10 0.08 0.06 0.04 0.03 0.03 0.02 0.02 0.01 0.01 0.00 0.00 0.00 0.00 0.00 0.00 0.00 0.00 0.00 0.00 0.00 0.00 0.00 0.00 0.00 0.00 0.00

GFSWCAN_prec_precacc_027.txt.gz
Total_Precipitation_Accumulation
0.29 0.25 0.27 0.28 0.26 0.25 0.23 0.23 0.27 0.26 0.22 0.18 0.18 0.24 0.27 0.25 0.47 0.37 0.25 0.16 0.16 0.12 0.03 0.00 0.00 0.01 0.16 0.36 0.46 0.37 0.41 0.17 0.16 0.31 0.22 0.09 0.02 0.01 0.00 0.00 0.00 0.00 0.01 0.02 0.03 0.03 0.00 0.00 0.00 0.00 0.00 0.00 0.00 0.00
0.31 0.30 0.31 0.32 0.30 0.24 0.26 0.24 0.26 0.24 0.20 0.20 0.17 0.19 0.23 0.18 0.35 0.46 0.24 0.19 0.17 0.12 0.03 0.01 0.01 0.01 0.04 0.20 0.41 0.36 0.30 0.08 0.09 0.13 0.08 0.04 0.01 0.00 0.00 0.00 0.00 0.00 0.00 0.00 0.00 0.00 0.00 0.00 0.00 0.00 0.00 0.00 0.00 0.00
0.31 0.33 0.30 0.29 0.28 0.24 0.22 0.22 0.26 0.23 0.20 0.19 0.18 0.16 0.17 0.16 0.24 0.41 0.25 0.14 0.21 0.13 0.02 0.00 0.00 0.00 0.00 0.05 0.30 0.45 0.27 0.22 0.08 0.05 0.07 0.01 0.01 0.00 0.00 0.00 0.00 0.00 0.00 0.00 0.00 0.00 0.00 0.00 0.00 0.00 0.00 0.00 0.00 0.00
0.26 0.29 0.24 0.23 0.24 0.19 0.17 0.21 0.21 0.19 0.14 0.15 0.17 0.13 0.11 0.16 0.23 0.30 0.20 0.10 0.15 0.13 0.03 0.00 0.00 0.00 0.00 0.02 0.16 0.34 0.43 0.33 0.28 0.13 0.16 0.06 0.00 0.00 0.00 0.00 0.00 0.00 0.00 0.00 0.00 0.00 0.00 0.00 0.00 0.00 0.00 0.00 0.00 0.00
0.20 0.21 0.20 0.18 0.16 0.16 0.16 0.15 0.14 0.14 0.10 0.11 0.13 0.12 0.11 0.17 0.29 0.16 0.10 0.14 0.14 0.18 0.17 0.03 0.00 0.00 0.00 0.00 0.08 0.21 0.37 0.42 0.40 0.31 0.12 0.05 0.01 0.00 0.00 0.00 0.00 0.00 0.00 0.00 0.00 0.00 0.00 0.00 0.00 0.00 0.00 0.00 0.00 0.00
0.19 0.19 0.17 0.15 0.14 0.18 0.15 0.10 0.10 0.11 0.08 0.09 0.13 0.14 0.12 0.19 0.39 0.34 0.25 0.14 0.13 0.12 0.16 0.05 0.00 0.00 0.00 0.00 0.04 0.10 0.17 0.18 0.18 0.21 0.08 0.02 0.00 0.00 0.00 0.00 0.00 0.00 0.00 0.00 0.00 0.00 0.00 0.00 0.00 0.00 0.00 0.00 0.00 0.00
0.24 0.23 0.18 0.18 0.20 0.22 0.18 0.10 0.10 0.17 0.16 0.16 0.20 0.19 0.12 0.24 0.33 0.43 0.13 0.03 0.13 0.12 0.14 0.02 0.01 0.00 0.00 0.00 0.02 0.08 0.13 0.14 0.12 0.09 0.05 0.00 0.00 0.00 0.00 0.00 0.00 0.00 0.00 0.00 0.00 0.00 0.00 0.00 0.00 0.00 0.00 0.00 0.00 0.00
0.58 0.68 0.68 0.44 0.38 0.35 0.34 0.17 0.18 0.26 0.32 0.21 0.25 0.25 0.23 0.35 0.34 0.30 0.07 0.05 0.15 0.25 0.14 0.04 0.00 0.00 0.00 0.00 0.00 0.03 0.13 0.09 0.06 0.03 0.01 0.01 0.00 0.00 0.00 0.00 0.00 0.00 0.00 0.00 0.00 0.00 0.00 0.00 0.00 0.00 0.00 0.00 0.00 0.00
0.64 0.69 0.89 1.08 0.94 0.76 0.62 0.43 0.32 0.35 0.42 0.40 0.41 0.45 0.47 0.36 0.18 0.10 0.20 0.21 0.09 0.40 0.47 0.09 0.00 0.00 0.00 0.00 0.00 0.01 0.04 0.05 0.02 0.00 0.00 0.00 0.00 0.00 0.00 0.00 0.00 0.00 0.00 0.00 0.00 0.00 0.00 0.00 0.00 0.00 0.00 0.00 0.00 0.00
0.55 0.62 0.65 0.81 1.07 1.25 1.21 0.92 0.71 0.52 0.54 0.71 0.72 0.72 0.51 0.26 0.14 0.12 0.37 0.42 0.41 0.22 0.23 0.19 0.04 0.00 0.00 0.00 0.01 0.01 0.01 0.01 0.00 0.00 0.00 0.00 0.00 0.00 0.00 0.00 0.00 0.00 0.00 0.00 0.00 0.00 0.00 0.00 0.00 0.00 0.00 0.00 0.00 0.00
0.31 0.51 0.66 0.73 0.93 1.14 1.50 1.57 1.46 1.22 1.12 1.15 1.15 0.67 0.50 0.41 0.22 0.30 0.28 0.22 0.37 0.18 0.05 0.04 0.06 0.05 0.01 0.00 0.00 0.00 0.00 0.00 0.00 0.00 0.00 0.00 0.00 0.00 0.00 0.00 0.00 0.00 0.00 0.00 0.00 0.00 0.00 0.00 0.00 0.00 0.00 0.00 0.00 0.00
0.17 0.29 0.54 0.74 0.87 1.35 1.58 2.06 2.56 2.68 2.06 1.18 0.75 0.89 0.92 0.49 0.39 0.39 0.21 0.10 0.03 0.02 0.00 0.00 0.00 0.03 0.09 0.06 0.02 0.00 0.00 0.00 0.00 0.00 0.00 0.00 0.00 0.00 0.00 0.00 0.00 0.00 0.00 0.00 0.00 0.00 0.00 0.00 0.00 0.00 0.00 0.00 0.00 0.00
0.10 0.22 0.38 0.60 0.81 1.12 1.68 1.99 2.70 2.75 1.67 1.15 1.26 1.67 0.95 0.58 0.27 0.08 0.05 0.02 0.00 0.00 0.00 0.00 0.00 0.00 0.02 0.11 0.09 0.02 0.00 0.00 0.00 0.00 0.00 0.00 0.00 0.00 0.00 0.00 0.00 0.00 0.00 0.00 0.00 0.00 0.00 0.00 0.00 0.00 0.00 0.00 0.00 0.00
0.05 0.14 0.25 0.38 0.75 1.03 1.72 2.43 3.10 2.96 2.38 1.93 1.78 1.48 0.53 0.30 0.01 0.00 0.00 0.00 0.00 0.00 0.00 0.00 0.00 0.00 0.00 0.00 0.04 0.01 0.01 0.00 0.01 0.00 0.00 0.00 0.00 0.00 0.00 0.00 0.00 0.00 0.00 0.00 0.00 0.00 0.00 0.00 0.00 0.00 0.00 0.00 0.00 0.00
0.02 0.07 0.13 0.29 0.58 1.12 1.96 2.89 3.13 2.36 2.01 1.67 0.99 0.57 0.21 0.03 0.00 0.00 0.00 0.00 0.00 0.00 0.00 0.00 0.00 0.00 0.00 0.00 0.00 0.01 0.02 0.01 0.00 0.00 0.00 0.00 0.00 0.00 0.00 0.00 0.00 0.00 0.00 0.00 0.00 0.00 0.00 0.00 0.00 0.00 0.00 0.00 0.00 0.00
0.02 0.03 0.11 0.22 0.39 0.80 1.57 1.89 2.04 1.60 1.89 1.52 0.75 0.33 0.06 0.00 0.01 0.00 0.00 0.00 0.00 0.00 0.00 0.00 0.00 0.00 0.00 0.00 0.00 0.00 0.00 0.00 0.00 0.00 0.00 0.00 0.00 0.00 0.00 0.00 0.00 0.00 0.00 0.00 0.00 0.00 0.00 0.00 0.00 0.00 0.00 0.00 0.00 0.00
0.02 0.02 0.12 0.14 0.23 0.50 1.16 1.71 1.50 1.68 1.93 1.44 0.44 0.04 0.01 0.00 0.00 0.00 0.00 0.00 0.00 0.00 0.00 0.00 0.00 0.00 0.00 0.00 0.00 0.00 0.00 0.00 0.00 0.00 0.00 0.00 0.00 0.00 0.00 0.00 0.00 0.00 0.00 0.00 0.00 0.00 0.00 0.00 0.00 0.00 0.00 0.00 0.00 0.00
0.02 0.01 0.07 0.07 0.15 0.47 0.83 1.29 1.74 1.74 1.47 0.72 0.12 0.03 0.01 0.00 0.00 0.00 0.00 0.00 0.00 0.00 0.00 0.00 0.00 0.00 0.00 0.00 0.00 0.00 0.00 0.00 0.00 0.00 0.00 0.00 0.00 0.00 0.00 0.00 0.00 0.00 0.00 0.00 0.00 0.00 0.00 0.00 0.00 0.00 0.00 0.00 0.00 0.00
0.01 0.02 0.04 0.05 0.18 0.43 0.68 0.95 1.21 1.07 0.68 0.26 0.06 0.04 0.03 0.02 0.01 0.01 0.00 0.00 0.00 0.00 0.00 0.00 0.00 0.00 0.00 0.00 0.00 0.00 0.00 0.00 0.00 0.00 0.00 0.00 0.00 0.00 0.00 0.00 0.00 0.00 0.00 0.00 0.00 0.00 0.00 0.00 0.00 0.00 0.00 0.00 0.00 0.00
0.06 0.08 0.03 0.05 0.19 0.35 0.49 0.71 0.75 0.62 0.42 0.29 0.16 0.12 0.09 0.06 0.06 0.05 0.03 0.02 0.01 0.01 0.02 0.01 0.00 0.00 0.00 0.00 0.00 0.00 0.00 0.00 0.00 0.00 0.00 0.00 0.00 0.00 0.00 0.00 0.00 0.00 0.00 0.00 0.00 0.00 0.00 0.00 0.00 0.00 0.00 0.00 0.00 0.00
0.02 0.02 0.01 0.04 0.20 0.32 0.44 0.37 0.56 0.51 0.41 0.37 0.45 0.30 0.27 0.24 0.20 0.23 0.34 0.25 0.28 0.25 0.07 0.00 0.00 0.00 0.00 0.00 0.00 0.00 0.00 0.00 0.00 0.00 0.00 0.00 0.00 0.00 0.00 0.00 0.00 0.00 0.00 0.00 0.00 0.00 0.00 0.00 0.00 0.00 0.00 0.00 0.00 0.00
0.01 0.04 0.05 0.08 0.23 0.23 0.25 0.31 0.41 0.40 0.30 0.40 0.55 0.52 0.50 0.49 0.51 0.53 0.57 0.69 0.62 0.27 0.08 0.02 0.02 0.01 0.00 0.00 0.00 0.00 0.00 0.00 0.00 0.00 0.00 0.00 0.00 0.00 0.00 0.00 0.00 0.00 0.00 0.00 0.00 0.00 0.00 0.00 0.00 0.00 0.00 0.00 0.00 0.00
0.01 0.02 0.07 0.11 0.15 0.12 0.20 0.24 0.26 0.34 0.34 0.42 0.48 0.48 0.57 0.56 0.67 0.78 0.89 0.71 0.39 0.20 0.12 0.12 0.09 0.04 0.01 0.00 0.00 0.00 0.00 0.00 0.00 0.00 0.00 0.00 0.00 0.00 0.00 0.00 0.00 0.00 0.00 0.00 0.00 0.00 0.00 0.00 0.00 0.00 0.00 0.00 0.00 0.00
0.00 0.00 0.00 0.03 0.09 0.12 0.14 0.20 0.16 0.21 0.26 0.30 0.38 0.39 0.38 0.53 0.63 0.62 0.47 0.24 0.22 0.23 0.19 0.19 0.14 0.07 0.02 0.00 0.00 0.00 0.00 0.00 0.00 0.00 0.00 0.00 0.00 0.00 0.00 0.00 0.00 0.00 0.00 0.00 0.00 0.00 0.00 0.00 0.00 0.00 0.00 0.00 0.00 0.00
0.01 0.00 0.00 0.00 0.00 0.02 0.04 0.12 0.14 0.12 0.19 0.26 0.32 0.36 0.37 0.44 0.54 0.41 0.23 0.19 0.30 0.36 0.29 0.20 0.13 0.09 0.06 0.03 0.02 0.02 0.01 0.00 0.00 0.00 0.01 0.01 0.01 0.01 0.01 0.00 0.00 0.00 0.00 0.00 0.00 0.00 0.00 0.00 0.00 0.00 0.00 0.00 0.00 0.00
0.02 0.01 0.00 0.00 0.00 0.00 0.00 0.06 0.12 0.16 0.19 0.24 0.27 0.29 0.33 0.35 0.32 0.30 0.18 0.21 0.33 0.42 0.43 0.33 0.22 0.14 0.10 0.08 0.08 0.09 0.05 0.03 0.04 0.04 0.10 0.08 0.04 0.01 0.01 0.01 0.00 0.00 0.00 0.00 0.00 0.00 0.00 0.00 0.00 0.00 0.00 0.00 0.00 0.00
0.00 0.00 0.00 0.00 0.00 0.00 0.00 0.00 0.01 0.04 0.09 0.14 0.16 0.18 0.20 0.22 0.24 0.14 0.12 0.22 0.32 0.39 0.43 0.43 0.33 0.20 0.16 0.14 0.13 0.12 0.12 0.13 0.11 0.10 0.12 0.14 0.12 0.06 0.02 0.01 0.00 0.00 0.00 0.00 0.00 0.00 0.00 0.00 0.00 0.00 0.00 0.00 0.00 0.00
0.00 0.00 0.00 0.00 0.00 0.00 0.00 0.00 0.00 0.00 0.00 0.03 0.10 0.09 0.10 0.10 0.07 0.08 0.13 0.22 0.33 0.38 0.43 0.45 0.41 0.28 0.21 0.18 0.17 0.16 0.18 0.19 0.19 0.14 0.11 0.11 0.09 0.04 0.01 0.00 0.00 0.00 0.00 0.00 0.00 0.00 0.00 0.00 0.00 0.00 0.00 0.00 0.00 0.00
0.00 0.00 0.00 0.00 0.00 0.00 0.00 0.00 0.00 0.00 0.00 0.00 0.01 0.03 0.03 0.03 0.06 0.09 0.14 0.21 0.30 0.36 0.39 0.40 0.42 0.38 0.32 0.29 0.26 0.25 0.22 0.17 0.11 0.09 0.06 0.06 0.04 0.04 0.01 0.01 0.01 0.01 0.00 0.00 0.00 0.00 0.00 0.00 0.00 0.00 0.00 0.00 0.00 0.00
0.01 0.00 0.00 0.01 0.00 0.00 0.00 0.01 0.01 0.01 0.00 0.00 0.00 0.00 0.01 0.03 0.06 0.09 0.13 0.19 0.26 0.32 0.37 0.41 0.41 0.39 0.36 0.31 0.31 0.31 0.29 0.27 0.22 0.12 0.09 0.07 0.06 0.07 0.07 0.06 0.03 0.01 0.00 0.00 0.00 0.00 0.00 0.00 0.00 0.00 0.00 0.00 0.00 0.00
0.01 0.01 0.00 0.00 0.00 0.01 0.01 0.02 0.01 0.00 0.00 0.00 0.00 0.00 0.01 0.02 0.04 0.07 0.11 0.16 0.21 0.27 0.32 0.35 0.37 0.40 0.37 0.36 0.31 0.27 0.24 0.23 0.20 0.18 0.14 0.11 0.09 0.08 0.05 0.02 0.00 0.00 0.00 0.00 0.00 0.00 0.00 0.00 0.00 0.00 0.00 0.00 0.00 0.00
0.03 0.02 0.00 0.01 0.01 0.02 0.03 0.02 0.02 0.01 0.01 0.01 0.01 0.01 0.01 0.02 0.03 0.04 0.07 0.10 0.15 0.19 0.24 0.27 0.26 0.27 0.27 0.25 0.23 0.21 0.17 0.15 0.12 0.11 0.09 0.06 0.04 0.02 0.00 0.00 0.00 0.00 0.00 0.00 0.00 0.00 0.00 0.00 0.00 0.00 0.00 0.00 0.00 0.00
0.06 0.06 0.05 0.03 0.02 0.02 0.02 0.01 0.01 0.01 0.01 0.01 0.01 0.01 0.02 0.02 0.03 0.03 0.03 0.07 0.10 0.14 0.16 0.18 0.21 0.21 0.20 0.19 0.17 0.15 0.12 0.11 0.09 0.07 0.05 0.03 0.02 0.00 0.00 0.00 0.00 0.00 0.00 0.00 0.00 0.00 0.00 0.00 0.00 0.00 0.00 0.00 0.00 0.00

GFSWCAN_prec_precacc_030.txt.gz
Total_Precipitation_Accumulation
0.30 0.25 0.28 0.30 0.29 0.27 0.24 0.25 0.29 0.27 0.22 0.19 0.18 0.24 0.27 0.27 0.48 0.39 0.29 0.22 0.21 0.13 0.03 0.00 0.00 0.01 0.17 0.40 0.53 0.44 0.51 0.27 0.19 0.33 0.25 0.10 0.02 0.01 0.00 0.00 0.00 0.00 0.01 0.02 0.03 0.03 0.00 0.00 0.00 0.00 0.00 0.00 0.00 0.00
0.31 0.31 0.32 0.33 0.31 0.26 0.27 0.25 0.28 0.24 0.21 0.20 0.17 0.19 0.23 0.19 0.36 0.47 0.26 0.27 0.24 0.17 0.05 0.01 0.01 0.01 0.05 0.25 0.50 0.43 0.36 0.14 0.10 0.14 0.09 0.05 0.02 0.00 0.00 0.00 0.00 0.00 0.00 0.00 0.00 0.00 0.00 0.00 0.00 0.00 0.00 0.00 0.00 0.00
0.31 0.34 0.31 0.30 0.28 0.26 0.23 0.24 0.29 0.24 0.20 0.19 0.18 0.16 0.17 0.17 0.25 0.43 0.27 0.19 0.24 0.15 0.03 0.00 0.00 0.01 0.00 0.08 0.39 0.57 0.33 0.25 0.10 0.07 0.07 0.01 0.01 0.00 0.00 0.00 0.00 0.00 0.00 0.00 0.00 0.00 0.00 0.00 0.00 0.00 0.00 0.00 0.00 0.00
0.26 0.29 0.25 0.24 0.25 0.20 0.19 0.23 0.22 0.20 0.15 0.15 0.17 0.13 0.12 0.16 0.24 0.31 0.22 0.13 0.21 0.15 0.03 0.00 0.00 0.01 0.02 0.02 0.26 0.49 0.51 0.38 0.32 0.16 0.16 0.06 0.00 0.00 0.00 0.00 0.00 0.00 0.00 0.00 0.00 0.00 0.00 0.00 0.00 0.00 0.00 0.00 0.00 0.00
0.21 0.22 0.21 0.18 0.17 0.17 0.18 0.16 0.15 0.15 0.10 0.11 0.13 0.12 0.12 0.18 0.29 0.16 0.10 0.14 0.14 0.22 0.21 0.04 0.00 0.00 0.00 0.00 0.15 0.33 0.47 0.50 0.48 0.40 0.16 0.06 0.01 0.00 0.00 0.00 0.00 0.00 0.00 0.00 0.00 0.00 0.00 0.00 0.00 0.00 0.00 0.00 0.00 0.00
0.20 0.19 0.17 0.15 0.15 0.19 0.16 0.11 0.10 0.11 0.08 0.09 0.14 0.14 0.12 0.20 0.39 0.34 0.26 0.15 0.13 0.12 0.21 0.07 0.00 0.00 0.00 0.00 0.05 0.16 0.26 0.27 0.26 0.29 0.12 0.02 0.00 0.00 0.00 0.00 0.00 0.00 0.00 0.00 0.00 0.00 0.00 0.00 0.00 0.00 0.00 0.00 0.00 0.00
0.24 0.23 0.18 0.18 0.20 0.22 0.19 0.10 0.10 0.17 0.16 0.16 0.20 0.19 0.12 0.24 0.33 0.43 0.14 0.05 0.14 0.15 0.17 0.04 0.01 0.00 0.00 0.00 0.02 0.10 0.17 0.19 0.18 0.15 0.10 0.02 0.00 0.00 0.00 0.00 0.00 0.00 0.00 0.00 0.00 0.00 0.00 0.00 0.00 0.00 0.00 0.00 0.00 0.00
0.59 0.68 0.68 0.44 0.38 0.35 0.34 0.17 0.18 0.27 0.32 0.22 0.25 0.25 0.24 0.36 0.35 0.31 0.07 0.05 0.16 0.26 0.15 0.07 0.01 0.00 0.00 0.00 0.00 0.05 0.14 0.15 0.14 0.07 0.02 0.02 0.00 0.00 0.00 0.00 0.00 0.00 0.00 0.00 0.00 0.00 0.00 0.00 0.00 0.00 0.00 0.00 0.00 0.00
0.64 0.69 0.89 1.08 0.94 0.76 0.62 0.43 0.33 0.35 0.42 0.40 0.41 0.45 0.48 0.36 0.18 0.10 0.22 0.22 0.10 0.40 0.47 0.09 0.00 0.00 0.00 0.01 0.00 0.01 0.06 0.09 0.07 0.01 0.00 0.00 0.00 0.00 0.00 0.00 0.00 0.00 0.00 0.00 0.00 0.00 0.00 0.00 0.00 0.00 0.00 0.00 0.00 0.00
0.55 0.62 0.65 0.81 1.07 1.25 1.21 0.92 0.71 0.52 0.54 0.71 0.73 0.72 0.52 0.27 0.18 0.22 0.51 0.47 0.43 0.23 0.24 0.20 0.04 0.00 0.00 0.00 0.01 0.01 0.01 0.02 0.00 0.00 0.00 0.00 0.00 0.00 0.00 0.00 0.00 0.00 0.00 0.00 0.00 0.00 0.00 0.00 0.00 0.00 0.00 0.00 0.00 0.00
0.31 0.51 0.66 0.73 0.93 1.14 1.50 1.57 1.46 1.22 1.12 1.16 1.15 0.68 0.54 0.45 0.37 0.42 0.48 0.34 0.42 0.19 0.05 0.04 0.06 0.05 0.01 0.00 0.00 0.00 0.00 0.00 0.00 0.00 0.00 0.00 0.00 0.00 0.00 0.00 0.00 0.00 0.00 0.00 0.00 0.00 0.00 0.00 0.00 0.00 0.00 0.00 0.00 0.00
0.17 0.29 0.54 0.74 0.87 1.35 1.58 2.06 2.56 2.68 2.06 1.18 0.75 0.92 1.00 0.57 0.52 0.47 0.31 0.13 0.04 0.02 0.00 0.00 0.00 0.03 0.09 0.06 0.02 0.00 0.00 0.00 0.00 0.00 0.00 0.00 0.00 0.00 0.00 0.00 0.00 0.00 0.00 0.00 0.00 0.00 0.00 0.00 0.00 0.00 0.00 0.00 0.00 0.00
0.10 0.22 0.38 0.60 0.81 1.12 1.68 1.99 2.70 2.75 1.67 1.15 1.26 1.76 1.05 0.63 0.32 0.09 0.07 0.03 0.00 0.00 0.00 0.00 0.00 0.00 0.02 0.11 0.09 0.02 0.00 0.00 0.00 0.00 0.00 0.00 0.00 0.00 0.00 0.00 0.00 0.00 0.00 0.00 0.00 0.00 0.00 0.00 0.00 0.00 0.00 0.00 0.00 0.00
0.05 0.14 0.25 0.38 0.75 1.03 1.72 2.43 3.10 2.96 2.38 1.93 1.79 1.53 0.58 0.35 0.02 0.01 0.00 0.00 0.00 0.00 0.00 0.00 0.00 0.00 0.00 0.00 0.04 0.01 0.01 0.00 0.01 0.00 0.00 0.00 0.00 0.00 0.00 0.00 0.00 0.00 0.00 0.00 0.00 0.00 0.00 0.00 0.00 0.00 0.00 0.00 0.00 0.00
0.02 0.07 0.13 0.29 0.58 1.12 1.96 2.89 3.13 2.36 2.01 1.67 1.00 0.60 0.25 0.06 0.02 0.01 0.00 0.00 0.00 0.00 0.00 0.00 0.00 0.00 0.00 0.00 0.00 0.01 0.02 0.01 0.00 0.00 0.00 0.00 0.00 0.00 0.00 0.00 0.00 0.00 0.00 0.00 0.00 0.00 0.00 0.00 0.00 0.00 0.00 0.00 0.00 0.00
0.02 0.03 0.11 0.22 0.39 0.80 1.57 1.89 2.05 1.60 1.89 1.53 0.76 0.35 0.09 0.01 0.01 0.01 0.00 0.00 0.00 0.00 0.00 0.00 0.00 0.00 0.00 0.00 0.00 0.00 0.00 0.00 0.00 0.00 0.00 0.00 0.00 0.00 0.00 0.00 0.00 0.00 0.00 0.00 0.00 0.00 0.00 0.00 0.00 0.00 0.00 0.00 0.00 0.00
0.02 0.02 0.12 0.14 0.23 0.50 1.16 1.71 1.50 1.68 1.93 1.44 0.45 0.05 0.02 0.00 0.00 0.02 0.01 0.00 0.00 0.00 0.00 0.00 0.00 0.00 0.00 0.00 0.00 0.00 0.00 0.00 0.00 0.00 0.00 0.00 0.00 0.00 0.00 0.00 0.00 0.00 0.00 0.00 0.00 0.00 0.00 0.00 0.00 0.00 0.00 0.00 0.00 0.00
0.02 0.01 0.07 0.07 0.15 0.47 0.83 1.29 1.74 1.74 1.47 0.72 0.12 0.03 0.01 0.00 0.00 0.01 0.01 0.00 0.00 0.00 0.00 0.00 0.00 0.00 0.00 0.00 0.00 0.00 0.00 0.00 0.00 0.00 0.00 0.00 0.00 0.00 0.00 0.00 0.00 0.00 0.00 0.00 0.00 0.00 0.00 0.00 0.00 0.00 0.00 0.00 0.00 0.00
0.01 0.02 0.04 0.05 0.18 0.43 0.68 0.95 1.21 1.07 0.68 0.26 0.06 0.04 0.03 0.02 0.01 0.01 0.03 0.04 0.01 0.00 0.03 0.02 0.00 0.00 0.00 0.00 0.00 0.00 0.00 0.00 0.00 0.00 0.00 0.00 0.00 0.00 0.00 0.00 0.00 0.00 0.00 0.00 0.00 0.00 0.00 0.00 0.00 0.00 0.00 0.00 0.00 0.00
0.06 0.08 0.03 0.05 0.19 0.35 0.49 0.71 0.75 0.62 0.42 0.29 0.16 0.12 0.09 0.06 0.06 0.05 0.04 0.06 0.07 0.07 0.12 0.08 0.00 0.00 0.00 0.00 0.00 0.00 0.00 0.00 0.00 0.00 0.00 0.00 0.00 0.00 0.00 0.00 0.00 0.00 0.00 0.00 0.00 0.00 0.00 0.00 0.00 0.00 0.00 0.00 0.00 0.00
0.02 0.02 0.01 0.04 0.20 0.32 0.44 0.37 0.56 0.51 0.41 0.37 0.45 0.30 0.27 0.24 0.20 0.23 0.36 0.33 0.43 0.45 0.17 0.05 0.01 0.00 0.00 0.00 0.00 0.00 0.00 0.00 0.00 0.00 0.00 0.00 0.00 0.00 0.00 0.00 0.00 0.00 0.00 0.00 0.00 0.00 0.00 0.00 0.00 0.00 0.00 0.00 0.00 0.00
0.01 0.04 0.05 0.08 0.23 0.23 0.25 0.31 0.41 0.40 0.31 0.40 0.55 0.52 0.50 0.49 0.52 0.55 0.60 0.80 0.78 0.35 0.11 0.05 0.06 0.03 0.00 0.00 0.00 0.00 0.00 0.00 0.00 0.00 0.00 0.00 0.00 0.00 0.00 0.00 0.00 0.00 0.00 0.00 0.00 0.00 0.00 0.00 0.00 0.00 0.00 0.00 0.00 0.00
0.01 0.02 0.07 0.11 0.15 0.12 0.20 0.24 0.26 0.34 0.34 0.42 0.48 0.48 0.58 0.56 0.67 0.80 0.94 0.77 0.45 0.25 0.16 0.14 0.11 0.08 0.04 0.01 0.00 0.00 0.00 0.00 0.00 0.00 0.00 0.00 0.00 0.00 0.00 0.00 0.00 0.00 0.00 0.00 0.00 0.00 0.00 0.00 0.00 0.00 0.00 0.00 0.00 0.00
0.00 0.00 0.00 0.03 0.09 0.12 0.14 0.20 0.16 0.21 0.26 0.30 0.38 0.39 0.38 0.53 0.63 0.63 0.50 0.26 0.25 0.27 0.23 0.22 0.17 0.10 0.05 0.03 0.03 0.01 0.00 0.00 0.00 0.00 0.00 0.00 0.00 0.00 0.00 0.00 0.00 0.00 0.00 0.00 0.00 0.00 0.00 0.00 0.00 0.00 0.00 0.00 0.00 0.00
0.01 0.00 0.00 0.00 0.00 0.02 0.04 0.12 0.14 0.12 0.19 0.26 0.32 0.36 0.37 0.45 0.55 0.41 0.23 0.20 0.33 0.40 0.34 0.24 0.16 0.13 0.10 0.07 0.05 0.05 0.02 0.00 0.00 0.00 0.01 0.01 0.01 0.01 0.01 0.00 0.00 0.00 0.00 0.00 0.00 0.00 0.00 0.00 0.00 0.00 0.00 0.00 0.00 0.00
0.02 0.01 0.00 0.00 0.00 0.00 0.00 0.06 0.12 0.16 0.20 0.24 0.27 0.29 0.33 0.35 0.32 0.31 0.18 0.21 0.34 0.45 0.47 0.37 0.26 0.18 0.15 0.15 0.15 0.16 0.12 0.07 0.05 0.04 0.10 0.08 0.04 0.02 0.01 0.01 0.00 0.00 0.00 0.00 0.00 0.00 0.00 0.00 0.00 0.00 0.00 0.00 0.00 0.00
0.00 0.00 0.00 0.00 0.00 0.00 0.00 0.00 0.01 0.04 0.09 0.14 0.16 0.18 0.20 0.22 0.25 0.14 0.13 0.22 0.33 0.40 0.45 0.47 0.38 0.25 0.21 0.21 0.21 0.21 0.21 0.19 0.14 0.11 0.13 0.16 0.16 0.12 0.06 0.02 0.01 0.00 0.00 0.00 0.00 0.00 0.00 0.00 0.00 0.00 0.00 0.00 0.00 0.00
0.00 0.00 0.00 0.00 0.00 0.00 0.00 0.00 0.00 0.00 0.00 0.03 0.10 0.09 0.10 0.11 0.08 0.08 0.13 0.22 0.33 0.38 0.44 0.48 0.45 0.33 0.27 0.25 0.26 0.26 0.28 0.28 0.26 0.19 0.17 0.21 0.23 0.21 0.15 0.08 0.04 0.03 0.01 0.00 0.00 0.00 0.00 0.00 0.00 0.00 0.00 0.00 0.00 0.00
0.00 0.00 0.00 0.00 0.00 0.00 0.00 0.00 0.00 0.00 0.00 0.00 0.01 0.03 0.03 0.03 0.06 0.09 0.14 0.21 0.30 0.36 0.39 0.42 0.45 0.42 0.38 0.35 0.33 0.33 0.31 0.26 0.18 0.14 0.09 0.11 0.12 0.16 0.15 0.10 0.05 0.03 0.02 0.02 0.02 0.01 0.00 0.00 0.00 0.00 0.00 0.00 0.00 0.00
0.01 0.00 0.00 0.01 0.00 0.00 0.00 0.01 0.01 0.01 0.00 0.00 0.00 0.00 0.01 0.03 0.06 0.09 0.14 0.19 0.26 0.32 0.37 0.42 0.44 0.43 0.41 0.37 0.37 0.37 0.35 0.33 0.29 0.17 0.12 0.10 0.10 0.12 0.13 0.11 0.09 0.08 0.06 0.03 0.01 0.00 0.00 0.00 0.00 0.00 0.00 0.00 0.00 0.00
0.01 0.01 0.00 0.00 0.00 0.01 0.01 0.02 0.02 0.00 0.00 0.00 0.00 0.00 0.01 0.02 0.04 0.07 0.11 0.16 0.22 0.28 0.33 0.36 0.39 0.43 0.41 0.42 0.38 0.33 0.31 0.30 0.29 0.28 0.23 0.18 0.16 0.16 0.15 0.14 0.12 0.08 0.04 0.01 0.00 0.00 0.00 0.00 0.00 0.00 0.00 0.00 0.00 0.00
0.03 0.02 0.00 0.01 0.01 0.02 0.03 0.02 0.02 0.01 0.01 0.01 0.01 0.01 0.01 0.02 0.03 0.04 0.07 0.10 0.15 0.20 0.26 0.28 0.29 0.30 0.32 0.32 0.31 0.29 0.26 0.23 0.22 0.22 0.20 0.17 0.15 0.13 0.11 0.08 0.05 0.02 0.01 0.00 0.00 0.00 0.00 0.00 0.00 0.00 0.00 0.00 0.00 0.00
0.06 0.06 0.05 0.03 0.02 0.02 0.02 0.01 0.01 0.01 0.01 0.01 0.01 0.02 0.02 0.02 0.03 0.03 0.03 0.07 0.10 0.15 0.18 0.22 0.25 0.26 0.26 0.26 0.26 0.25 0.25 0.25 0.23 0.22 0.21 0.17 0.12 0.07 0.03 0.01 0.00 0.00 0.00 0.00 0.00 0.00 0.00 0.00 0.00 0.00 0.00 0.00 0.00 0.00

GFSWCAN_prec_precacc_033.txt.gz
Total_Precipitation_Accumulation
0.30 0.25 0.29 0.31 0.29 0.28 0.24 0.25 0.30 0.28 0.23 0.19 0.18 0.24 0.27 0.27 0.50 0.39 0.33 0.28 0.25 0.13 0.03 0.00 0.00 0.02 0.17 0.40 0.56 0.50 0.57 0.33 0.28 0.37 0.26 0.11 0.02 0.01 0.00 0.00 0.00 0.00 0.01 0.02 0.04 0.03 0.00 0.00 0.00 0.00 0.00 0.00 0.00 0.00
0.31 0.31 0.32 0.34 0.31 0.26 0.27 0.26 0.29 0.26 0.21 0.20 0.17 0.19 0.23 0.20 0.39 0.48 0.31 0.28 0.25 0.17 0.05 0.01 0.01 0.01 0.05 0.26 0.55 0.53 0.45 0.25 0.16 0.15 0.09 0.05 0.02 0.00 0.00 0.00 0.00 0.00 0.00 0.00 0.00 0.00 0.00 0.00 0.00 0.00 0.00 0.00 0.00 0.00
0.31 0.35 0.31 0.31 0.29 0.26 0.24 0.24 0.30 0.25 0.21 0.20 0.18 0.16 0.17 0.18 0.26 0.44 0.29 0.22 0.26 0.16 0.03 0.00 0.00 0.01 0.00 0.08 0.44 0.67 0.40 0.32 0.16 0.08 0.08 0.01 0.01 0.00 0.00 0.00 0.00 0.00 0.00 0.00 0.00 0.00 0.00 0.00 0.00 0.00 0.00 0.00 0.00 0.00
0.27 0.30 0.25 0.24 0.25 0.21 0.19 0.23 0.22 0.20 0.15 0.15 0.17 0.13 0.12 0.17 0.24 0.31 0.23 0.15 0.23 0.16 0.03 0.00 0.00 0.01 0.02 0.05 0.31 0.61 0.62 0.42 0.37 0.23 0.18 0.06 0.00 0.00 0.00 0.00 0.00 0.00 0.00 0.00 0.00 0.00 0.00 0.00 0.00 0.00 0.00 0.00 0.00 0.00
0.22 0.22 0.21 0.18 0.17 0.17 0.18 0.16 0.15 0.15 0.10 0.12 0.13 0.12 0.12 0.18 0.29 0.16 0.10 0.15 0.16 0.26 0.24 0.04 0.00 0.00 0.00 0.01 0.18 0.45 0.62 0.58 0.51 0.44 0.19 0.08 0.01 0.00 0.00 0.00 0.00 0.00 0.00 0.00 0.00 0.00 0.00 0.00 0.00 0.00 0.00 0.00 0.00 0.00
0.20 0.19 0.17 0.15 0.15 0.19 0.16 0.11 0.10 0.11 0.08 0.10 0.14 0.14 0.12 0.20 0.39 0.34 0.28 0.17 0.15 0.14 0.23 0.07 0.01 0.00 0.00 0.01 0.06 0.24 0.35 0.35 0.32 0.33 0.16 0.04 0.01 0.00 0.00 0.00 0.00 0.00 0.00 0.00 0.00 0.00 0.00 0.00 0.00 0.00 0.00 0.00 0.00 0.00
0.25 0.24 0.18 0.18 0.20 0.22 0.19 0.10 0.10 0.17 0.16 0.16 0.21 0.19 0.12 0.24 0.33 0.44 0.15 0.07 0.15 0.16 0.19 0.05 0.01 0.00 0.00 0.00 0.02 0.13 0.24 0.26 0.24 0.21 0.13 0.05 0.00 0.01 0.01 0.00 0.00 0.00 0.00 0.00 0.00 0.00 0.00 0.00 0.00 0.00 0.00 0.00 0.00 0.00
0.59 0.69 0.68 0.44 0.38 0.35 0.34 0.17 0.18 0.27 0.33 0.22 0.25 0.26 0.25 0.36 0.35 0.31 0.08 0.07 0.16 0.28 0.15 0.07 0.01 0.00 0.00 0.00 0.00 0.05 0.16 0.18 0.19 0.13 0.04 0.02 0.01 0.00 0.00 0.00 0.00 0.00 0.00 0.00 0.00 0.00 0.00 0.00 0.00 0.00 0.00 0.00 0.00 0.00
0.64 0.69 0.90 1.08 0.94 0.76 0.62 0.43 0.33 0.35 0.42 0.40 0.41 0.46 0.48 0.36 0.19 0.14 0.31 0.25 0.10 0.41 0.48 0.09 0.00 0.00 0.00 0.01 0.00 0.01 0.06 0.12 0.12 0.05 0.02 0.00 0.00 0.00 0.00 0.00 0.00 0.00 0.00 0.00 0.00 0.00 0.00 0.00 0.00 0.00 0.00 0.00 0.00 0.00
0.56 0.62 0.66 0.81 1.07 1.25 1.21 0.92 0.71 0.52 0.54 0.71 0.73 0.73 0.52 0.27 0.21 0.31 0.67 0.50 0.48 0.24 0.26 0.20 0.04 0.00 0.00 0.00 0.01 0.01 0.01 0.03 0.01 0.00 0.00 0.00 0.00 0.00 0.00 0.00 0.00 0.00 0.00 0.00 0.00 0.00 0.00 0.00 0.00 0.00 0.00 0.00 0.00 0.00
0.31 0.51 0.66 0.73 0.93 1.14 1.50 1.57 1.46 1.22 1.12 1.16 1.16 0.68 0.54 0.47 0.50 0.49 0.59 0.38 0.47 0.20 0.05 0.04 0.06 0.05 0.01 0.00 0.00 0.00 0.00 0.00 0.00 0.00 0.00 0.00 0.00 0.00 0.00 0.00 0.00 0.00 0.00 0.00 0.00 0.00 0.00 0.00 0.00 0.00 0.00 0.00 0.00 0.00
0.17 0.29 0.54 0.74 0.87 1.35 1.58 2.06 2.56 2.68 2.06 1.19 0.76 0.93 1.01 0.62 0.60 0.49 0.35 0.16 0.05 0.02 0.00 0.00 0.00 0.03 0.09 0.06 0.02 0.00 0.00 0.00 0.00 0.00 0.00 0.00 0.00 0.00 0.00 0.00 0.00 0.00 0.00 0.00 0.00 0.00 0.00 0.00 0.00 0.00 0.00 0.00 0.00 0.00
0.10 0.22 0.38 0.60 0.81 1.12 1.68 1.99 2.70 2.75 1.67 1.15 1.26 1.80 1.07 0.71 0.43 0.11 0.09 0.03 0.00 0.00 0.00 0.00 0.00 0.00 0.02 0.11 0.09 0.02 0.00 0.00 0.00 0.00 0.00 0.00 0.00 0.00 0.00 0.00 0.00 0.00 0.00 0.00 0.00 0.00 0.00 0.00 0.00 0.00 0.00 0.00 0.00 0.00
0.05 0.14 0.25 0.38 0.75 1.03 1.72 2.43 3.10 2.96 2.38 1.93 1.79 1.54 0.60 0.39 0.05 0.05 0.02 0.00 0.00 0.00 0.00 0.00 0.00 0.00 0.00 0.00 0.04 0.01 0.01 0.00 0.01 0.00 0.00 0.00 0.00 0.00 0.00 0.00 0.00 0.00 0.00 0.00 0.00 0.00 0.00 0.00 0.00 0.00 0.00 0.00 0.00 0.00
0.02 0.07 0.13 0.29 0.58 1.12 1.96 2.89 3.13 2.36 2.01 1.67 1.00 0.61 0.26 0.08 0.03 0.03 0.02 0.00 0.00 0.00 0.00 0.00 0.00 0.00 0.00 0.00 0.00 0.01 0.02 0.01 0.00 0.00 0.00 0.00 0.00 0.00 0.00 0.00 0.00 0.00 0.00 0.00 0.00 0.00 0.00 0.00 0.00 0.00 0.00 0.00 0.00 0.00
0.02 0.03 0.11 0.22 0.39 0.80 1.57 1.89 2.05 1.60 1.89 1.53 0.76 0.35 0.09 0.01 0.01 0.01 0.00 0.00 0.00 0.00 0.00 0.00 0.00 0.00 0.00 0.00 0.00 0.00 0.00 0.00 0.00 0.00 0.00 0.00 0.00 0.00 0.00 0.00 0.00 0.00 0.00 0.00 0.00 0.00 0.00 0.00 0.00 0.00 0.00 0.00 0.00 0.00
0.02 0.02 0.12 0.14 0.23 0.50 1.16 1.71 1.50 1.68 1.93 1.45 0.45 0.05 0.02 0.00 0.00 0.02 0.01 0.00 0.00 0.00 0.00 0.01 0.00 0.00 0.00 0.00 0.00 0.00 0.00 0.00 0.00 0.00 0.00 0.00 0.00 0.00 0.00 0.00 0.00 0.00 0.00 0.00 0.00 0.00 0.00 0.00 0.00 0.00 0.00 0.00 0.00 0.00
0.02 0.01 0.07 0.07 0.15 0.47 0.83 1.29 1.74 1.74 1.47 0.72 0.12 0.03 0.01 0.00 0.00 0.01 0.01 0.02 0.02 0.03 0.02 0.03 0.00 0.00 0.00 0.00 0.00 0.00 0.00 0.00 0.00 0.00 0.00 0.00 0.00 0.00 0.00 0.00 0.00 0.00 0.00 0.00 0.00 0.00 0.00 0.00 0.00 0.00 0.00 0.00 0.00 0.00
0.01 0.02 0.04 0.05 0.18 0.43 0.68 0.95 1.21 1.07 0.68 0.26 0.06 0.04 0.03 0.02 0.01 0.01 0.03 0.05 0.06 0.07 0.13 0.13 0.04 0.00 0.00 0.00 0.00 0.00 0.00 0.00 0.00 0.00 0.00 0.00 0.00 0.00 0.00 0.00 0.00 0.00 0.00 0.00 0.00 0.00 0.00 0.00 0.00 0.00 0.00 0.00 0.00 0.00
0.06 0.08 0.03 0.05 0.19 0.35 0.49 0.71 0.75 0.62 0.42 0.29 0.16 0.12 0.09 0.06 0.06 0.05 0.04 0.06 0.10 0.18 0.27 0.21 0.06 0.01 0.00 0.00 0.00 0.00 0.00 0.00 0.00 0.00 0.00 0.00 0.00 0.00 0.00 0.00 0.00 0.00 0.00 0.00 0.00 0.00 0.00 0.00 0.00 0.00 0.00 0.00 0.00 0.00
0.02 0.02 0.01 0.04 0.20 0.32 0.44 0.37 0.56 0.51 0.41 0.37 0.45 0.30 0.27 0.24 0.20 0.23 0.37 0.33 0.46 0.53 0.25 0.10 0.03 0.01 0.02 0.01 0.00 0.00 0.00 0.00 0.00 0.00 0.00 0.00 0.00 0.00 0.00 0.00 0.00 0.00 0.00 0.00 0.00 0.00 0.00 0.00 0.00 0.00 0.00 0.00 0.00 0.00
0.01 0.04 0.05 0.08 0.23 0.23 0.25 0.31 0.41 0.40 0.31 0.40 0.55 0.52 0.50 0.49 0.52 0.55 0.60 0.81 0.81 0.37 0.13 0.06 0.08 0.07 0.04 0.03 0.02 0.01 0.00 0.00 0.00 0.00 0.00 0.00 0.00 0.00 0.00 0.00 0.00 0.00 0.00 0.00 0.00 0.00 0.00 0.00 0.00 0.00 0.00 0.00 0.00 0.00
0.01 0.02 0.07 0.11 0.15 0.12 0.20 0.24 0.26 0.34 0.34 0.42 0.48 0.48 0.58 0.56 0.67 0.80 0.94 0.77 0.45 0.26 0.18 0.16 0.14 0.14 0.12 0.07 0.04 0.01 0.01 0.00 0.00 0.00 0.00 0.00 0.00 0.00 0.00 0.00 0.00 0.00 0.00 0.00 0.00 0.00 0.00 0.00 0.00 0.00 0.00 0.00 0.00 0.00
0.00 0.00 0.00 0.03 0.09 0.12 0.14 0.20 0.16 0.21 0.26 0.30 0.38 0.39 0.38 0.53 0.63 0.63 0.50 0.26 0.25 0.27 0.25 0.25 0.20 0.13 0.11 0.13 0.14 0.11 0.07 0.03 0.01 0.01 0.01 0.00 0.00 0.00 0.00 0.00 0.00 0.00 0.00 0.00 0.00 0.00 0.00 0.00 0.00 0.00 0.00 0.00 0.00 0.00
0.01 0.00 0.00 0.00 0.00 0.02 0.04 0.12 0.14 0.12 0.19 0.26 0.32 0.36 0.37 0.45 0.55 0.41 0.23 0.20 0.33 0.40 0.34 0.26 0.19 0.16 0.14 0.11 0.11 0.14 0.14 0.11 0.07 0.04 0.03 0.01 0.01 0.01 0.01 0.00 0.00 0.00 0.00 0.00 0.00 0.00 0.00 0.00 0.00 0.00 0.00 0.00 0.00 0.00
0.02 0.01 0.00 0.00 0.00 0.00 0.00 0.06 0.12 0.16 0.20 0.24 0.27 0.29 0.33 0.36 0.32 0.31 0.18 0.21 0.34 0.45 0.47 0.37 0.27 0.20 0.17 0.17 0.18 0.21 0.19 0.15 0.12 0.09 0.13 0.09 0.04 0.02 0.01 0.01 0.00 0.00 0.00 0.00 0.00 0.00 0.00 0.00 0.00 0.00 0.00 0.00 0.00 0.00
0.00 0.00 0.00 0.00 0.00 0.00 0.00 0.00 0.01 0.04 0.09 0.14 0.16 0.18 0.20 0.22 0.25 0.14 0.13 0.22 0.33 0.40 0.45 0.47 0.38 0.26 0.22 0.22 0.23 0.24 0.27 0.28 0.23 0.17 0.17 0.18 0.16 0.12 0.06 0.03 0.02 0.01 0.00 0.00 0.00 0.00 0.00 0.00 0.00 0.00 0.00 0.00 0.00 0.00
0.00 0.00 0.00 0.00 0.00 0.00 0.00 0.00 0.00 0.00 0.00 0.03 0.10 0.09 0.10 0.11 0.08 0.08 0.13 0.22 0.33 0.38 0.44 0.48 0.46 0.34 0.29 0.27 0.28 0.30 0.34 0.36 0.36 0.28 0.24 0.25 0.26 0.24 0.21 0.15 0.13 0.11 0.05 0.01 0.01 0.00 0.00 0.00 0.00 0.00 0.00 0.00 0.00 0.00
0.00 0.00 0.00 0.00 0.00 0.00 0.00 0.00 0.00 0.00 0.00 0.00 0.01 0.03 0.03 0.03 0.06 0.09 0.14 0.21 0.30 0.36 0.39 0.42 0.45 0.43 0.39 0.37 0.36 0.37 0.37 0.35 0.27 0.22 0.14 0.14 0.14 0.20 0.23 0.21 0.17 0.14 0.09 0.05 0.03 0.01 0.01 0.01 0.00 0.00 0.00 0.00 0.00 0.00
0.01 0.00 0.00 0.01 0.00 0.00 0.00 0.01 0.01 0.01 0.00 0.00 0.00 0.00 0.01 0.03 0.06 0.09 0.14 0.19 0.26 0.32 0.37 0.42 0.44 0.44 0.42 0.39 0.41 0.42 0.42 0.41 0.37 0.26 0.19 0.15 0.14 0.16 0.19 0.20 0.19 0.17 0.11 0.05 0.03 0.05 0.04 0.02 0.01 0.00 0.00 0.00 0.00 0.00
0.01 0.01 0.00 0.00 0.00 0.01 0.01 0.03 0.02 0.00 0.00 0.00 0.00 0.00 0.01 0.02 0.04 0.07 0.11 0.16 0.22 0.28 0.33 0.36 0.39 0.43 0.42 0.44 0.42 0.40 0.39 0.39 0.38 0.37 0.31 0.28 0.27 0.27 0.26 0.25 0.21 0.15 0.09 0.06 0.04 0.03 0.02 0.01 0.00 0.00 0.00 0.00 0.00 0.00
0.04 0.02 0.00 0.01 0.01 0.02 0.03 0.02 0.02 0.01 0.01 0.01 0.01 0.01 0.01 0.02 0.03 0.04 0.07 0.10 0.15 0.20 0.26 0.29 0.29 0.31 0.33 0.34 0.35 0.36 0.35 0.33 0.32 0.32 0.30 0.25 0.24 0.24 0.22 0.19 0.16 0.12 0.10 0.09 0.06 0.03 0.01 0.00 0.00 0.00 0.00 0.00 0.00 0.00
0.06 0.06 0.05 0.03 0.02 0.02 0.02 0.01 0.01 0.01 0.01 0.01 0.01 0.02 0.02 0.02 0.03 0.03 0.03 0.07 0.10 0.15 0.19 0.23 0.26 0.28 0.29 0.29 0.31 0.32 0.34 0.36 0.37 0.37 0.37 0.31 0.24 0.19 0.15 0.12 0.09 0.07 0.04 0.02 0.01 0.00 0.00 0.00 0.00 0.00 0.00 0.00 0.00 0.00

GFSWCAN_prec_precacc_036.txt.gz
Total_Precipitation_Accumulation
0.30 0.25 0.29 0.31 0.30 0.28 0.25 0.26 0.31 0.30 0.23 0.19 0.19 0.24 0.27 0.27 0.51 0.40 0.34 0.34 0.29 0.14 0.03 0.00 0.00 0.02 0.17 0.40 0.57 0.51 0.60 0.34 0.32 0.42 0.28 0.11 0.03 0.01 0.00 0.00 0.00 0.00 0.02 0.02 0.04 0.03 0.00 0.00 0.00 0.00 0.00 0.00 0.00 0.02
0.31 0.31 0.32 0.34 0.32 0.26 0.27 0.26 0.30 0.27 0.22 0.21 0.17 0.19 0.23 0.20 0.39 0.48 0.32 0.30 0.28 0.18 0.05 0.01 0.01 0.01 0.05 0.26 0.56 0.55 0.49 0.28 0.21 0.19 0.10 0.05 0.02 0.00 0.00 0.00 0.00 0.00 0.00 0.00 0.00 0.00 0.00 0.00 0.00 0.00 0.00 0.00 0.00 0.00
0.31 0.35 0.31 0.31 0.29 0.26 0.24 0.24 0.31 0.25 0.21 0.20 0.18 0.16 0.17 0.18 0.26 0.44 0.30 0.23 0.26 0.17 0.03 0.00 0.00 0.01 0.00 0.08 0.44 0.70 0.45 0.37 0.22 0.10 0.09 0.01 0.02 0.00 0.00 0.00 0.00 0.00 0.00 0.00 0.00 0.00 0.00 0.00 0.00 0.00 0.00 0.00 0.00 0.00
0.27 0.30 0.26 0.24 0.25 0.21 0.19 0.23 0.22 0.20 0.15 0.15 0.17 0.13 0.12 0.17 0.24 0.31 0.23 0.15 0.24 0.18 0.04 0.00 0.00 0.01 0.02 0.05 0.34 0.66 0.66 0.45 0.40 0.26 0.20 0.09 0.01 0.00 0.00 0.00 0.00 0.00 0.00 0.00 0.00 0.00 0.00 0.00 0.00 0.00 0.00 0.00 0.00 0.00
0.22 0.23 0.21 0.19 0.17 0.17 0.18 0.16 0.15 0.15 0.10 0.12 0.13 0.12 0.12 0.18 0.29 0.16 0.10 0.15 0.17 0.30 0.26 0.05 0.00 0.00 0.00 0.01 0.23 0.54 0.72 0.67 0.54 0.50 0.23 0.09 0.01 0.00 0.00 0.00 0.00 0.00 0.00 0.00 0.00 0.00 0.00 0.00 0.00 0.00 0.00 0.00 0.00 0.00
0.21 0.20 0.17 0.16 0.15 0.19 0.16 0.11 0.10 0.12 0.08 0.10 0.14 0.15 0.13 0.20 0.39 0.35 0.30 0.19 0.21 0.19 0.26 0.08 0.01 0.00 0.00 0.01 0.09 0.32 0.43 0.41 0.34 0.36 0.18 0.05 0.01 0.01 0.00 0.00 0.00 0.00 0.00 0.00 0.00 0.00 0.00 0.00 0.00 0.00 0.00 0.00 0.00 0.00
0.25 0.24 0.19 0.19 0.20 0.22 0.19 0.10 0.10 0.17 0.16 0.16 0.21 0.19 0.13 0.25 0.33 0.44 0.18 0.10 0.18 0.18 0.20 0.05 0.01 0.00 0.00 0.00 0.02 0.16 0.33 0.35 0.28 0.23 0.15 0.06 0.01 0.01 0.01 0.00 0.00 0.00 0.00 0.00 0.00 0.00 0.00 0.00 0.00 0.00 0.00 0.00 0.00 0.00
0.59 0.69 0.68 0.44 0.38 0.35 0.34 0.17 0.18 0.27 0.33 0.22 0.25 0.26 0.25 0.37 0.35 0.31 0.08 0.09 0.16 0.29 0.16 0.08 0.01 0.00 0.00 0.00 0.00 0.05 0.21 0.27 0.26 0.16 0.06 0.02 0.01 0.01 0.00 0.00 0.00 0.00 0.00 0.00 0.00 0.00 0.00 0.00 0.00 0.00 0.00 0.00 0.00 0.00
0.65 0.69 0.90 1.09 0.94 0.76 0.62 0.43 0.33 0.35 0.42 0.40 0.41 0.46 0.48 0.36 0.19 0.16 0.32 0.27 0.11 0.46 0.49 0.09 0.00 0.00 0.00 0.01 0.00 0.01 0.08 0.20 0.17 0.09 0.04 0.03 0.01 0.00 0.00 0.00 0.00 0.00 0.00 0.00 0.00 0.00 0.00 0.00 0.00 0.00 0.00 0.00 0.00 0.00
0.56 0.62 0.66 0.81 1.07 1.25 1.21 0.92 0.71 0.52 0.54 0.71 0.73 0.73 0.52 0.27 0.28 0.43 0.76 0.53 0.50 0.27 0.26 0.20 0.04 0.00 0.00 0.00 0.01 0.01 0.01 0.05 0.04 0.03 0.02 0.00 0.00 0.00 0.00 0.00 0.00 0.00 0.00 0.00 0.00 0.00 0.00 0.00 0.00 0.00 0.00 0.00 0.00 0.00
0.31 0.52 0.66 0.73 0.93 1.14 1.50 1.57 1.46 1.22 1.12 1.16 1.16 0.68 0.55 0.53 0.59 0.55 0.64 0.39 0.49 0.21 0.05 0.04 0.06 0.05 0.01 0.00 0.00 0.00 0.01 0.00 0.00 0.00 0.00 0.00 0.00 0.00 0.00 0.00 0.00 0.00 0.00 0.00 0.00 0.00 0.00 0.00 0.00 0.00 0.00 0.00 0.00 0.00
0.18 0.29 0.54 0.74 0.87 1.35 1.58 2.06 2.56 2.68 2.06 1.19 0.76 0.93 1.03 0.69 0.66 0.50 0.37 0.17 0.05 0.02 0.00 0.00 0.00 0.03 0.09 0.06 0.02 0.00 0.00 0.00 0.00 0.00 0.00 0.00 0.00 0.00 0.00 0.00 0.00 0.00 0.00 0.00 0.00 0.00 0.00 0.00 0.00 0.00 0.00 0.00 0.00 0.00
0.10 0.22 0.38 0.60 0.81 1.12 1.68 1.99 2.70 2.76 1.67 1.15 1.26 1.80 1.07 0.72 0.45 0.11 0.09 0.03 0.00 0.00 0.00 0.00 0.00 0.00 0.02 0.11 0.09 0.02 0.00 0.00 0.00 0.00 0.00 0.00 0.00 0.00 0.00 0.00 0.00 0.00 0.00 0.00 0.00 0.00 0.00 0.00 0.00 0.00 0.00 0.00 0.00 0.00
0.05 0.14 0.25 0.38 0.75 1.03 1.72 2.43 3.10 2.96 2.38 1.93 1.80 1.54 0.60 0.39 0.07 0.07 0.04 0.00 0.00 0.00 0.00 0.01 0.00 0.00 0.00 0.00 0.04 0.01 0.01 0.00 0.01 0.00 0.00 0.00 0.00 0.00 0.00 0.00 0.00 0.00 0.00 0.00 0.00 0.00 0.00 0.00 0.00 0.00 0.00 0.00 0.00 0.00
0.02 0.07 0.13 0.29 0.58 1.12 1.96 2.89 3.14 2.36 2.01 1.67 1.00 0.61 0.26 0.08 0.03 0.03 0.02 0.00 0.00 0.00 0.00 0.00 0.00 0.00 0.00 0.00 0.00 0.01 0.02 0.01 0.00 0.00 0.00 0.00 0.00 0.00 0.00 0.00 0.00 0.00 0.00 0.00 0.00 0.00 0.00 0.00 0.00 0.00 0.00 0.00 0.00 0.00
0.02 0.03 0.11 0.22 0.39 0.80 1.57 1.89 2.05 1.60 1.89 1.53 0.76 0.35 0.09 0.01 0.01 0.01 0.00 0.00 0.00 0.00 0.00 0.00 0.00 0.00 0.00 0.00 0.00 0.00 0.00 0.00 0.00 0.00 0.00 0.00 0.00 0.00 0.00 0.00 0.00 0.00 0.00 0.00 0.00 0.00 0.00 0.00 0.00 0.00 0.00 0.00 0.00 0.00
0.02 0.02 0.12 0.14 0.23 0.50 1.16 1.71 1.50 1.68 1.94 1.45 0.45 0.05 0.02 0.00 0.00 0.02 0.01 0.00 0.00 0.00 0.00 0.04 0.05 0.01 0.00 0.00 0.00 0.00 0.00 0.00 0.00 0.00 0.00 0.00 0.00 0.00 0.00 0.00 0.00 0.00 0.00 0.00 0.00 0.00 0.00 0.00 0.00 0.00 0.00 0.00 0.00 0.00
0.02 0.01 0.07 0.07 0.15 0.47 0.83 1.29 1.74 1.74 1.47 0.73 0.12 0.03 0.01 0.00 0.00 0.01 0.01 0.02 0.02 0.04 0.04 0.09 0.07 0.04 0.00 0.00 0.00 0.00 0.00 0.00 0.00 0.00 0.00 0.00 0.00 0.00 0.00 0.00 0.00 0.00 0.00 0.00 0.00 0.00 0.00 0.00 0.00 0.00 0.00 0.00 0.00 0.00
0.01 0.02 0.04 0.05 0.18 0.43 0.68 0.95 1.21 1.07 0.68 0.26 0.06 0.04 0.03 0.02 0.01 0.01 0.03 0.05 0.06 0.07 0.14 0.18 0.12 0.04 0.00 0.00 0.00 0.00 0.00 0.00 0.00 0.00 0.00 0.00 0.00 0.00 0.00 0.00 0.00 0.00 0.00 0.00 0.00 0.00 0.00 0.00 0.00 0.00 0.00 0.00 0.00 0.00
0.07 0.08 0.03 0.05 0.19 0.35 0.49 0.71 0.75 0.62 0.42 0.29 0.16 0.12 0.09 0.06 0.06 0.05 0.04 0.07 0.11 0.19 0.29 0.23 0.07 0.03 0.01 0.01 0.01 0.00 0.00 0.00 0.00 0.00 0.00 0.00 0.00 0.00 0.00 0.00 0.00 0.00 0.00 0.00 0.00 0.00 0.00 0.00 0.00 0.00 0.00 0.00 0.00 0.00
0.02 0.02 0.01 0.04 0.20 0.32 0.44 0.37 0.56 0.51 0.41 0.37 0.45 0.30 0.27 0.24 0.20 0.23 0.37 0.34 0.47 0.54 0.26 0.11 0.04 0.02 0.03 0.04 0.04 0.03 0.01 0.00 0.00 0.00 0.00 0.00 0.00 0.00 0.00 0.00 0.00 0.00 0.00 0.00 0.00 0.00 0.00 0.00 0.00 0.00 0.00 0.00 0.00 0.00
0.01 0.04 0.05 0.08 0.23 0.23 0.25 0.31 0.41 0.40 0.31 0.40 0.55 0.52 0.51 0.50 0.52 0.55 0.61 0.81 0.81 0.38 0.13 0.06 0.09 0.07 0.04 0.04 0.06 0.06 0.05 0.03 0.00 0.00 0.00 0.00 0.00 0.00 0.00 0.00 0.00 0.00 0.00 0.00 0.00 0.00 0.00 0.00 0.00 0.00 0.00 0.00 0.00 0.00
0.01 0.02 0.07 0.11 0.15 0.12 0.20 0.24 0.26 0.34 0.35 0.43 0.48 0.48 0.58 0.57 0.68 0.80 0.94 0.77 0.45 0.26 0.18 0.16 0.14 0.14 0.12 0.08 0.06 0.04 0.05 0.06 0.04 0.02 0.01 0.00 0.00 0.00 0.00 0.00 0.00 0.00 0.00 0.00 0.00 0.00 0.00 0.00 0.00 0.00 0.00 0.00 0.00 0.00
0.00 0.00 0.00 0.03 0.09 0.12 0.14 0.20 0.16 0.21 0.26 0.30 0.38 0.39 0.38 0.53 0.63 0.63 0.50 0.26 0.25 0.27 0.25 0.25 0.20 0.13 0.12 0.14 0.16 0.13 0.09 0.07 0.05 0.06 0.07 0.05 0.01 0.00 0.00 0.00 0.00 0.00 0.00 0.00 0.00 0.00 0.00 0.00 0.00 0.00 0.00 0.00 0.00 0.00
0.01 0.00 0.00 0.00 0.00 0.02 0.04 0.12 0.14 0.12 0.19 0.26 0.32 0.36 0.37 0.45 0.55 0.41 0.24 0.20 0.33 0.40 0.34 0.26 0.19 0.16 0.14 0.12 0.12 0.15 0.16 0.16 0.12 0.09 0.10 0.11 0.07 0.04 0.02 0.00 0.00 0.00 0.00 0.00 0.00 0.00 0.00 0.00 0.00 0.00 0.00 0.00 0.00 0.00
0.02 0.01 0.00 0.00 0.00 0.00 0.00 0.06 0.12 0.16 0.20 0.24 0.27 0.29 0.33 0.36 0.32 0.31 0.18 0.21 0.34 0.45 0.47 0.37 0.27 0.20 0.17 0.17 0.18 0.22 0.21 0.20 0.17 0.15 0.21 0.24 0.16 0.08 0.04 0.01 0.00 0.00 0.00 0.00 0.00 0.00 0.00 0.00 0.00 0.00 0.00 0.00 0.00 0.00
0.00 0.00 0.00 0.00 0.00 0.00 0.00 0.00 0.01 0.04 0.09 0.14 0.16 0.18 0.20 0.22 0.25 0.14 0.13 0.22 0.33 0.40 0.45 0.47 0.38 0.26 0.22 0.22 0.23 0.25 0.28 0.32 0.28 0.21 0.24 0.31 0.30 0.23 0.12 0.04 0.02 0.01 0.01 0.01 0.02 0.02 0.01 0.00 0.00 0.00 0.00 0.00 0.00 0.00
0.00 0.00 0.00 0.00 0.00 0.00 0.00 0.00 0.00 0.00 0.00 0.03 0.10 0.09 0.10 0.11 0.08 0.08 0.13 0.22 0.33 0.38 0.44 0.48 0.46 0.34 0.29 0.27 0.28 0.30 0.34 0.38 0.39 0.33 0.31 0.34 0.35 0.34 0.28 0.19 0.15 0.17 0.14 0.09 0.07 0.03 0.00 0.00 0.00 0.00 0.00 0.00 0.00 0.00
0.00 0.00 0.00 0.00 0.00 0.00 0.00 0.00 0.00 0.00 0.00 0.00 0.01 0.03 0.03 0.03 0.06 0.09 0.14 0.21 0.30 0.36 0.39 0.42 0.45 0.43 0.39 0.37 0.36 0.37 0.38 0.37 0.31 0.26 0.19 0.20 0.22 0.29 0.31 0.30 0.27 0.26 0.21 0.15 0.11 0.04 0.02 0.01 0.01 0.01 0.00 0.00 0.00 0.00
0.01 0.00 0.00 0.01 0.00 0.00 0.00 0.01 0.01 0.01 0.00 0.00 0.00 0.00 0.01 0.03 0.06 0.09 0.14 0.19 0.26 0.32 0.37 0.42 0.44 0.44 0.42 0.40 0.41 0.42 0.43 0.43 0.41 0.29 0.23 0.20 0.20 0.26 0.30 0.31 0.30 0.28 0.22 0.15 0.12 0.12 0.06 0.03 0.03 0.02 0.01 0.00 0.00 0.00
0.02 0.01 0.00 0.00 0.00 0.01 0.02 0.03 0.02 0.01 0.00 0.00 0.00 0.00 0.01 0.02 0.04 0.07 0.11 0.16 0.22 0.28 0.33 0.36 0.39 0.43 0.42 0.44 0.43 0.41 0.40 0.41 0.42 0.42 0.37 0.35 0.36 0.36 0.37 0.36 0.33 0.27 0.22 0.16 0.09 0.06 0.05 0.05 0.05 0.04 0.01 0.00 0.00 0.00
0.04 0.02 0.00 0.01 0.01 0.02 0.03 0.02 0.02 0.01 0.02 0.01 0.01 0.01 0.01 0.02 0.03 0.04 0.07 0.10 0.15 0.20 0.26 0.29 0.29 0.31 0.33 0.34 0.35 0.38 0.38 0.37 0.37 0.38 0.37 0.33 0.31 0.33 0.33 0.31 0.29 0.23 0.20 0.17 0.14 0.11 0.09 0.07 0.05 0.03 0.00 0.00 0.00 0.00
0.06 0.07 0.05 0.03 0.02 0.02 0.02 0.02 0.02 0.01 0.01 0.01 0.01 0.02 0.02 0.02 0.03 0.03 0.03 0.07 0.10 0.15 0.19 0.23 0.26 0.28 0.30 0.31 0.32 0.34 0.38 0.42 0.45 0.46 0.47 0.43 0.35 0.30 0.26 0.24 0.22 0.19 0.16 0.13 0.11 0.09 0.07 0.04 0.01 0.00 0.00 0.00 0.00 0.00

GFSWCAN_prec_precacc_039.txt.gz
Total_Precipitation_Accumulation
0.30 0.25 0.29 0.31 0.30 0.28 0.25 0.26 0.31 0.30 0.23 0.20 0.19 0.24 0.27 0.27 0.51 0.40 0.35 0.36 0.31 0.15 0.04 0.00 0.00 0.02 0.17 0.40 0.57 0.51 0.60 0.35 0.34 0.46 0.30 0.12 0.03 0.01 0.00 0.00 0.00 0.01 0.02 0.03 0.05 0.06 0.01 0.00 0.00 0.00 0.00 0.00 0.00 0.04
0.31 0.31 0.33 0.34 0.32 0.26 0.27 0.26 0.30 0.27 0.22 0.21 0.17 0.19 0.23 0.20 0.39 0.48 0.32 0.31 0.31 0.19 0.06 0.01 0.01 0.01 0.05 0.26 0.56 0.55 0.49 0.28 0.21 0.20 0.11 0.06 0.03 0.01 0.00 0.00 0.00 0.00 0.00 0.00 0.00 0.00 0.00 0.00 0.00 0.00 0.00 0.00 0.00 0.00
0.31 0.35 0.31 0.31 0.29 0.26 0.24 0.24 0.31 0.25 0.21 0.20 0.18 0.16 0.17 0.18 0.26 0.44 0.30 0.23 0.26 0.17 0.04 0.00 0.00 0.01 0.00 0.08 0.44 0.70 0.45 0.38 0.22 0.11 0.14 0.03 0.04 0.01 0.00 0.00 0.00 0.00 0.00 0.00 0.00 0.00 0.00 0.00 0.00 0.00 0.00 0.00 0.00 0.00
0.27 0.30 0.26 0.24 0.26 0.21 0.19 0.23 0.22 0.20 0.15 0.15 0.17 0.14 0.12 0.17 0.24 0.31 0.23 0.15 0.24 0.19 0.04 0.01 0.00 0.01 0.02 0.05 0.34 0.67 0.68 0.47 0.43 0.27 0.24 0.13 0.02 0.00 0.01 0.00 0.00 0.00 0.00 0.00 0.00 0.00 0.00 0.00 0.00 0.00 0.00 0.00 0.00 0.00
0.22 0.23 0.21 0.19 0.17 0.17 0.18 0.16 0.15 0.15 0.11 0.12 0.14 0.13 0.12 0.18 0.29 0.16 0.10 0.15 0.17 0.32 0.28 0.05 0.00 0.00 0.00 0.01 0.24 0.60 0.80 0.74 0.59 0.52 0.24 0.11 0.02 0.00 0.00 0.00 0.00 0.00 0.00 0.00 0.00 0.00 0.00 0.00 0.00 0.00 0.00 0.00 0.00 0.00
0.21 0.20 0.17 0.16 0.15 0.19 0.16 0.11 0.10 0.12 0.09 0.10 0.14 0.15 0.13 0.20 0.39 0.35 0.31 0.21 0.23 0.21 0.28 0.08 0.02 0.00 0.00 0.01 0.10 0.40 0.50 0.50 0.41 0.40 0.22 0.07 0.01 0.01 0.01 0.00 0.00 0.00 0.00 0.00 0.00 0.00 0.00 0.00 0.00 0.00 0.00 0.00 0.00 0.00
0.25 0.24 0.19 0.19 0.20 0.22 0.19 0.10 0.10 0.17 0.16 0.16 0.21 0.20 0.13 0.25 0.34 0.44 0.19 0.13 0.20 0.19 0.22 0.06 0.01 0.00 0.00 0.00 0.02 0.19 0.40 0.45 0.33 0.26 0.16 0.09 0.02 0.01 0.01 0.00 0.00 0.00 0.00 0.00 0.00 0.00 0.00 0.00 0.00 0.00 0.00 0.00 0.00 0.00
0.59 0.69 0.69 0.44 0.38 0.35 0.34 0.17 0.18 0.27 0.33 0.22 0.25 0.26 0.26 0.38 0.35 0.32 0.09 0.10 0.17 0.31 0.16 0.08 0.01 0.00 0.00 0.00 0.00 0.06 0.27 0.39 0.34 0.20 0.07 0.03 0.01 0.02 0.01 0.00 0.00 0.00 0.00 0.00 0.00 0.00 0.00 0.00 0.00 0.00 0.00 0.00 0.00 0.01
0.65 0.70 0.90 1.09 0.94 0.76 0.62 0.43 0.33 0.35 0.42 0.40 0.41 0.46 0.49 0.36 0.19 0.17 0.35 0.30 0.11 0.49 0.50 0.09 0.00 0.00 0.00 0.02 0.00 0.01 0.11 0.30 0.26 0.13 0.05 0.04 0.01 0.00 0.00 0.00 0.00 0.00 0.00 0.00 0.00 0.00 0.00 0.00 0.00 0.00 0.00 0.00 0.00 0.00
0.56 0.62 0.66 0.82 1.07 1.25 1.21 0.92 0.71 0.52 0.54 0.71 0.73 0.73 0.53 0.28 0.29 0.44 0.78 0.56 0.50 0.28 0.27 0.21 0.04 0.00 0.00 0.00 0.01 0.01 0.01 0.07 0.09 0.08 0.05 0.01 0.00 0.00 0.00 0.00 0.00 0.00 0.00 0.00 0.00 0.00 0.00 0.00 0.00 0.00 0.00 0.00 0.00 0.00
0.31 0.52 0.66 0.73 0.93 1.14 1.50 1.57 1.46 1.22 1.12 1.16 1.16 0.68 0.55 0.56 0.64 0.60 0.67 0.39 0.50 0.21 0.05 0.04 0.06 0.05 0.01 0.00 0.00 0.00 0.01 0.00 0.00 0.00 0.01 0.00 0.00 0.00 0.00 0.00 0.00 0.00 0.00 0.00 0.00 0.00 0.00 0.00 0.00 0.00 0.00 0.00 0.00 0.00
0.18 0.29 0.54 0.74 0.87 1.35 1.58 2.06 2.56 2.68 2.06 1.19 0.76 0.93 1.05 0.70 0.68 0.52 0.38 0.17 0.05 0.02 0.00 0.00 0.00 0.03 0.09 0.06 0.02 0.00 0.00 0.00 0.00 0.00 0.00 0.00 0.00 0.00 0.00 0.00 0.00 0.00 0.00 0.00 0.00 0.00 0.00 0.00 0.00 0.00 0.00 0.00 0.00 0.00
0.10 0.22 0.38 0.60 0.82 1.12 1.68 1.99 2.70 2.76 1.67 1.15 1.26 1.80 1.07 0.72 0.46 0.12 0.10 0.04 0.00 0.00 0.00 0.01 0.00 0.00 0.02 0.11 0.09 0.02 0.00 0.00 0.00 0.00 0.00 0.00 0.00 0.00 0.00 0.00 0.00 0.00 0.00 0.00 0.00 0.00 0.00 0.00 0.00 0.00 0.00 0.00 0.00 0.00
0.05 0.14 0.25 0.38 0.75 1.03 1.72 2.43 3.10 2.96 2.38 1.93 1.80 1.54 0.60 0.39 0.07 0.08 0.04 0.00 0.00 0.00 0.00 0.01 0.01 0.00 0.00 0.00 0.04 0.01 0.01 0.00 0.01 0.00 0.00 0.00 0.00 0.00 0.00 0.00 0.00 0.00 0.00 0.00 0.00 0.00 0.00 0.00 0.00 0.00 0.00 0.00 0.00 0.00
0.02 0.07 0.13 0.29 0.58 1.12 1.96 2.89 3.14 2.36 2.01 1.67 1.00 0.61 0.26 0.08 0.03 0.03 0.02 0.00 0.00 0.00 0.00 0.00 0.00 0.00 0.00 0.00 0.00 0.01 0.02 0.01 0.00 0.00 0.00 0.00 0.00 0.00 0.00 0.00 0.00 0.00 0.00 0.00 0.00 0.00 0.00 0.00 0.00 0.00 0.00 0.00 0.00 0.00
0.02 0.03 0.11 0.22 0.39 0.80 1.57 1.89 2.05 1.60 1.89 1.53 0.76 0.35 0.09 0.01 0.01 0.01 0.00 0.00 0.00 0.00 0.00 0.00 0.00 0.00 0.00 0.00 0.00 0.00 0.00 0.00 0.00 0.00 0.00 0.00 0.00 0.00 0.00 0.00 0.00 0.00 0.00 0.00 0.00 0.00 0.00 0.00 0.00 0.00 0.00 0.00 0.00 0.00
0.02 0.02 0.12 0.14 0.23 0.50 1.16 1.71 1.50 1.68 1.94 1.45 0.45 0.05 0.02 0.00 0.00 0.02 0.01 0.00 0.00 0.00 0.00 0.04 0.08 0.02 0.00 0.00 0.00 0.00 0.00 0.00 0.00 0.00 0.00 0.00 0.00 0.00 0.00 0.00 0.00 0.00 0.00 0.00 0.00 0.00 0.00 0.00 0.00 0.00 0.00 0.00 0.00 0.00
0.02 0.01 0.07 0.07 0.15 0.47 0.83 1.29 1.74 1.74 1.47 0.73 0.12 0.03 0.01 0.00 0.00 0.01 0.01 0.02 0.02 0.04 0.05 0.11 0.08 0.08 0.01 0.00 0.00 0.00 0.00 0.00 0.00 0.00 0.00 0.00 0.00 0.00 0.00 0.00 0.00 0.00 0.00 0.00 0.00 0.00 0.00 0.00 0.00 0.00 0.00 0.00 0.00 0.00
0.01 0.02 0.04 0.05 0.18 0.43 0.68 0.95 1.21 1.07 0.68 0.26 0.06 0.04 0.03 0.02 0.01 0.01 0.03 0.05 0.06 0.07 0.15 0.20 0.14 0.05 0.00 0.00 0.00 0.00 0.00 0.00 0.00 0.00 0.00 0.00 0.00 0.00 0.00 0.00 0.00 0.00 0.00 0.00 0.00 0.00 0.00 0.00 0.00 0.00 0.00 0.00 0.00 0.00
0.07 0.08 0.03 0.05 0.19 0.35 0.49 0.71 0.75 0.62 0.42 0.29 0.16 0.12 0.09 0.06 0.06 0.05 0.04 0.07 0.11 0.20 0.29 0.24 0.08 0.03 0.01 0.01 0.02 0.01 0.00 0.00 0.00 0.00 0.00 0.00 0.00 0.00 0.00 0.00 0.00 0.00 0.00 0.00 0.00 0.00 0.00 0.00 0.00 0.00 0.00 0.00 0.00 0.00
0.02 0.02 0.01 0.04 0.20 0.32 0.44 0.37 0.56 0.51 0.41 0.37 0.45 0.30 0.27 0.24 0.20 0.23 0.37 0.34 0.47 0.55 0.27 0.11 0.04 0.02 0.03 0.04 0.04 0.03 0.01 0.01 0.00 0.00 0.00 0.00 0.00 0.00 0.00 0.00 0.00 0.00 0.00 0.00 0.00 0.00 0.00 0.00 0.00 0.00 0.00 0.00 0.00 0.00
0.01 0.04 0.05 0.08 0.23 0.23 0.25 0.31 0.41 0.40 0.31 0.40 0.55 0.52 0.51 0.50 0.52 0.55 0.61 0.81 0.81 0.38 0.13 0.06 0.09 0.07 0.04 0.04 0.06 0.06 0.05 0.03 0.01 0.00 0.00 0.00 0.00 0.00 0.00 0.00 0.00 0.00 0.00 0.00 0.00 0.00 0.00 0.00 0.00 0.00 0.00 0.00 0.00 0.00
0.01 0.02 0.07 0.11 0.15 0.12 0.20 0.24 0.26 0.34 0.35 0.43 0.48 0.48 0.58 0.57 0.68 0.81 0.94 0.78 0.45 0.26 0.18 0.16 0.14 0.14 0.12 0.08 0.06 0.04 0.05 0.06 0.04 0.02 0.01 0.00 0.00 0.00 0.00 0.00 0.00 0.00 0.00 0.00 0.00 0.00 0.00 0.00 0.00 0.00 0.00 0.00 0.00 0.00
0.00 0.00 0.01 0.03 0.09 0.12 0.14 0.20 0.16 0.21 0.26 0.30 0.38 0.39 0.38 0.53 0.63 0.63 0.50 0.26 0.25 0.27 0.25 0.25 0.20 0.13 0.12 0.14 0.16 0.13 0.09 0.07 0.05 0.06 0.08 0.07 0.04 0.02 0.01 0.00 0.00 0.00 0.00 0.00 0.00 0.00 0.00 0.00 0.00 0.00 0.00 0.00 0.00 0.00
0.03 0.01 0.00 0.00 0.00 0.02 0.04 0.12 0.14 0.12 0.19 0.26 0.32 0.36 0.37 0.45 0.55 0.41 0.24 0.20 0.33 0.40 0.34 0.26 0.19 0.16 0.14 0.12 0.12 0.15 0.16 0.16 0.13 0.09 0.10 0.13 0.11 0.10 0.10 0.06 0.02 0.00 0.00 0.00 0.00 0.00 0.00 0.00 0.00 0.00 0.00 0.00 0.00 0.00
0.04 0.01 0.00 0.00 0.00 0.00 0.00 0.06 0.12 0.16 0.20 0.24 0.27 0.29 0.33 0.36 0.32 0.31 0.18 0.21 0.34 0.45 0.47 0.37 0.27 0.20 0.17 0.17 0.18 0.22 0.21 0.20 0.18 0.15 0.21 0.27 0.20 0.14 0.11 0.10 0.09 0.05 0.01 0.00 0.00 0.00 0.01 0.00 0.00 0.00 0.00 0.00 0.00 0.00
0.01 0.01 0.00 0.00 0.00 0.00 0.00 0.00 0.01 0.04 0.09 0.14 0.16 0.18 0.20 0.22 0.25 0.14 0.13 0.22 0.33 0.40 0.45 0.47 0.38 0.26 0.22 0.22 0.23 0.25 0.28 0.32 0.28 0.21 0.24 0.33 0.34 0.29 0.20 0.13 0.08 0.05 0.04 0.02 0.02 0.03 0.03 0.03 0.02 0.01 0.00 0.00 0.00 0.00
0.00 0.00 0.00 0.00 0.00 0.00 0.00 0.00 0.00 0.00 0.00 0.03 0.10 0.09 0.10 0.11 0.08 0.08 0.13 0.22 0.33 0.38 0.44 0.48 0.46 0.34 0.29 0.27 0.28 0.30 0.34 0.38 0.39 0.33 0.31 0.35 0.39 0.40 0.38 0.31 0.28 0.27 0.22 0.15 0.13 0.14 0.12 0.09 0.06 0.03 0.00 0.00 0.00 0.00
0.00 0.00 0.00 0.00 0.00 0.00 0.00 0.00 0.00 0.00 0.00 0.00 0.01 0.03 0.03 0.03 0.06 0.09 0.14 0.21 0.30 0.36 0.39 0.42 0.45 0.43 0.39 0.37 0.36 0.37 0.38 0.37 0.31 0.26 0.19 0.20 0.25 0.34 0.42 0.43 0.43 0.42 0.35 0.26 0.23 0.16 0.12 0.09 0.06 0.02 0.01 0.00 0.00 0.00
0.01 0.00 0.00 0.01 0.00 0.00 0.00 0.01 0.01 0.01 0.00 0.00 0.00 0.00 0.01 0.03 0.06 0.09 0.14 0.19 0.26 0.32 0.37 0.42 0.44 0.44 0.42 0.40 0.41 0.42 0.43 0.43 0.41 0.30 0.23 0.21 0.23 0.31 0.40 0.43 0.43 0.43 0.40 0.31 0.26 0.26 0.20 0.12 0.07 0.04 0.02 0.01 0.00 0.00
0.02 0.01 0.00 0.00 0.00 0.01 0.02 0.03 0.02 0.01 0.00 0.00 0.00 0.00 0.01 0.02 0.04 0.07 0.11 0.16 0.22 0.28 0.33 0.36 0.39 0.43 0.42 0.44 0.43 0.41 0.40 0.41 0.42 0.42 0.38 0.36 0.39 0.40 0.43 0.45 0.43 0.40 0.36 0.31 0.24 0.16 0.11 0.08 0.06 0.04 0.04 0.04 0.04 0.02
0.04 0.02 0.00 0.01 0.01 0.02 0.03 0.02 0.02 0.01 0.02 0.01 0.01 0.01 0.01 0.02 0.03 0.04 0.07 0.10 0.15 0.20 0.26 0.29 0.29 0.31 0.33 0.34 0.36 0.38 0.39 0.38 0.37 0.38 0.38 0.34 0.34 0.37 0.39 0.39 0.39 0.34 0.32 0.30 0.25 0.21 0.18 0.15 0.12 0.09 0.08 0.08 0.05 0.01
0.07 0.07 0.05 0.03 0.02 0.02 0.02 0.02 0.02 0.01 0.01 0.01 0.01 0.02 0.02 0.02 0.03 0.03 0.03 0.07 0.10 0.15 0.19 0.23 0.26 0.28 0.30 0.31 0.33 0.35 0.38 0.42 0.45 0.47 0.50 0.46 0.40 0.35 0.32 0.31 0.31 0.29 0.27 0.26 0.25 0.22 0.20 0.15 0.11 0.09 0.06 0.03 0.01 0.00

GFSWCAN_prec_precacc_042.txt.gz
Total_Precipitation_Accumulation
0.30 0.26 0.29 0.31 0.31 0.29 0.25 0.26 0.31 0.30 0.23 0.20 0.19 0.24 0.27 0.27 0.51 0.40 0.35 0.37 0.31 0.17 0.07 0.01 0.01 0.03 0.18 0.41 0.57 0.51 0.60 0.35 0.35 0.46 0.30 0.12 0.03 0.01 0.00 0.00 0.00 0.01 0.02 0.03 0.06 0.07 0.01 0.00 0.00 0.00 0.00 0.00 0.00 0.05
0.32 0.31 0.33 0.34 0.32 0.27 0.28 0.26 0.30 0.27 0.22 0.21 0.17 0.19 0.23 0.20 0.39 0.48 0.32 0.31 0.31 0.20 0.08 0.02 0.01 0.01 0.05 0.26 0.56 0.55 0.49 0.28 0.21 0.20 0.11 0.07 0.04 0.01 0.00 0.00 0.00 0.00 0.00 0.01 0.00 0.00 0.00 0.00 0.00 0.00 0.00 0.00 0.00 0.00
0.31 0.35 0.31 0.31 0.30 0.27 0.24 0.25 0.31 0.26 0.21 0.20 0.18 0.16 0.17 0.18 0.26 0.44 0.30 0.23 0.27 0.18 0.05 0.01 0.01 0.01 0.00 0.08 0.44 0.70 0.45 0.38 0.23 0.11 0.15 0.04 0.05 0.02 0.01 0.00 0.00 0.00 0.00 0.00 0.00 0.00 0.00 0.00 0.00 0.00 0.00 0.00 0.00 0.00
0.27 0.30 0.26 0.25 0.26 0.21 0.20 0.24 0.23 0.21 0.15 0.16 0.17 0.14 0.12 0.17 0.24 0.31 0.23 0.15 0.24 0.19 0.05 0.03 0.00 0.01 0.02 0.05 0.34 0.67 0.69 0.50 0.46 0.28 0.25 0.17 0.04 0.02 0.01 0.00 0.00 0.00 0.00 0.00 0.00 0.00 0.00 0.00 0.00 0.00 0.00 0.00 0.00 0.00
0.22 0.23 0.22 0.19 0.17 0.18 0.18 0.16 0.16 0.16 0.11 0.12 0.14 0.13 0.13 0.18 0.29 0.16 0.10 0.15 0.17 0.33 0.29 0.07 0.00 0.00 0.00 0.01 0.25 0.62 0.85 0.81 0.64 0.56 0.26 0.12 0.03 0.01 0.00 0.00 0.00 0.00 0.00 0.00 0.00 0.00 0.00 0.00 0.00 0.00 0.00 0.00 0.00 0.00
0.21 0.20 0.17 0.16 0.15 0.20 0.16 0.11 0.11 0.12 0.09 0.10 0.15 0.16 0.14 0.21 0.39 0.35 0.31 0.22 0.23 0.22 0.30 0.09 0.03 0.00 0.00 0.01 0.10 0.41 0.57 0.57 0.47 0.44 0.24 0.08 0.03 0.03 0.02 0.00 0.00 0.00 0.00 0.00 0.00 0.00 0.00 0.00 0.00 0.00 0.00 0.00 0.00 0.00
0.25 0.24 0.19 0.19 0.21 0.23 0.19 0.10 0.10 0.17 0.17 0.17 0.22 0.20 0.14 0.26 0.34 0.45 0.20 0.15 0.21 0.19 0.22 0.06 0.02 0.00 0.00 0.00 0.02 0.20 0.47 0.51 0.38 0.30 0.18 0.11 0.05 0.03 0.02 0.00 0.00 0.00 0.00 0.00 0.00 0.00 0.00 0.00 0.00 0.00 0.00 0.00 0.00 0.00
0.59 0.69 0.69 0.45 0.38 0.35 0.34 0.17 0.18 0.27 0.33 0.22 0.25 0.27 0.28 0.38 0.36 0.32 0.10 0.11 0.17 0.32 0.17 0.09 0.01 0.00 0.01 0.01 0.01 0.06 0.31 0.46 0.41 0.25 0.09 0.05 0.03 0.03 0.01 0.00 0.00 0.00 0.00 0.00 0.00 0.00 0.00 0.00 0.00 0.00 0.00 0.00 0.00 0.01
0.65 0.70 0.90 1.09 0.95 0.76 0.62 0.43 0.33 0.35 0.42 0.40 0.41 0.46 0.49 0.37 0.20 0.17 0.36 0.31 0.12 0.52 0.53 0.09 0.00 0.00 0.00 0.03 0.01 0.02 0.15 0.38 0.34 0.20 0.08 0.06 0.02 0.00 0.00 0.00 0.00 0.00 0.00 0.00 0.00 0.00 0.00 0.00 0.00 0.00 0.00 0.00 0.00 0.00
0.56 0.63 0.66 0.82 1.07 1.25 1.21 0.92 0.71 0.52 0.54 0.71 0.73 0.73 0.53 0.28 0.30 0.45 0.82 0.57 0.50 0.28 0.28 0.21 0.04 0.00 0.00 0.01 0.02 0.02 0.02 0.13 0.15 0.15 0.10 0.02 0.00 0.00 0.00 0.00 0.00 0.00 0.00 0.00 0.00 0.00 0.00 0.00 0.00 0.00 0.00 0.00 0.00 0.00
0.31 0.52 0.66 0.74 0.93 1.15 1.50 1.57 1.46 1.22 1.12 1.16 1.16 0.68 0.55 0.56 0.64 0.60 0.68 0.40 0.50 0.21 0.06 0.05 0.06 0.06 0.01 0.00 0.01 0.00 0.01 0.01 0.03 0.01 0.03 0.02 0.00 0.00 0.00 0.00 0.00 0.00 0.00 0.00 0.00 0.00 0.00 0.00 0.00 0.00 0.00 0.00 0.00 0.00
0.18 0.29 0.55 0.74 0.87 1.36 1.58 2.06 2.56 2.68 2.06 1.19 0.76 0.94 1.05 0.70 0.68 0.52 0.38 0.17 0.06 0.03 0.00 0.00 0.01 0.03 0.09 0.06 0.02 0.00 0.00 0.00 0.00 0.00 0.00 0.00 0.00 0.00 0.00 0.00 0.00 0.00 0.00 0.00 0.00 0.00 0.00 0.00 0.00 0.00 0.00 0.00 0.00 0.00
0.10 0.22 0.38 0.60 0.82 1.12 1.68 1.99 2.70 2.76 1.67 1.15 1.26 1.80 1.07 0.72 0.46 0.12 0.10 0.04 0.00 0.00 0.00 0.01 0.00 0.00 0.02 0.11 0.09 0.02 0.00 0.00 0.00 0.00 0.00 0.00 0.00 0.00 0.00 0.00 0.00 0.00 0.00 0.00 0.00 0.00 0.00 0.00 0.00 0.00 0.00 0.00 0.00 0.00
0.05 0.14 0.26 0.39 0.75 1.03 1.72 2.43 3.10 2.96 2.38 1.93 1.80 1.54 0.60 0.39 0.07 0.08 0.04 0.00 0.00 0.00 0.00 0.01 0.01 0.00 0.00 0.00 0.04 0.01 0.01 0.00 0.01 0.00 0.00 0.00 0.00 0.00 0.00 0.00 0.00 0.00 0.00 0.00 0.00 0.00 0.00 0.00 0.00 0.00 0.00 0.00 0.00 0.00
0.02 0.07 0.13 0.29 0.58 1.12 1.96 2.89 3.14 2.36 2.01 1.67 1.00 0.61 0.26 0.08 0.03 0.03 0.02 0.00 0.00 0.00 0.00 0.00 0.00 0.00 0.00 0.00 0.00 0.01 0.02 0.01 0.00 0.00 0.00 0.00 0.00 0.00 0.00 0.00 0.00 0.00 0.00 0.00 0.00 0.00 0.00 0.00 0.00 0.00 0.00 0.00 0.00 0.00
0.02 0.03 0.11 0.22 0.39 0.80 1.57 1.89 2.05 1.60 1.89 1.53 0.76 0.35 0.09 0.01 0.01 0.01 0.00 0.00 0.00 0.00 0.00 0.00 0.00 0.00 0.00 0.00 0.00 0.00 0.00 0.00 0.00 0.00 0.00 0.00 0.00 0.00 0.00 0.00 0.00 0.00 0.00 0.00 0.00 0.00 0.00 0.00 0.00 0.00 0.00 0.00 0.00 0.00
0.02 0.02 0.12 0.14 0.23 0.50 1.16 1.71 1.50 1.68 1.94 1.45 0.45 0.05 0.02 0.00 0.00 0.02 0.01 0.00 0.00 0.00 0.00 0.04 0.09 0.02 0.00 0.00 0.00 0.00 0.00 0.00 0.00 0.00 0.00 0.00 0.00 0.00 0.00 0.00 0.00 0.00 0.00 0.00 0.00 0.00 0.00 0.00 0.00 0.00 0.00 0.00 0.00 0.00
0.02 0.01 0.07 0.07 0.15 0.47 0.83 1.29 1.74 1.74 1.47 0.73 0.12 0.03 0.01 0.00 0.00 0.01 0.01 0.02 0.02 0.04 0.05 0.13 0.09 0.08 0.02 0.00 0.00 0.00 0.00 0.00 0.00 0.00 0.00 0.00 0.00 0.00 0.00 0.00 0.00 0.00 0.00 0.00 0.00 0.00 0.00 0.00 0.00 0.00 0.00 0.00 0.00 0.00
0.02 0.02 0.04 0.05 0.18 0.43 0.68 0.95 1.21 1.07 0.68 0.26 0.06 0.04 0.03 0.02 0.01 0.01 0.03 0.05 0.06 0.07 0.15 0.21 0.15 0.06 0.00 0.00 0.00 0.00 0.00 0.00 0.00 0.00 0.00 0.00 0.00 0.00 0.00 0.00 0.00 0.00 0.00 0.00 0.00 0.00 0.00 0.00 0.00 0.00 0.00 0.00 0.00 0.00
0.10 0.11 0.03 0.05 0.19 0.35 0.49 0.71 0.75 0.62 0.42 0.29 0.16 0.12 0.09 0.06 0.06 0.05 0.04 0.07 0.11 0.20 0.30 0.25 0.08 0.03 0.01 0.01 0.02 0.02 0.00 0.00 0.00 0.00 0.00 0.00 0.00 0.00 0.00 0.00 0.00 0.00 0.00 0.00 0.00 0.00 0.00 0.00 0.00 0.00 0.00 0.00 0.00 0.00
0.04 0.04 0.01 0.04 0.20 0.32 0.44 0.37 0.56 0.51 0.41 0.37 0.45 0.30 0.28 0.24 0.20 0.23 0.37 0.34 0.47 0.55 0.27 0.11 0.04 0.02 0.03 0.04 0.04 0.03 0.01 0.01 0.00 0.00 0.00 0.00 0.00 0.00 0.00 0.00 0.00 0.00 0.00 0.00 0.00 0.00 0.00 0.00 0.00 0.00 0.00 0.00 0.00 0.00
0.02 0.04 0.05 0.08 0.23 0.23 0.25 0.32 0.41 0.40 0.31 0.40 0.55 0.52 0.51 0.50 0.52 0.55 0.61 0.81 0.82 0.38 0.13 0.06 0.09 0.07 0.04 0.04 0.06 0.06 0.05 0.03 0.01 0.00 0.00 0.00 0.00 0.00 0.00 0.00 0.00 0.00 0.00 0.00 0.00 0.00 0.00 0.00 0.00 0.00 0.00 0.00 0.00 0.00
0.01 0.02 0.07 0.11 0.15 0.12 0.20 0.24 0.26 0.34 0.35 0.43 0.48 0.48 0.58 0.57 0.68 0.81 0.94 0.78 0.45 0.26 0.18 0.16 0.14 0.14 0.12 0.08 0.06 0.04 0.05 0.06 0.04 0.02 0.01 0.00 0.00 0.00 0.00 0.00 0.00 0.00 0.00 0.00 0.00 0.00 0.00 0.00 0.00 0.00 0.00 0.00 0.00 0.00
0.01 0.01 0.02 0.04 0.09 0.12 0.14 0.20 0.16 0.21 0.26 0.30 0.38 0.39 0.38 0.53 0.63 0.63 0.50 0.26 0.25 0.27 0.25 0.25 0.20 0.13 0.12 0.14 0.16 0.13 0.09 0.07 0.05 0.06 0.08 0.07 0.04 0.02 0.01 0.01 0.00 0.00 0.00 0.00 0.00 0.00 0.00 0.00 0.00 0.00 0.00 0.00 0.00 0.00
0.07 0.05 0.03 0.01 0.00 0.02 0.04 0.12 0.14 0.12 0.19 0.26 0.32 0.36 0.37 0.45 0.55 0.41 0.24 0.20 0.33 0.40 0.34 0.26 0.19 0.16 0.14 0.12 0.12 0.15 0.16 0.16 0.13 0.09 0.10 0.13 0.11 0.10 0.10 0.06 0.03 0.01 0.00 0.00 0.00 0.00 0.00 0.00 0.00 0.00 0.00 0.00 0.00 0.01
0.07 0.03 0.01 0.00 0.00 0.00 0.00 0.06 0.12 0.16 0.20 0.24 0.27 0.29 0.33 0.36 0.32 0.31 0.18 0.21 0.34 0.45 0.47 0.37 0.27 0.20 0.17 0.17 0.18 0.22 0.21 0.20 0.18 0.15 0.21 0.27 0.20 0.15 0.11 0.10 0.09 0.07 0.04 0.03 0.03 0.02 0.02 0.02 0.01 0.02 0.02 0.01 0.03 0.04
0.03 0.02 0.00 0.00 0.00 0.00 0.00 0.00 0.01 0.04 0.09 0.14 0.16 0.18 0.20 0.22 0.25 0.14 0.13 0.22 0.33 0.40 0.45 0.47 0.38 0.26 0.22 0.22 0.23 0.25 0.28 0.32 0.28 0.21 0.24 0.33 0.34 0.29 0.20 0.13 0.08 0.06 0.10 0.15 0.12 0.09 0.07 0.07 0.06 0.07 0.09 0.09 0.07 0.03
0.00 0.00 0.00 0.00 0.00 0.00 0.00 0.00 0.00 0.00 0.00 0.03 0.10 0.09 0.10 0.11 0.08 0.08 0.13 0.22 0.33 0.38 0.44 0.48 0.46 0.34 0.29 0.27 0.28 0.30 0.34 0.38 0.39 0.33 0.31 0.35 0.39 0.40 0.38 0.31 0.29 0.29 0.27 0.24 0.24 0.23 0.21 0.17 0.16 0.14 0.15 0.13 0.08 0.02
0.00 0.00 0.00 0.00 0.00 0.00 0.00 0.00 0.00 0.00 0.00 0.00 0.01 0.03 0.03 0.03 0.06 0.09 0.14 0.21 0.30 0.36 0.39 0.42 0.45 0.43 0.39 0.37 0.36 0.37 0.38 0.37 0.32 0.27 0.20 0.20 0.25 0.34 0.42 0.44 0.46 0.47 0.41 0.34 0.34 0.28 0.22 0.20 0.19 0.16 0.14 0.12 0.08 0.02
0.01 0.00 0.00 0.01 0.00 0.00 0.00 0.01 0.01 0.01 0.00 0.00 0.00 0.00 0.01 0.03 0.06 0.09 0.14 0.19 0.26 0.32 0.37 0.42 0.44 0.44 0.42 0.40 0.41 0.42 0.43 0.43 0.41 0.31 0.24 0.21 0.23 0.31 0.40 0.44 0.46 0.47 0.47 0.42 0.39 0.42 0.38 0.32 0.27 0.21 0.15 0.12 0.07 0.03
0.02 0.01 0.00 0.00 0.00 0.01 0.02 0.03 0.02 0.01 0.00 0.00 0.00 0.00 0.01 0.02 0.04 0.07 0.11 0.16 0.22 0.28 0.33 0.36 0.39 0.43 0.42 0.44 0.43 0.42 0.40 0.41 0.42 0.43 0.39 0.37 0.39 0.40 0.43 0.46 0.46 0.46 0.47 0.44 0.38 0.31 0.25 0.18 0.13 0.11 0.09 0.08 0.06 0.04
0.05 0.02 0.00 0.01 0.01 0.02 0.03 0.02 0.02 0.01 0.02 0.01 0.01 0.01 0.01 0.02 0.03 0.04 0.07 0.10 0.15 0.20 0.26 0.29 0.29 0.31 0.33 0.34 0.36 0.38 0.39 0.38 0.38 0.39 0.38 0.35 0.34 0.37 0.40 0.41 0.43 0.42 0.43 0.43 0.38 0.32 0.29 0.27 0.26 0.21 0.16 0.13 0.10 0.09
0.07 0.07 0.06 0.03 0.02 0.02 0.02 0.02 0.02 0.01 0.01 0.01 0.01 0.02 0.02 0.02 0.03 0.03 0.03 0.07 0.10 0.15 0.19 0.23 0.26 0.28 0.30 0.31 0.33 0.36 0.39 0.43 0.46 0.49 0.51 0.47 0.41 0.37 0.34 0.35 0.36 0.37 0.35 0.35 0.37 0.37 0.38 0.34 0.28 0.23 0.20 0.16 0.13 0.09

GFSWCAN_prec_precacc_045.txt.gz
Total_Precipitation_Accumulation
0.31 0.26 0.29 0.31 0.31 0.29 0.26 0.26 0.31 0.30 0.24 0.20 0.19 0.24 0.27 0.27 0.51 0.40 0.35 0.37 0.31 0.19 0.08 0.02 0.02 0.04 0.18 0.41 0.57 0.51 0.60 0.36 0.36 0.46 0.30 0.12 0.03 0.01 0.00 0.01 0.00 0.01 0.03 0.04 0.07 0.08 0.01 0.00 0.00 0.00 0.00 0.00 0.00 0.05
0.32 0.32 0.33 0.34 0.32 0.27 0.29 0.27 0.30 0.27 0.22 0.21 0.17 0.19 0.23 0.20 0.39 0.48 0.32 0.32 0.32 0.22 0.10 0.03 0.01 0.01 0.05 0.27 0.56 0.55 0.49 0.28 0.21 0.20 0.11 0.07 0.04 0.01 0.00 0.00 0.00 0.00 0.00 0.01 0.00 0.00 0.00 0.00 0.00 0.00 0.00 0.00 0.00 0.00
0.32 0.36 0.32 0.32 0.30 0.28 0.25 0.25 0.31 0.26 0.22 0.20 0.18 0.17 0.17 0.18 0.26 0.44 0.30 0.24 0.29 0.21 0.06 0.02 0.01 0.01 0.00 0.08 0.44 0.70 0.45 0.38 0.23 0.11 0.15 0.05 0.06 0.02 0.01 0.00 0.00 0.00 0.00 0.00 0.00 0.00 0.00 0.00 0.00 0.00 0.00 0.00 0.00 0.00
0.28 0.31 0.27 0.25 0.26 0.22 0.20 0.24 0.23 0.21 0.16 0.16 0.18 0.14 0.13 0.17 0.24 0.31 0.23 0.16 0.25 0.19 0.05 0.04 0.00 0.01 0.02 0.05 0.34 0.67 0.69 0.50 0.46 0.29 0.26 0.18 0.04 0.02 0.01 0.00 0.00 0.00 0.00 0.00 0.00 0.00 0.00 0.00 0.00 0.00 0.00 0.00 0.00 0.00
0.24 0.25 0.22 0.19 0.17 0.18 0.19 0.17 0.16 0.16 0.12 0.13 0.15 0.13 0.13 0.19 0.29 0.16 0.10 0.15 0.18 0.33 0.30 0.07 0.00 0.00 0.00 0.01 0.25 0.62 0.86 0.82 0.65 0.57 0.27 0.13 0.03 0.01 0.00 0.00 0.00 0.00 0.00 0.00 0.00 0.00 0.00 0.00 0.00 0.00 0.00 0.00 0.00 0.00
0.23 0.21 0.18 0.16 0.16 0.20 0.17 0.11 0.11 0.13 0.09 0.11 0.16 0.19 0.16 0.22 0.40 0.35 0.32 0.23 0.23 0.22 0.31 0.09 0.03 0.00 0.00 0.01 0.10 0.41 0.57 0.59 0.50 0.47 0.25 0.09 0.03 0.05 0.03 0.00 0.00 0.00 0.00 0.00 0.00 0.00 0.00 0.00 0.00 0.00 0.00 0.00 0.00 0.00
0.28 0.25 0.20 0.19 0.21 0.23 0.20 0.11 0.10 0.18 0.17 0.17 0.22 0.21 0.15 0.27 0.34 0.45 0.21 0.17 0.21 0.19 0.23 0.06 0.03 0.00 0.00 0.00 0.02 0.21 0.49 0.54 0.41 0.31 0.19 0.11 0.06 0.06 0.03 0.00 0.00 0.00 0.00 0.00 0.00 0.00 0.00 0.00 0.00 0.00 0.00 0.00 0.00 0.00
0.61 0.70 0.69 0.45 0.39 0.36 0.34 0.17 0.18 0.27 0.33 0.22 0.26 0.28 0.29 0.39 0.36 0.32 0.10 0.11 0.18 0.32 0.17 0.09 0.01 0.00 0.01 0.03 0.03 0.08 0.37 0.50 0.44 0.27 0.10 0.06 0.04 0.08 0.03 0.00 0.00 0.00 0.00 0.00 0.00 0.00 0.00 0.00 0.00 0.00 0.00 0.00 0.00 0.01
0.66 0.70 0.91 1.09 0.95 0.76 0.63 0.43 0.33 0.35 0.42 0.40 0.41 0.47 0.49 0.37 0.20 0.17 0.37 0.31 0.12 0.52 0.54 0.09 0.00 0.01 0.00 0.04 0.03 0.03 0.17 0.44 0.40 0.25 0.12 0.09 0.04 0.00 0.00 0.00 0.00 0.00 0.00 0.00 0.00 0.00 0.00 0.00 0.00 0.00 0.00 0.00 0.00 0.00
0.57 0.63 0.67 0.82 1.08 1.25 1.21 0.92 0.71 0.52 0.54 0.71 0.73 0.73 0.53 0.30 0.34 0.48 0.84 0.58 0.50 0.29 0.29 0.22 0.05 0.01 0.00 0.01 0.02 0.02 0.02 0.15 0.22 0.20 0.17 0.09 0.04 0.01 0.00 0.00 0.00 0.00 0.00 0.00 0.00 0.00 0.00 0.00 0.00 0.00 0.00 0.00 0.00 0.00
0.33 0.53 0.67 0.74 0.94 1.15 1.50 1.57 1.46 1.22 1.12 1.16 1.16 0.68 0.55 0.58 0.67 0.62 0.71 0.41 0.50 0.21 0.07 0.05 0.06 0.06 0.01 0.00 0.01 0.00 0.01 0.01 0.07 0.08 0.09 0.12 0.06 0.00 0.00 0.00 0.00 0.00 0.00 0.00 0.00 0.00 0.00 0.00 0.00 0.00 0.00 0.00 0.00 0.00
0.19 0.30 0.55 0.75 0.88 1.36 1.58 2.06 2.56 2.68 2.06 1.19 0.76 0.94 1.05 0.71 0.69 0.52 0.38 0.17 0.06 0.03 0.00 0.00 0.01 0.03 0.09 0.06 0.02 0.00 0.00 0.00 0.01 0.02 0.03 0.01 0.01 0.00 0.00 0.00 0.00 0.00 0.00 0.00 0.00 0.00 0.00 0.00 0.01 0.01 0.00 0.00 0.00 0.00
0.13 0.23 0.38 0.61 0.82 1.12 1.68 1.99 2.70 2.76 1.67 1.15 1.26 1.80 1.07 0.72 0.46 0.12 0.10 0.04 0.00 0.00 0.00 0.01 0.00 0.00 0.02 0.11 0.09 0.02 0.00 0.00 0.00 0.00 0.03 0.04 0.00 0.00 0.00 0.00 0.00 0.00 0.00 0.00 0.00 0.00 0.00 0.00 0.03 0.02 0.00 0.00 0.00 0.00
0.09 0.16 0.27 0.39 0.76 1.03 1.72 2.43 3.10 2.96 2.38 1.93 1.80 1.54 0.60 0.39 0.07 0.08 0.04 0.00 0.00 0.00 0.00 0.01 0.01 0.00 0.00 0.00 0.04 0.01 0.01 0.00 0.01 0.00 0.00 0.00 0.00 0.00 0.00 0.00 0.00 0.00 0.00 0.00 0.00 0.00 0.00 0.00 0.01 0.00 0.00 0.00 0.00 0.00
0.06 0.10 0.15 0.30 0.58 1.12 1.96 2.89 3.14 2.36 2.01 1.67 1.00 0.61 0.26 0.08 0.03 0.03 0.02 0.00 0.00 0.00 0.00 0.00 0.00 0.00 0.00 0.00 0.00 0.01 0.02 0.01 0.00 0.00 0.00 0.00 0.00 0.00 0.00 0.00 0.00 0.00 0.00 0.00 0.00 0.00 0.00 0.00 0.00 0.00 0.00 0.00 0.00 0.00
0.04 0.06 0.13 0.23 0.39 0.80 1.57 1.89 2.05 1.60 1.89 1.53 0.76 0.35 0.09 0.01 0.01 0.01 0.00 0.00 0.00 0.00 0.00 0.00 0.00 0.00 0.00 0.00 0.00 0.00 0.00 0.00 0.00 0.00 0.00 0.00 0.00 0.00 0.00 0.00 0.00 0.00 0.00 0.00 0.00 0.00 0.00 0.00 0.00 0.00 0.00 0.00 0.00 0.00
0.03 0.04 0.14 0.15 0.23 0.50 1.16 1.71 1.50 1.68 1.94 1.45 0.45 0.05 0.02 0.00 0.00 0.02 0.01 0.00 0.00 0.00 0.00 0.04 0.09 0.02 0.00 0.00 0.00 0.00 0.00 0.00 0.00 0.00 0.00 0.00 0.00 0.00 0.00 0.00 0.00 0.00 0.00 0.00 0.00 0.00 0.00 0.00 0.00 0.00 0.00 0.00 0.00 0.00
0.03 0.01 0.07 0.07 0.15 0.47 0.83 1.29 1.74 1.74 1.47 0.73 0.12 0.03 0.01 0.00 0.00 0.01 0.02 0.02 0.02 0.04 0.06 0.14 0.09 0.08 0.02 0.00 0.00 0.00 0.00 0.00 0.00 0.00 0.00 0.00 0.00 0.00 0.00 0.00 0.00 0.00 0.00 0.00 0.00 0.00 0.00 0.00 0.00 0.00 0.00 0.00 0.00 0.00
0.03 0.05 0.05 0.05 0.18 0.43 0.68 0.95 1.21 1.07 0.68 0.26 0.06 0.04 0.03 0.02 0.01 0.01 0.03 0.05 0.06 0.07 0.16 0.22 0.16 0.07 0.00 0.00 0.00 0.00 0.00 0.00 0.00 0.00 0.00 0.00 0.00 0.00 0.00 0.00 0.00 0.00 0.00 0.00 0.00 0.00 0.00 0.00 0.00 0.00 0.00 0.00 0.00 0.00
0.13 0.16 0.05 0.05 0.19 0.35 0.49 0.71 0.75 0.62 0.42 0.29 0.16 0.12 0.09 0.06 0.06 0.05 0.04 0.07 0.11 0.20 0.30 0.25 0.08 0.03 0.01 0.01 0.02 0.02 0.00 0.00 0.00 0.00 0.00 0.00 0.00 0.00 0.00 0.00 0.00 0.00 0.00 0.00 0.00 0.00 0.00 0.00 0.00 0.00 0.00 0.00 0.00 0.00
0.07 0.07 0.04 0.04 0.20 0.32 0.44 0.37 0.56 0.51 0.41 0.37 0.45 0.30 0.28 0.24 0.20 0.23 0.37 0.34 0.47 0.55 0.27 0.11 0.04 0.02 0.03 0.04 0.04 0.03 0.01 0.01 0.00 0.00 0.00 0.00 0.00 0.00 0.00 0.00 0.00 0.00 0.00 0.00 0.00 0.00 0.00 0.00 0.00 0.00 0.00 0.00 0.00 0.00
0.04 0.07 0.06 0.08 0.23 0.23 0.25 0.32 0.41 0.40 0.31 0.40 0.55 0.52 0.51 0.50 0.52 0.55 0.61 0.81 0.82 0.38 0.13 0.06 0.09 0.07 0.04 0.04 0.06 0.06 0.05 0.03 0.01 0.00 0.00 0.00 0.00 0.00 0.00 0.00 0.00 0.00 0.00 0.00 0.00 0.00 0.00 0.00 0.00 0.00 0.00 0.00 0.00 0.00
0.03 0.02 0.07 0.11 0.15 0.12 0.20 0.24 0.26 0.34 0.35 0.43 0.48 0.48 0.58 0.57 0.68 0.81 0.94 0.78 0.45 0.26 0.18 0.16 0.14 0.14 0.12 0.08 0.06 0.04 0.05 0.06 0.04 0.02 0.01 0.00 0.00 0.00 0.00 0.00 0.00 0.00 0.00 0.00 0.00 0.00 0.00 0.00 0.00 0.00 0.00 0.00 0.00 0.00
0.02 0.03 0.03 0.06 0.10 0.13 0.14 0.20 0.16 0.21 0.26 0.30 0.38 0.39 0.38 0.53 0.64 0.63 0.50 0.26 0.25 0.27 0.25 0.25 0.20 0.13 0.12 0.14 0.16 0.13 0.09 0.07 0.05 0.06 0.08 0.07 0.04 0.02 0.01 0.01 0.00 0.00 0.00 0.00 0.00 0.00 0.00 0.00 0.00 0.00 0.00 0.00 0.00 0.00
0.13 0.08 0.04 0.03 0.01 0.02 0.04 0.12 0.14 0.12 0.19 0.26 0.32 0.36 0.37 0.45 0.55 0.41 0.24 0.20 0.33 0.40 0.34 0.26 0.19 0.16 0.14 0.12 0.12 0.15 0.16 0.16 0.13 0.09 0.10 0.13 0.11 0.10 0.10 0.06 0.03 0.01 0.00 0.00 0.00 0.00 0.00 0.00 0.00 0.00 0.00 0.00 0.00 0.02
0.10 0.04 0.02 0.00 0.00 0.00 0.00 0.06 0.12 0.16 0.20 0.24 0.27 0.29 0.33 0.36 0.32 0.31 0.18 0.21 0.34 0.45 0.47 0.37 0.27 0.20 0.17 0.17 0.18 0.22 0.21 0.20 0.18 0.15 0.21 0.27 0.20 0.15 0.11 0.10 0.09 0.07 0.04 0.03 0.04 0.03 0.03 0.03 0.03 0.03 0.02 0.02 0.04 0.12
0.04 0.02 0.01 0.00 0.00 0.00 0.00 0.00 0.01 0.04 0.09 0.14 0.16 0.18 0.20 0.22 0.25 0.14 0.13 0.22 0.33 0.40 0.45 0.47 0.38 0.26 0.22 0.22 0.23 0.25 0.28 0.32 0.28 0.21 0.24 0.33 0.34 0.29 0.20 0.13 0.08 0.06 0.10 0.15 0.13 0.11 0.10 0.10 0.10 0.11 0.14 0.15 0.14 0.14
0.00 0.00 0.00 0.00 0.00 0.00 0.00 0.00 0.00 0.00 0.00 0.03 0.10 0.09 0.10 0.11 0.08 0.08 0.13 0.22 0.33 0.38 0.44 0.48 0.46 0.34 0.29 0.27 0.28 0.30 0.34 0.38 0.39 0.33 0.31 0.35 0.39 0.40 0.38 0.31 0.29 0.29 0.27 0.24 0.25 0.25 0.24 0.21 0.21 0.21 0.22 0.21 0.17 0.16
0.00 0.00 0.00 0.00 0.00 0.00 0.00 0.00 0.00 0.00 0.00 0.00 0.01 0.03 0.03 0.03 0.06 0.09 0.14 0.21 0.30 0.36 0.39 0.42 0.45 0.43 0.39 0.37 0.36 0.37 0.38 0.37 0.32 0.27 0.20 0.20 0.25 0.34 0.42 0.44 0.46 0.48 0.42 0.35 0.35 0.31 0.26 0.24 0.25 0.25 0.25 0.24 0.20 0.18
0.01 0.00 0.00 0.01 0.00 0.00 0.00 0.01 0.01 0.01 0.00 0.00 0.00 0.00 0.01 0.03 0.06 0.09 0.14 0.19 0.26 0.32 0.37 0.42 0.44 0.44 0.42 0.40 0.41 0.42 0.43 0.43 0.41 0.31 0.24 0.21 0.23 0.31 0.40 0.44 0.46 0.47 0.47 0.42 0.41 0.45 0.44 0.42 0.39 0.36 0.29 0.27 0.24 0.20
0.02 0.01 0.00 0.00 0.00 0.01 0.02 0.03 0.02 0.01 0.00 0.00 0.00 0.00 0.01 0.02 0.04 0.07 0.11 0.16 0.22 0.28 0.33 0.36 0.39 0.43 0.42 0.44 0.43 0.42 0.40 0.41 0.42 0.43 0.39 0.38 0.39 0.40 0.43 0.46 0.46 0.46 0.47 0.45 0.40 0.35 0.31 0.26 0.19 0.17 0.20 0.20 0.17 0.12
0.05 0.02 0.01 0.01 0.01 0.02 0.03 0.02 0.02 0.01 0.02 0.01 0.01 0.01 0.01 0.02 0.03 0.04 0.07 0.10 0.15 0.20 0.26 0.29 0.29 0.31 0.33 0.34 0.36 0.39 0.40 0.39 0.38 0.39 0.39 0.36 0.35 0.37 0.40 0.41 0.44 0.43 0.44 0.46 0.42 0.38 0.34 0.32 0.35 0.33 0.30 0.29 0.24 0.19
0.07 0.08 0.06 0.03 0.02 0.02 0.02 0.02 0.02 0.01 0.01 0.01 0.01 0.02 0.02 0.02 0.03 0.03 0.03 0.07 0.10 0.15 0.19 0.23 0.26 0.28 0.30 0.31 0.34 0.36 0.39 0.44 0.46 0.49 0.52 0.49 0.43 0.38 0.36 0.36 0.37 0.38 0.38 0.39 0.41 0.43 0.46 0.44 0.39 0.36 0.34 0.31 0.27 0.23

GFSWCAN_prec_precacc_048.txt.gz
Total_Precipitation_Accumulation
0.31 0.26 0.29 0.32 0.31 0.29 0.26 0.27 0.31 0.30 0.24 0.20 0.19 0.24 0.27 0.27 0.51 0.40 0.35 0.37 0.32 0.19 0.08 0.02 0.02 0.04 0.18 0.42 0.58 0.51 0.60 0.36 0.36 0.46 0.30 0.12 0.03 0.01 0.00 0.01 0.00 0.02 0.03 0.04 0.08 0.09 0.01 0.00 0.00 0.00 0.00 0.00 0.00 0.05
0.32 0.32 0.33 0.35 0.33 0.28 0.29 0.28 0.31 0.28 0.23 0.21 0.17 0.19 0.23 0.20 0.39 0.48 0.33 0.32 0.32 0.23 0.11 0.03 0.01 0.01 0.05 0.27 0.56 0.55 0.49 0.28 0.21 0.20 0.11 0.07 0.04 0.01 0.00 0.01 0.00 0.00 0.00 0.01 0.00 0.00 0.00 0.00 0.00 0.00 0.00 0.00 0.00 0.00
0.32 0.36 0.32 0.32 0.30 0.28 0.25 0.26 0.32 0.27 0.22 0.21 0.18 0.17 0.18 0.19 0.26 0.44 0.30 0.26 0.31 0.24 0.10 0.03 0.02 0.02 0.00 0.08 0.44 0.70 0.45 0.38 0.23 0.11 0.15 0.05 0.06 0.02 0.01 0.00 0.00 0.00 0.00 0.00 0.00 0.00 0.00 0.00 0.00 0.00 0.00 0.00 0.00 0.00
0.28 0.31 0.27 0.25 0.27 0.22 0.21 0.25 0.24 0.22 0.16 0.17 0.18 0.15 0.13 0.17 0.24 0.31 0.23 0.17 0.29 0.25 0.09 0.07 0.01 0.01 0.02 0.05 0.34 0.67 0.69 0.50 0.46 0.29 0.26 0.18 0.05 0.02 0.01 0.00 0.00 0.00 0.00 0.00 0.00 0.00 0.00 0.00 0.00 0.00 0.00 0.00 0.00 0.00
0.26 0.25 0.23 0.21 0.18 0.19 0.19 0.18 0.17 0.16 0.13 0.14 0.16 0.14 0.15 0.21 0.31 0.17 0.10 0.15 0.19 0.34 0.30 0.13 0.01 0.00 0.00 0.01 0.25 0.62 0.86 0.82 0.66 0.58 0.28 0.13 0.04 0.01 0.00 0.00 0.00 0.00 0.00 0.00 0.00 0.00 0.00 0.00 0.00 0.00 0.00 0.00 0.00 0.00
0.25 0.23 0.20 0.18 0.16 0.21 0.17 0.12 0.11 0.13 0.10 0.12 0.17 0.21 0.18 0.24 0.42 0.35 0.33 0.25 0.24 0.22 0.31 0.10 0.03 0.00 0.00 0.01 0.10 0.41 0.57 0.59 0.51 0.48 0.27 0.10 0.03 0.06 0.03 0.00 0.00 0.00 0.00 0.00 0.00 0.00 0.00 0.00 0.00 0.00 0.00 0.00 0.00 0.00
0.29 0.26 0.21 0.21 0.22 0.24 0.20 0.11 0.10 0.18 0.17 0.17 0.22 0.22 0.17 0.28 0.35 0.45 0.26 0.22 0.22 0.19 0.23 0.07 0.03 0.00 0.00 0.00 0.02 0.21 0.51 0.59 0.44 0.33 0.20 0.12 0.07 0.09 0.04 0.00 0.00 0.00 0.00 0.00 0.00 0.00 0.00 0.00 0.00 0.00 0.00 0.00 0.00 0.00
0.63 0.71 0.71 0.46 0.39 0.36 0.35 0.18 0.19 0.27 0.33 0.22 0.26 0.29 0.29 0.39 0.36 0.32 0.10 0.12 0.18 0.32 0.17 0.09 0.01 0.00 0.01 0.04 0.08 0.13 0.47 0.58 0.48 0.31 0.12 0.07 0.04 0.09 0.05 0.00 0.00 0.00 0.00 0.00 0.00 0.00 0.00 0.00 0.00 0.00 0.00 0.00 0.00 0.01
0.68 0.72 0.91 1.10 0.96 0.77 0.63 0.44 0.33 0.35 0.42 0.40 0.41 0.47 0.49 0.38 0.21 0.18 0.39 0.32 0.12 0.53 0.55 0.10 0.00 0.01 0.00 0.06 0.06 0.05 0.19 0.47 0.43 0.29 0.15 0.13 0.09 0.06 0.01 0.00 0.00 0.00 0.00 0.00 0.00 0.00 0.00 0.00 0.00 0.00 0.00 0.00 0.00 0.00
0.58 0.64 0.67 0.83 1.08 1.26 1.22 0.92 0.71 0.52 0.54 0.71 0.73 0.74 0.55 0.31 0.35 0.49 0.85 0.59 0.50 0.29 0.30 0.22 0.05 0.01 0.00 0.01 0.03 0.03 0.03 0.17 0.25 0.25 0.24 0.17 0.11 0.08 0.01 0.00 0.00 0.00 0.00 0.00 0.00 0.00 0.00 0.00 0.00 0.00 0.00 0.00 0.00 0.00
0.33 0.53 0.67 0.74 0.94 1.15 1.50 1.57 1.46 1.22 1.12 1.16 1.16 0.68 0.58 0.63 0.73 0.67 0.73 0.42 0.51 0.22 0.07 0.05 0.06 0.06 0.01 0.00 0.01 0.00 0.01 0.01 0.09 0.14 0.15 0.20 0.14 0.03 0.00 0.00 0.00 0.00 0.00 0.00 0.00 0.00 0.00 0.00 0.00 0.00 0.00 0.00 0.00 0.00
0.21 0.31 0.56 0.76 0.88 1.37 1.59 2.06 2.56 2.68 2.06 1.19 0.76 0.94 1.08 0.76 0.72 0.53 0.40 0.18 0.06 0.03 0.00 0.01 0.01 0.03 0.09 0.06 0.02 0.00 0.00 0.00 0.01 0.05 0.08 0.06 0.03 0.00 0.00 0.00 0.00 0.00 0.00 0.00 0.00 0.00 0.00 0.00 0.01 0.01 0.00 0.00 0.00 0.00
0.17 0.26 0.41 0.63 0.84 1.13 1.68 1.99 2.70 2.76 1.67 1.15 1.26 1.80 1.08 0.72 0.47 0.12 0.11 0.04 0.00 0.00 0.00 0.01 0.00 0.00 0.02 0.11 0.09 0.02 0.00 0.00 0.00 0.01 0.05 0.09 0.01 0.00 0.00 0.00 0.00 0.00 0.00 0.00 0.00 0.00 0.00 0.01 0.04 0.06 0.03 0.01 0.00 0.00
0.14 0.23 0.34 0.46 0.79 1.04 1.72 2.43 3.10 2.96 2.38 1.93 1.80 1.54 0.60 0.40 0.07 0.08 0.04 0.00 0.00 0.00 0.00 0.01 0.01 0.00 0.00 0.00 0.04 0.01 0.01 0.00 0.01 0.00 0.00 0.00 0.00 0.00 0.00 0.00 0.00 0.00 0.00 0.00 0.01 0.01 0.00 0.02 0.08 0.03 0.02 0.02 0.01 0.00
0.13 0.18 0.21 0.36 0.62 1.13 1.96 2.89 3.14 2.36 2.01 1.67 1.00 0.61 0.26 0.08 0.03 0.03 0.02 0.00 0.00 0.00 0.00 0.00 0.00 0.00 0.00 0.00 0.00 0.01 0.02 0.01 0.00 0.00 0.00 0.00 0.00 0.00 0.00 0.00 0.00 0.00 0.00 0.00 0.00 0.00 0.00 0.00 0.00 0.00 0.00 0.00 0.00 0.00
0.13 0.15 0.21 0.30 0.41 0.80 1.57 1.89 2.05 1.60 1.89 1.53 0.76 0.35 0.09 0.01 0.01 0.01 0.01 0.00 0.00 0.00 0.00 0.00 0.00 0.00 0.00 0.00 0.00 0.00 0.00 0.00 0.00 0.00 0.00 0.00 0.00 0.00 0.00 0.00 0.00 0.00 0.00 0.00 0.00 0.00 0.00 0.00 0.00 0.00 0.00 0.00 0.00 0.00
0.09 0.09 0.20 0.17 0.23 0.51 1.16 1.71 1.50 1.68 1.94 1.45 0.45 0.05 0.02 0.00 0.00 0.02 0.01 0.00 0.00 0.00 0.00 0.04 0.09 0.02 0.00 0.01 0.00 0.00 0.00 0.00 0.00 0.00 0.00 0.00 0.00 0.00 0.00 0.00 0.00 0.00 0.00 0.00 0.00 0.00 0.00 0.00 0.00 0.00 0.00 0.00 0.00 0.00
0.05 0.05 0.11 0.09 0.16 0.47 0.83 1.29 1.74 1.74 1.47 0.73 0.12 0.03 0.01 0.00 0.00 0.01 0.02 0.03 0.03 0.05 0.07 0.16 0.09 0.09 0.02 0.00 0.00 0.00 0.00 0.00 0.00 0.00 0.00 0.00 0.00 0.00 0.00 0.00 0.00 0.00 0.00 0.00 0.00 0.00 0.00 0.00 0.00 0.00 0.00 0.00 0.00 0.00
0.04 0.07 0.08 0.06 0.18 0.43 0.68 0.95 1.21 1.07 0.68 0.26 0.06 0.04 0.03 0.02 0.01 0.01 0.03 0.05 0.06 0.08 0.17 0.24 0.16 0.07 0.00 0.00 0.00 0.00 0.00 0.00 0.00 0.00 0.00 0.00 0.00 0.00 0.00 0.00 0.00 0.00 0.00 0.00 0.00 0.00 0.00 0.00 0.00 0.00 0.00 0.00 0.00 0.00
0.15 0.19 0.09 0.05 0.19 0.35 0.49 0.71 0.75 0.62 0.42 0.29 0.16 0.12 0.09 0.06 0.06 0.05 0.04 0.07 0.11 0.20 0.30 0.25 0.08 0.03 0.01 0.01 0.02 0.02 0.00 0.00 0.00 0.00 0.00 0.00 0.00 0.00 0.00 0.00 0.00 0.00 0.00 0.00 0.00 0.00 0.00 0.00 0.00 0.00 0.00 0.00 0.00 0.00
0.10 0.08 0.06 0.05 0.20 0.32 0.44 0.37 0.56 0.51 0.41 0.37 0.45 0.30 0.28 0.24 0.20 0.23 0.37 0.34 0.47 0.55 0.27 0.11 0.04 0.02 0.03 0.04 0.04 0.03 0.01 0.01 0.00 0.00 0.00 0.00 0.00 0.00 0.00 0.00 0.00 0.00 0.00 0.00 0.00 0.00 0.00 0.00 0.00 0.00 0.00 0.00 0.00 0.00
0.04 0.07 0.07 0.08 0.23 0.23 0.25 0.32 0.41 0.40 0.31 0.40 0.55 0.53 0.51 0.50 0.52 0.56 0.61 0.81 0.82 0.38 0.13 0.06 0.09 0.07 0.04 0.04 0.06 0.06 0.05 0.03 0.01 0.00 0.00 0.00 0.00 0.00 0.00 0.00 0.00 0.00 0.00 0.00 0.00 0.00 0.00 0.00 0.00 0.00 0.00 0.00 0.00 0.00
0.03 0.02 0.07 0.11 0.15 0.12 0.20 0.24 0.26 0.34 0.35 0.43 0.48 0.48 0.58 0.57 0.68 0.81 0.94 0.78 0.45 0.26 0.18 0.16 0.14 0.14 0.12 0.08 0.06 0.04 0.05 0.06 0.04 0.02 0.01 0.00 0.00 0.00 0.00 0.00 0.00 0.00 0.00 0.00 0.00 0.00 0.00 0.00 0.00 0.00 0.00 0.00 0.00 0.00
0.03 0.04 0.03 0.06 0.10 0.13 0.14 0.20 0.16 0.21 0.26 0.30 0.38 0.39 0.38 0.53 0.64 0.64 0.50 0.26 0.25 0.27 0.25 0.25 0.20 0.13 0.12 0.14 0.16 0.13 0.09 0.07 0.05 0.06 0.08 0.07 0.04 0.02 0.01 0.01 0.00 0.00 0.00 0.00 0.00 0.00 0.00 0.00 0.00 0.00 0.00 0.00 0.00 0.00
0.16 0.10 0.04 0.03 0.01 0.02 0.04 0.12 0.14 0.12 0.19 0.26 0.32 0.36 0.37 0.45 0.55 0.41 0.24 0.20 0.33 0.40 0.34 0.26 0.19 0.16 0.14 0.12 0.12 0.15 0.16 0.16 0.13 0.09 0.10 0.13 0.11 0.10 0.10 0.06 0.03 0.01 0.00 0.00 0.00 0.00 0.00 0.00 0.00 0.00 0.00 0.00 0.00 0.02
0.13 0.04 0.02 0.00 0.00 0.00 0.00 0.06 0.12 0.16 0.20 0.24 0.28 0.29 0.33 0.36 0.32 0.31 0.18 0.21 0.34 0.45 0.47 0.37 0.27 0.20 0.17 0.17 0.18 0.22 0.21 0.20 0.18 0.15 0.21 0.27 0.20 0.15 0.11 0.10 0.09 0.07 0.04 0.03 0.04 0.03 0.04 0.04 0.03 0.03 0.03 0.03 0.06 0.15
0.06 0.02 0.01 0.00 0.00 0.00 0.00 0.00 0.01 0.04 0.09 0.14 0.16 0.18 0.20 0.22 0.25 0.14 0.13 0.22 0.33 0.40 0.45 0.47 0.38 0.26 0.22 0.22 0.23 0.25 0.28 0.32 0.28 0.21 0.24 0.33 0.34 0.29 0.20 0.14 0.08 0.06 0.10 0.15 0.13 0.11 0.10 0.11 0.11 0.12 0.15 0.17 0.17 0.17
0.01 0.00 0.00 0.00 0.00 0.00 0.00 0.00 0.00 0.00 0.00 0.03 0.10 0.09 0.10 0.11 0.08 0.08 0.13 0.22 0.33 0.38 0.44 0.48 0.46 0.34 0.29 0.27 0.28 0.30 0.34 0.38 0.39 0.33 0.31 0.35 0.39 0.40 0.38 0.31 0.29 0.29 0.27 0.24 0.26 0.26 0.24 0.22 0.22 0.22 0.24 0.23 0.20 0.20
0.00 0.00 0.00 0.00 0.00 0.00 0.00 0.00 0.00 0.00 0.00 0.00 0.01 0.03 0.03 0.03 0.06 0.09 0.14 0.21 0.30 0.36 0.39 0.42 0.45 0.43 0.39 0.37 0.36 0.37 0.38 0.37 0.32 0.27 0.20 0.20 0.25 0.34 0.42 0.44 0.46 0.48 0.43 0.36 0.35 0.31 0.27 0.25 0.26 0.26 0.26 0.27 0.25 0.25
0.01 0.00 0.00 0.01 0.00 0.00 0.00 0.01 0.01 0.01 0.00 0.00 0.00 0.00 0.01 0.03 0.06 0.09 0.14 0.19 0.26 0.32 0.37 0.42 0.44 0.44 0.42 0.40 0.41 0.42 0.43 0.43 0.41 0.31 0.24 0.21 0.23 0.31 0.40 0.44 0.46 0.47 0.47 0.43 0.41 0.45 0.44 0.43 0.42 0.40 0.35 0.32 0.30 0.28
0.02 0.01 0.00 0.00 0.00 0.01 0.02 0.03 0.02 0.01 0.00 0.00 0.00 0.00 0.01 0.02 0.04 0.07 0.11 0.16 0.22 0.28 0.33 0.36 0.39 0.43 0.42 0.44 0.43 0.42 0.40 0.41 0.42 0.43 0.39 0.38 0.40 0.40 0.43 0.46 0.46 0.46 0.47 0.45 0.41 0.35 0.32 0.28 0.22 0.19 0.22 0.24 0.24 0.22
0.05 0.02 0.01 0.01 0.01 0.02 0.03 0.02 0.02 0.01 0.02 0.01 0.01 0.01 0.01 0.02 0.03 0.04 0.07 0.10 0.15 0.20 0.26 0.29 0.29 0.31 0.33 0.34 0.36 0.39 0.40 0.39 0.38 0.39 0.39 0.36 0.35 0.38 0.40 0.42 0.44 0.43 0.45 0.46 0.43 0.39 0.36 0.34 0.36 0.36 0.33 0.34 0.32 0.28
0.08 0.08 0.06 0.03 0.02 0.02 0.02 0.02 0.02 0.01 0.01 0.01 0.01 0.02 0.02 0.02 0.03 0.03 0.03 0.07 0.10 0.15 0.19 0.23 0.26 0.28 0.30 0.31 0.34 0.36 0.39 0.44 0.46 0.49 0.52 0.50 0.44 0.40 0.38 0.37 0.38 0.40 0.39 0.40 0.43 0.45 0.48 0.46 0.43 0.41 0.38 0.37 0.36 0.34

GFSWCAN_prec_precacc_051.txt.gz
Total_Precipitation_Accumulation
0.31 0.26 0.30 0.32 0.31 0.29 0.26 0.27 0.32 0.30 0.24 0.20 0.19 0.24 0.27 0.27 0.51 0.40 0.35 0.38 0.32 0.19 0.08 0.02 0.02 0.04 0.18 0.42 0.58 0.51 0.60 0.36 0.36 0.46 0.30 0.12 0.03 0.01 0.00 0.01 0.00 0.02 0.03 0.05 0.08 0.09 0.01 0.00 0.00 0.00 0.00 0.00 0.00 0.05
0.32 0.32 0.33 0.35 0.33 0.28 0.29 0.28 0.31 0.28 0.23 0.22 0.17 0.19 0.23 0.20 0.39 0.48 0.33 0.32 0.33 0.24 0.11 0.03 0.01 0.01 0.05 0.27 0.56 0.55 0.49 0.28 0.21 0.20 0.11 0.07 0.04 0.01 0.00 0.01 0.00 0.00 0.00 0.01 0.00 0.00 0.00 0.00 0.00 0.00 0.00 0.00 0.00 0.00
0.32 0.36 0.32 0.32 0.30 0.28 0.25 0.26 0.32 0.27 0.23 0.21 0.19 0.17 0.18 0.19 0.27 0.44 0.30 0.26 0.31 0.24 0.10 0.03 0.02 0.02 0.00 0.08 0.44 0.70 0.45 0.38 0.23 0.11 0.15 0.05 0.06 0.02 0.01 0.00 0.00 0.00 0.00 0.00 0.00 0.00 0.00 0.00 0.00 0.00 0.00 0.00 0.00 0.00
0.28 0.32 0.27 0.25 0.27 0.22 0.21 0.25 0.24 0.23 0.17 0.17 0.19 0.15 0.13 0.18 0.25 0.31 0.23 0.17 0.31 0.29 0.12 0.10 0.02 0.02 0.03 0.05 0.34 0.67 0.69 0.50 0.46 0.29 0.26 0.18 0.05 0.02 0.01 0.00 0.00 0.00 0.00 0.00 0.00 0.00 0.00 0.00 0.00 0.00 0.00 0.00 0.00 0.00
0.26 0.27 0.24 0.21 0.19 0.19 0.19 0.18 0.17 0.17 0.13 0.15 0.16 0.15 0.16 0.24 0.33 0.19 0.10 0.15 0.24 0.46 0.34 0.21 0.03 0.00 0.01 0.01 0.25 0.62 0.86 0.82 0.66 0.59 0.29 0.14 0.04 0.01 0.00 0.00 0.00 0.00 0.00 0.00 0.00 0.00 0.00 0.00 0.00 0.00 0.00 0.00 0.00 0.00
0.26 0.24 0.21 0.19 0.16 0.21 0.17 0.13 0.13 0.14 0.11 0.13 0.17 0.21 0.19 0.27 0.47 0.35 0.34 0.27 0.30 0.30 0.34 0.19 0.04 0.00 0.00 0.01 0.10 0.41 0.57 0.59 0.51 0.50 0.29 0.10 0.03 0.06 0.04 0.01 0.00 0.00 0.00 0.00 0.00 0.00 0.00 0.00 0.00 0.00 0.00 0.00 0.00 0.00
0.30 0.27 0.22 0.22 0.22 0.24 0.20 0.12 0.12 0.19 0.18 0.18 0.23 0.23 0.20 0.31 0.36 0.45 0.31 0.36 0.35 0.22 0.25 0.10 0.03 0.01 0.00 0.00 0.02 0.21 0.51 0.61 0.48 0.38 0.21 0.12 0.08 0.11 0.06 0.00 0.00 0.00 0.00 0.00 0.00 0.00 0.00 0.00 0.00 0.00 0.00 0.00 0.00 0.00
0.66 0.73 0.71 0.46 0.39 0.37 0.36 0.19 0.19 0.27 0.33 0.22 0.26 0.30 0.30 0.40 0.36 0.32 0.11 0.14 0.23 0.34 0.18 0.10 0.01 0.02 0.01 0.04 0.09 0.16 0.53 0.66 0.56 0.37 0.15 0.08 0.05 0.11 0.08 0.01 0.00 0.00 0.00 0.00 0.00 0.00 0.00 0.00 0.00 0.00 0.00 0.00 0.00 0.01
0.71 0.73 0.92 1.10 0.96 0.77 0.64 0.45 0.33 0.35 0.42 0.40 0.41 0.47 0.49 0.38 0.22 0.19 0.41 0.35 0.16 0.58 0.56 0.10 0.00 0.01 0.01 0.06 0.09 0.08 0.23 0.50 0.47 0.35 0.22 0.21 0.14 0.10 0.02 0.00 0.00 0.00 0.00 0.00 0.00 0.00 0.00 0.00 0.00 0.00 0.00 0.00 0.00 0.00
0.60 0.64 0.68 0.83 1.08 1.26 1.23 0.93 0.71 0.52 0.54 0.71 0.73 0.75 0.58 0.35 0.38 0.52 0.87 0.61 0.53 0.31 0.31 0.22 0.05 0.01 0.00 0.01 0.03 0.03 0.05 0.25 0.30 0.30 0.31 0.23 0.16 0.12 0.02 0.00 0.00 0.00 0.00 0.00 0.00 0.00 0.00 0.00 0.00 0.00 0.00 0.00 0.00 0.00
0.34 0.54 0.68 0.75 0.94 1.17 1.52 1.57 1.46 1.22 1.12 1.16 1.16 0.69 0.60 0.64 0.75 0.70 0.75 0.42 0.51 0.22 0.07 0.05 0.06 0.06 0.01 0.00 0.01 0.00 0.01 0.03 0.10 0.17 0.19 0.24 0.18 0.05 0.00 0.00 0.00 0.00 0.00 0.00 0.00 0.00 0.00 0.00 0.00 0.00 0.00 0.00 0.00 0.00
0.22 0.31 0.56 0.76 0.89 1.39 1.61 2.06 2.56 2.68 2.06 1.19 0.76 0.94 1.10 0.81 0.78 0.58 0.44 0.19 0.07 0.03 0.00 0.01 0.01 0.03 0.09 0.06 0.02 0.00 0.00 0.00 0.01 0.06 0.15 0.10 0.04 0.00 0.00 0.00 0.00 0.00 0.00 0.00 0.00 0.00 0.00 0.00 0.01 0.01 0.00 0.00 0.00 0.00
0.18 0.27 0.42 0.66 0.86 1.16 1.70 1.99 2.70 2.76 1.67 1.15 1.26 1.80 1.09 0.74 0.49 0.13 0.13 0.04 0.00 0.00 0.00 0.01 0.00 0.00 0.02 0.11 0.09 0.02 0.00 0.00 0.00 0.01 0.06 0.11 0.01 0.00 0.00 0.00 0.00 0.00 0.03 0.01 0.01 0.00 0.00 0.01 0.04 0.06 0.03 0.01 0.00 0.00
0.15 0.25 0.37 0.51 0.85 1.07 1.73 2.43 3.10 2.96 2.38 1.93 1.80 1.55 0.61 0.40 0.07 0.08 0.04 0.00 0.00 0.00 0.00 0.01 0.01 0.00 0.00 0.00 0.04 0.01 0.01 0.00 0.01 0.00 0.00 0.00 0.00 0.00 0.00 0.00 0.00 0.00 0.00 0.01 0.05 0.04 0.02 0.04 0.12 0.09 0.08 0.07 0.03 0.01
0.15 0.21 0.27 0.41 0.69 1.18 1.97 2.89 3.14 2.36 2.01 1.67 1.00 0.61 0.26 0.08 0.03 0.03 0.02 0.00 0.00 0.00 0.00 0.00 0.00 0.00 0.00 0.00 0.00 0.01 0.02 0.01 0.00 0.00 0.00 0.00 0.00 0.00 0.00 0.00 0.00 0.00 0.00 0.00 0.00 0.01 0.01 0.01 0.01 0.01 0.01 0.01 0.01 0.01
0.17 0.21 0.28 0.37 0.47 0.84 1.58 1.89 2.05 1.60 1.89 1.53 0.76 0.35 0.09 0.01 0.01 0.01 0.01 0.00 0.00 0.00 0.00 0.00 0.00 0.00 0.00 0.00 0.01 0.00 0.00 0.00 0.00 0.00 0.00 0.00 0.00 0.00 0.00 0.00 0.00 0.00 0.00 0.00 0.00 0.00 0.00 0.00 0.00 0.01 0.02 0.02 0.02 0.02
0.14 0.13 0.27 0.25 0.28 0.53 1.18 1.72 1.50 1.68 1.94 1.45 0.45 0.05 0.02 0.00 0.00 0.02 0.01 0.00 0.00 0.00 0.00 0.05 0.09 0.02 0.01 0.01 0.00 0.00 0.00 0.00 0.00 0.00 0.00 0.00 0.00 0.00 0.00 0.00 0.00 0.00 0.00 0.00 0.00 0.00 0.00 0.00 0.00 0.00 0.00 0.00 0.00 0.01
0.07 0.08 0.18 0.15 0.20 0.47 0.83 1.30 1.75 1.74 1.47 0.73 0.12 0.03 0.01 0.00 0.00 0.01 0.02 0.03 0.03 0.05 0.08 0.18 0.10 0.09 0.02 0.00 0.00 0.00 0.00 0.00 0.00 0.00 0.00 0.00 0.00 0.00 0.00 0.00 0.00 0.00 0.00 0.00 0.00 0.00 0.00 0.00 0.00 0.00 0.00 0.00 0.00 0.00
0.07 0.11 0.13 0.11 0.21 0.44 0.69 0.96 1.21 1.07 0.68 0.26 0.06 0.04 0.03 0.02 0.01 0.01 0.03 0.05 0.06 0.08 0.18 0.25 0.17 0.07 0.00 0.00 0.00 0.00 0.00 0.00 0.00 0.00 0.00 0.00 0.00 0.00 0.00 0.00 0.00 0.00 0.00 0.00 0.00 0.00 0.00 0.00 0.00 0.00 0.00 0.00 0.00 0.00
0.18 0.25 0.15 0.09 0.19 0.36 0.50 0.72 0.75 0.62 0.42 0.29 0.16 0.12 0.09 0.06 0.06 0.05 0.04 0.07 0.11 0.21 0.31 0.26 0.08 0.03 0.01 0.01 0.02 0.02 0.00 0.00 0.00 0.00 0.00 0.00 0.00 0.00 0.00 0.00 0.00 0.00 0.00 0.00 0.00 0.00 0.00 0.00 0.00 0.00 0.00 0.00 0.00 0.00
0.12 0.11 0.08 0.05 0.20 0.32 0.44 0.37 0.56 0.51 0.41 0.37 0.45 0.30 0.28 0.24 0.20 0.23 0.37 0.34 0.48 0.56 0.27 0.11 0.04 0.02 0.03 0.04 0.04 0.03 0.01 0.01 0.00 0.00 0.00 0.00 0.00 0.00 0.00 0.00 0.00 0.00 0.00 0.00 0.00 0.00 0.00 0.00 0.00 0.00 0.00 0.00 0.00 0.00
0.05 0.08 0.07 0.08 0.23 0.23 0.25 0.32 0.41 0.40 0.31 0.40 0.55 0.53 0.51 0.50 0.52 0.56 0.61 0.82 0.82 0.38 0.13 0.06 0.09 0.07 0.04 0.04 0.06 0.06 0.05 0.03 0.01 0.00 0.00 0.00 0.00 0.00 0.00 0.00 0.00 0.00 0.00 0.00 0.00 0.00 0.00 0.00 0.00 0.00 0.00 0.00 0.00 0.00
0.03 0.02 0.07 0.11 0.15 0.12 0.20 0.24 0.26 0.34 0.35 0.43 0.48 0.48 0.58 0.57 0.68 0.81 0.95 0.78 0.45 0.26 0.18 0.16 0.14 0.14 0.12 0.08 0.06 0.04 0.05 0.06 0.04 0.02 0.01 0.00 0.00 0.00 0.00 0.00 0.00 0.00 0.00 0.00 0.00 0.00 0.00 0.00 0.00 0.00 0.00 0.00 0.00 0.00
0.04 0.05 0.03 0.06 0.10 0.13 0.14 0.20 0.16 0.21 0.26 0.30 0.38 0.39 0.38 0.53 0.64 0.64 0.50 0.26 0.25 0.27 0.25 0.25 0.20 0.13 0.12 0.14 0.16 0.13 0.09 0.07 0.05 0.06 0.08 0.07 0.04 0.02 0.01 0.01 0.00 0.00 0.00 0.00 0.00 0.00 0.00 0.00 0.00 0.00 0.00 0.00 0.00 0.00
0.21 0.11 0.04 0.03 0.01 0.02 0.04 0.12 0.14 0.12 0.19 0.26 0.32 0.36 0.37 0.45 0.55 0.41 0.24 0.20 0.33 0.40 0.34 0.26 0.19 0.16 0.14 0.12 0.12 0.15 0.16 0.16 0.13 0.09 0.10 0.13 0.11 0.10 0.10 0.06 0.03 0.01 0.00 0.00 0.00 0.00 0.00 0.00 0.00 0.00 0.00 0.00 0.00 0.03
0.16 0.04 0.02 0.00 0.00 0.00 0.00 0.06 0.12 0.16 0.20 0.24 0.28 0.29 0.33 0.36 0.32 0.31 0.18 0.21 0.34 0.45 0.47 0.37 0.27 0.20 0.17 0.17 0.18 0.22 0.21 0.20 0.18 0.15 0.21 0.27 0.20 0.15 0.11 0.10 0.09 0.07 0.04 0.03 0.04 0.03 0.04 0.04 0.03 0.03 0.03 0.03 0.07 0.17
0.07 0.02 0.01 0.00 0.00 0.00 0.00 0.00 0.01 0.04 0.09 0.14 0.16 0.18 0.20 0.22 0.25 0.14 0.13 0.22 0.33 0.40 0.45 0.47 0.38 0.26 0.22 0.22 0.23 0.25 0.28 0.32 0.28 0.21 0.24 0.33 0.34 0.29 0.20 0.14 0.08 0.06 0.10 0.15 0.13 0.11 0.10 0.11 0.11 0.12 0.15 0.17 0.17 0.18
0.01 0.00 0.00 0.00 0.00 0.00 0.00 0.00 0.00 0.00 0.00 0.03 0.10 0.09 0.10 0.11 0.08 0.08 0.13 0.22 0.33 0.38 0.44 0.48 0.46 0.34 0.29 0.27 0.28 0.30 0.34 0.38 0.39 0.33 0.31 0.35 0.39 0.40 0.38 0.31 0.29 0.29 0.27 0.24 0.26 0.27 0.25 0.23 0.22 0.22 0.24 0.23 0.20 0.21
0.01 0.00 0.00 0.00 0.00 0.00 0.00 0.00 0.00 0.00 0.00 0.00 0.01 0.03 0.03 0.03 0.06 0.09 0.14 0.21 0.30 0.36 0.39 0.42 0.45 0.43 0.39 0.37 0.36 0.37 0.38 0.37 0.32 0.27 0.20 0.20 0.25 0.34 0.42 0.44 0.46 0.48 0.43 0.36 0.35 0.32 0.27 0.25 0.26 0.27 0.27 0.27 0.26 0.26
0.01 0.00 0.00 0.01 0.00 0.00 0.00 0.01 0.01 0.01 0.00 0.00 0.00 0.00 0.01 0.03 0.06 0.09 0.14 0.19 0.26 0.32 0.37 0.42 0.44 0.44 0.42 0.40 0.41 0.42 0.43 0.43 0.41 0.31 0.24 0.21 0.23 0.31 0.40 0.44 0.46 0.47 0.47 0.43 0.41 0.45 0.44 0.43 0.42 0.41 0.36 0.34 0.32 0.30
0.02 0.01 0.00 0.00 0.00 0.01 0.02 0.03 0.02 0.01 0.00 0.00 0.00 0.00 0.01 0.02 0.04 0.07 0.11 0.16 0.22 0.28 0.33 0.36 0.39 0.43 0.42 0.44 0.43 0.42 0.40 0.41 0.42 0.43 0.39 0.38 0.40 0.40 0.43 0.46 0.46 0.46 0.47 0.46 0.41 0.36 0.32 0.28 0.23 0.20 0.23 0.25 0.25 0.24
0.05 0.02 0.01 0.01 0.01 0.02 0.03 0.02 0.02 0.01 0.02 0.01 0.01 0.01 0.01 0.02 0.03 0.04 0.07 0.10 0.15 0.20 0.26 0.29 0.29 0.31 0.33 0.34 0.36 0.39 0.40 0.39 0.38 0.39 0.39 0.37 0.36 0.38 0.40 0.42 0.45 0.44 0.46 0.47 0.43 0.39 0.36 0.35 0.37 0.36 0.34 0.36 0.35 0.31
0.08 0.08 0.06 0.03 0.02 0.02 0.02 0.02 0.02 0.01 0.01 0.01 0.01 0.02 0.02 0.02 0.03 0.03 0.03 0.07 0.10 0.15 0.19 0.23 0.26 0.28 0.30 0.31 0.34 0.36 0.39 0.44 0.47 0.50 0.53 0.50 0.45 0.41 0.39 0.39 0.40 0.41 0.40 0.41 0.43 0.46 0.49 0.47 0.44 0.42 0.40 0.39 0.38 0.36

GFSWCAN_prec_precacc_054.txt.gz
Total_Precipitation_Accumulation
0.31 0.26 0.30 0.32 0.31 0.29 0.26 0.27 0.32 0.31 0.24 0.20 0.19 0.24 0.27 0.27 0.51 0.40 0.35 0.38 0.32 0.20 0.08 0.02 0.02 0.04 0.18 0.42 0.58 0.51 0.60 0.36 0.36 0.46 0.30 0.12 0.03 0.01 0.00 0.01 0.00 0.02 0.03 0.05 0.08 0.09 0.01 0.00 0.00 0.00 0.00 0.00 0.00 0.05
0.33 0.32 0.33 0.35 0.33 0.28 0.29 0.28 0.31 0.28 0.24 0.22 0.17 0.20 0.23 0.20 0.40 0.48 0.33 0.33 0.33 0.25 0.11 0.03 0.01 0.01 0.05 0.27 0.56 0.55 0.49 0.28 0.21 0.20 0.11 0.07 0.04 0.01 0.00 0.01 0.00 0.00 0.00 0.01 0.00 0.00 0.00 0.00 0.00 0.00 0.00 0.00 0.00 0.00
0.33 0.36 0.32 0.32 0.30 0.28 0.25 0.26 0.32 0.27 0.23 0.22 0.19 0.17 0.19 0.20 0.28 0.45 0.30 0.26 0.31 0.26 0.10 0.03 0.02 0.03 0.00 0.08 0.44 0.70 0.45 0.38 0.23 0.11 0.15 0.05 0.06 0.02 0.01 0.00 0.00 0.00 0.00 0.00 0.00 0.00 0.00 0.00 0.00 0.00 0.00 0.00 0.00 0.00
0.29 0.32 0.27 0.26 0.27 0.22 0.21 0.25 0.24 0.23 0.18 0.17 0.19 0.16 0.14 0.18 0.27 0.34 0.23 0.17 0.32 0.35 0.17 0.10 0.02 0.06 0.04 0.05 0.34 0.67 0.69 0.50 0.46 0.29 0.26 0.18 0.05 0.02 0.01 0.00 0.00 0.00 0.00 0.00 0.00 0.00 0.00 0.00 0.00 0.00 0.00 0.00 0.00 0.00
0.27 0.27 0.25 0.22 0.19 0.19 0.20 0.18 0.18 0.18 0.14 0.15 0.17 0.16 0.16 0.24 0.36 0.22 0.12 0.16 0.24 0.54 0.44 0.28 0.06 0.01 0.02 0.01 0.25 0.62 0.86 0.82 0.66 0.59 0.29 0.14 0.04 0.01 0.00 0.00 0.00 0.00 0.00 0.00 0.00 0.00 0.00 0.00 0.00 0.00 0.00 0.00 0.00 0.00
0.27 0.25 0.23 0.20 0.17 0.21 0.18 0.13 0.13 0.14 0.12 0.13 0.18 0.22 0.19 0.30 0.51 0.36 0.34 0.27 0.30 0.39 0.54 0.41 0.12 0.02 0.01 0.01 0.10 0.41 0.57 0.59 0.51 0.50 0.30 0.11 0.03 0.07 0.05 0.01 0.00 0.00 0.00 0.00 0.00 0.00 0.00 0.00 0.00 0.00 0.00 0.00 0.00 0.00
0.31 0.29 0.23 0.22 0.22 0.24 0.21 0.12 0.12 0.20 0.19 0.18 0.23 0.23 0.21 0.33 0.37 0.45 0.32 0.43 0.41 0.35 0.42 0.32 0.11 0.05 0.00 0.00 0.02 0.21 0.51 0.61 0.49 0.41 0.23 0.13 0.08 0.14 0.10 0.01 0.00 0.00 0.00 0.00 0.00 0.00 0.00 0.00 0.00 0.00 0.00 0.00 0.00 0.00
0.68 0.75 0.72 0.46 0.39 0.37 0.36 0.19 0.20 0.28 0.33 0.22 0.26 0.30 0.31 0.40 0.36 0.32 0.12 0.20 0.33 0.46 0.28 0.15 0.02 0.03 0.01 0.04 0.09 0.16 0.54 0.68 0.59 0.41 0.18 0.09 0.07 0.15 0.11 0.01 0.00 0.00 0.00 0.00 0.00 0.00 0.00 0.00 0.00 0.00 0.00 0.00 0.00 0.01
0.74 0.76 0.93 1.11 0.96 0.77 0.64 0.45 0.34 0.36 0.42 0.40 0.41 0.47 0.50 0.38 0.22 0.21 0.47 0.43 0.25 0.64 0.60 0.10 0.00 0.02 0.02 0.07 0.09 0.11 0.27 0.54 0.50 0.38 0.25 0.27 0.17 0.11 0.02 0.00 0.00 0.00 0.00 0.00 0.00 0.00 0.00 0.00 0.00 0.00 0.00 0.00 0.00 0.00
0.63 0.66 0.68 0.83 1.08 1.26 1.23 0.94 0.71 0.53 0.54 0.71 0.73 0.76 0.59 0.36 0.42 0.58 0.95 0.67 0.58 0.35 0.32 0.23 0.05 0.03 0.03 0.04 0.05 0.05 0.09 0.32 0.35 0.32 0.37 0.29 0.18 0.12 0.02 0.00 0.00 0.00 0.00 0.00 0.00 0.00 0.00 0.00 0.00 0.00 0.00 0.00 0.00 0.00
0.36 0.54 0.68 0.75 0.94 1.17 1.53 1.59 1.46 1.22 1.12 1.16 1.16 0.70 0.62 0.66 0.78 0.75 0.78 0.44 0.52 0.22 0.07 0.05 0.06 0.06 0.01 0.00 0.02 0.01 0.03 0.04 0.11 0.19 0.24 0.27 0.19 0.06 0.00 0.00 0.00 0.00 0.00 0.00 0.00 0.00 0.00 0.00 0.00 0.00 0.00 0.00 0.00 0.00
0.23 0.31 0.56 0.76 0.89 1.39 1.63 2.08 2.56 2.68 2.06 1.19 0.76 0.95 1.11 0.82 0.81 0.60 0.46 0.19 0.07 0.03 0.00 0.01 0.01 0.03 0.09 0.06 0.02 0.00 0.00 0.00 0.02 0.07 0.17 0.10 0.04 0.00 0.00 0.00 0.00 0.00 0.00 0.00 0.00 0.00 0.00 0.00 0.01 0.01 0.00 0.00 0.00 0.00
0.20 0.27 0.42 0.66 0.86 1.16 1.72 2.01 2.70 2.76 1.67 1.15 1.26 1.83 1.11 0.76 0.52 0.14 0.14 0.05 0.00 0.00 0.00 0.01 0.01 0.00 0.02 0.11 0.09 0.02 0.01 0.00 0.00 0.02 0.06 0.11 0.01 0.00 0.00 0.00 0.00 0.00 0.12 0.11 0.04 0.01 0.00 0.01 0.04 0.06 0.03 0.01 0.00 0.00
0.15 0.26 0.38 0.52 0.88 1.09 1.76 2.45 3.10 2.96 2.38 1.93 1.81 1.59 0.62 0.42 0.07 0.08 0.04 0.00 0.00 0.00 0.00 0.01 0.01 0.00 0.00 0.00 0.04 0.01 0.01 0.00 0.01 0.00 0.00 0.00 0.00 0.00 0.00 0.00 0.00 0.00 0.01 0.02 0.09 0.09 0.06 0.07 0.16 0.11 0.09 0.08 0.04 0.02
0.15 0.21 0.29 0.44 0.74 1.25 1.99 2.89 3.14 2.36 2.01 1.67 1.01 0.62 0.27 0.08 0.03 0.03 0.02 0.00 0.00 0.00 0.00 0.00 0.00 0.00 0.00 0.01 0.01 0.01 0.03 0.01 0.00 0.00 0.00 0.00 0.00 0.00 0.00 0.00 0.00 0.00 0.00 0.00 0.00 0.02 0.03 0.06 0.10 0.09 0.04 0.05 0.05 0.05
0.20 0.23 0.31 0.41 0.51 0.88 1.60 1.89 2.05 1.60 1.89 1.53 0.76 0.35 0.09 0.01 0.01 0.01 0.01 0.00 0.00 0.00 0.00 0.00 0.01 0.00 0.00 0.00 0.02 0.00 0.00 0.00 0.00 0.00 0.00 0.00 0.00 0.00 0.00 0.00 0.00 0.00 0.00 0.00 0.00 0.00 0.00 0.00 0.00 0.02 0.06 0.08 0.09 0.08
0.16 0.14 0.30 0.29 0.31 0.58 1.20 1.74 1.52 1.69 1.94 1.45 0.45 0.05 0.02 0.00 0.00 0.02 0.01 0.00 0.00 0.02 0.01 0.05 0.09 0.03 0.01 0.02 0.01 0.00 0.00 0.00 0.00 0.00 0.00 0.00 0.00 0.00 0.00 0.00 0.00 0.00 0.00 0.00 0.00 0.00 0.00 0.00 0.00 0.00 0.00 0.00 0.00 0.01
0.08 0.10 0.23 0.20 0.24 0.50 0.86 1.31 1.77 1.76 1.47 0.73 0.12 0.03 0.01 0.00 0.00 0.01 0.02 0.03 0.03 0.07 0.10 0.21 0.10 0.09 0.03 0.01 0.00 0.00 0.00 0.00 0.00 0.00 0.00 0.00 0.00 0.00 0.00 0.00 0.00 0.00 0.00 0.00 0.00 0.00 0.00 0.00 0.00 0.00 0.00 0.00 0.00 0.00
0.08 0.14 0.17 0.16 0.23 0.47 0.72 0.97 1.22 1.07 0.68 0.26 0.06 0.04 0.03 0.02 0.01 0.01 0.03 0.05 0.06 0.09 0.20 0.28 0.18 0.07 0.00 0.00 0.00 0.00 0.00 0.00 0.00 0.00 0.00 0.00 0.00 0.00 0.00 0.00 0.00 0.00 0.00 0.00 0.00 0.00 0.00 0.00 0.00 0.00 0.00 0.00 0.00 0.00
0.22 0.29 0.20 0.12 0.20 0.38 0.53 0.75 0.76 0.64 0.43 0.29 0.17 0.12 0.09 0.06 0.06 0.05 0.04 0.07 0.11 0.21 0.32 0.26 0.08 0.03 0.01 0.01 0.02 0.02 0.00 0.00 0.00 0.00 0.00 0.00 0.00 0.00 0.00 0.00 0.00 0.00 0.00 0.00 0.00 0.00 0.00 0.00 0.00 0.00 0.00 0.00 0.00 0.00
0.15 0.16 0.13 0.07 0.21 0.33 0.45 0.38 0.58 0.52 0.43 0.39 0.47 0.32 0.29 0.24 0.20 0.23 0.37 0.34 0.48 0.56 0.27 0.11 0.04 0.02 0.03 0.04 0.04 0.03 0.01 0.01 0.00 0.00 0.00 0.00 0.00 0.00 0.00 0.00 0.00 0.00 0.00 0.00 0.00 0.00 0.00 0.00 0.00 0.00 0.00 0.00 0.00 0.00
0.05 0.09 0.07 0.08 0.23 0.23 0.25 0.32 0.41 0.41 0.31 0.41 0.57 0.54 0.52 0.51 0.53 0.56 0.61 0.82 0.82 0.38 0.13 0.06 0.09 0.07 0.04 0.04 0.06 0.06 0.05 0.03 0.01 0.00 0.00 0.00 0.00 0.00 0.00 0.00 0.00 0.00 0.00 0.00 0.00 0.00 0.00 0.00 0.00 0.00 0.00 0.00 0.00 0.00
0.04 0.02 0.07 0.11 0.15 0.12 0.20 0.24 0.26 0.34 0.35 0.43 0.49 0.48 0.58 0.57 0.68 0.81 0.95 0.78 0.45 0.26 0.18 0.16 0.14 0.14 0.12 0.08 0.06 0.04 0.05 0.06 0.04 0.02 0.01 0.00 0.00 0.00 0.00 0.00 0.00 0.00 0.00 0.00 0.00 0.00 0.00 0.00 0.00 0.00 0.00 0.00 0.00 0.00
0.04 0.05 0.03 0.06 0.10 0.13 0.14 0.20 0.16 0.21 0.27 0.30 0.38 0.39 0.38 0.53 0.64 0.64 0.51 0.26 0.25 0.27 0.25 0.25 0.20 0.13 0.12 0.14 0.16 0.13 0.09 0.07 0.05 0.06 0.08 0.07 0.04 0.02 0.01 0.01 0.00 0.00 0.00 0.00 0.00 0.00 0.00 0.00 0.00 0.00 0.00 0.00 0.00 0.00
0.22 0.11 0.04 0.03 0.01 0.02 0.04 0.12 0.14 0.12 0.19 0.26 0.32 0.36 0.37 0.45 0.55 0.42 0.24 0.20 0.33 0.40 0.34 0.26 0.19 0.16 0.14 0.12 0.12 0.15 0.16 0.16 0.13 0.09 0.10 0.13 0.11 0.10 0.10 0.06 0.03 0.01 0.00 0.00 0.00 0.00 0.00 0.00 0.00 0.00 0.00 0.00 0.01 0.03
0.19 0.04 0.02 0.00 0.00 0.00 0.00 0.06 0.12 0.16 0.20 0.24 0.28 0.29 0.33 0.36 0.32 0.31 0.18 0.21 0.34 0.45 0.47 0.37 0.27 0.20 0.17 0.17 0.18 0.22 0.21 0.20 0.18 0.15 0.21 0.27 0.20 0.15 0.11 0.10 0.09 0.07 0.04 0.03 0.04 0.03 0.04 0.04 0.03 0.04 0.03 0.03 0.07 0.17
0.07 0.02 0.01 0.00 0.00 0.00 0.00 0.00 0.01 0.04 0.09 0.14 0.16 0.18 0.20 0.22 0.25 0.14 0.13 0.22 0.33 0.40 0.45 0.47 0.38 0.26 0.22 0.22 0.23 0.25 0.28 0.32 0.28 0.21 0.24 0.33 0.34 0.29 0.20 0.14 0.08 0.06 0.10 0.15 0.13 0.11 0.10 0.11 0.11 0.12 0.15 0.17 0.17 0.18
0.02 0.00 0.00 0.00 0.00 0.00 0.00 0.00 0.00 0.00 0.00 0.03 0.10 0.09 0.10 0.11 0.08 0.08 0.13 0.22 0.33 0.38 0.44 0.48 0.46 0.34 0.29 0.27 0.28 0.30 0.34 0.38 0.39 0.33 0.31 0.35 0.39 0.40 0.38 0.31 0.29 0.29 0.27 0.24 0.26 0.27 0.25 0.23 0.22 0.23 0.24 0.23 0.20 0.21
0.01 0.00 0.00 0.00 0.00 0.00 0.00 0.00 0.00 0.00 0.00 0.00 0.01 0.03 0.03 0.03 0.06 0.09 0.14 0.21 0.30 0.36 0.39 0.42 0.45 0.43 0.39 0.37 0.36 0.37 0.38 0.37 0.32 0.27 0.20 0.20 0.25 0.34 0.42 0.44 0.46 0.48 0.43 0.36 0.35 0.32 0.27 0.26 0.27 0.28 0.28 0.28 0.26 0.26
0.01 0.00 0.00 0.01 0.00 0.00 0.00 0.01 0.01 0.01 0.00 0.00 0.00 0.00 0.01 0.03 0.06 0.09 0.14 0.19 0.26 0.32 0.37 0.42 0.44 0.44 0.42 0.40 0.41 0.42 0.43 0.43 0.41 0.31 0.24 0.21 0.23 0.31 0.40 0.44 0.46 0.47 0.47 0.43 0.41 0.45 0.44 0.43 0.43 0.41 0.37 0.34 0.32 0.30
0.02 0.01 0.00 0.00 0.00 0.01 0.02 0.03 0.02 0.01 0.00 0.00 0.00 0.00 0.01 0.02 0.04 0.07 0.11 0.16 0.22 0.28 0.33 0.36 0.39 0.43 0.42 0.44 0.43 0.42 0.40 0.41 0.42 0.43 0.39 0.38 0.40 0.40 0.43 0.46 0.46 0.46 0.48 0.46 0.42 0.36 0.32 0.29 0.23 0.20 0.23 0.25 0.25 0.24
0.05 0.02 0.01 0.01 0.01 0.02 0.03 0.02 0.02 0.01 0.02 0.01 0.01 0.01 0.01 0.02 0.03 0.04 0.07 0.10 0.15 0.20 0.26 0.29 0.29 0.31 0.33 0.34 0.36 0.39 0.40 0.39 0.38 0.39 0.39 0.37 0.36 0.38 0.40 0.43 0.45 0.44 0.47 0.47 0.44 0.40 0.37 0.35 0.37 0.37 0.35 0.36 0.35 0.31
0.08 0.08 0.06 0.04 0.02 0.02 0.02 0.02 0.02 0.01 0.01 0.01 0.01 0.02 0.02 0.02 0.03 0.03 0.03 0.07 0.10 0.15 0.19 0.23 0.26 0.28 0.30 0.31 0.34 0.36 0.39 0.44 0.47 0.50 0.53 0.50 0.45 0.41 0.40 0.40 0.40 0.41 0.41 0.42 0.44 0.47 0.49 0.48 0.44 0.42 0.41 0.40 0.39 0.37

GFSWCAN_prec_precacc_057.txt.gz
Total_Precipitation_Accumulation
0.32 0.27 0.30 0.32 0.31 0.30 0.26 0.27 0.32 0.31 0.24 0.21 0.19 0.24 0.27 0.27 0.51 0.40 0.35 0.38 0.32 0.20 0.08 0.02 0.02 0.04 0.18 0.42 0.58 0.51 0.60 0.36 0.36 0.46 0.30 0.12 0.03 0.01 0.00 0.01 0.00 0.02 0.03 0.05 0.08 0.10 0.01 0.00 0.00 0.00 0.00 0.00 0.00 0.05
0.34 0.33 0.34 0.35 0.33 0.28 0.29 0.28 0.31 0.28 0.24 0.22 0.18 0.20 0.24 0.21 0.40 0.48 0.33 0.33 0.33 0.25 0.11 0.03 0.01 0.01 0.05 0.27 0.56 0.55 0.49 0.28 0.21 0.20 0.11 0.07 0.04 0.01 0.00 0.01 0.00 0.00 0.00 0.01 0.00 0.00 0.00 0.00 0.00 0.00 0.00 0.00 0.00 0.00
0.36 0.38 0.33 0.33 0.31 0.28 0.25 0.26 0.33 0.28 0.23 0.22 0.20 0.18 0.19 0.20 0.28 0.45 0.30 0.26 0.31 0.26 0.10 0.03 0.02 0.03 0.00 0.08 0.44 0.70 0.45 0.38 0.23 0.11 0.15 0.05 0.06 0.02 0.01 0.00 0.00 0.00 0.00 0.00 0.00 0.00 0.00 0.00 0.00 0.00 0.00 0.00 0.00 0.00
0.33 0.35 0.29 0.26 0.27 0.22 0.21 0.25 0.24 0.23 0.18 0.18 0.20 0.16 0.14 0.19 0.28 0.36 0.23 0.17 0.32 0.35 0.17 0.10 0.03 0.06 0.05 0.06 0.35 0.67 0.69 0.50 0.46 0.29 0.26 0.18 0.05 0.02 0.01 0.00 0.00 0.00 0.00 0.00 0.00 0.00 0.00 0.00 0.00 0.00 0.00 0.00 0.00 0.00
0.28 0.29 0.26 0.23 0.20 0.20 0.20 0.18 0.18 0.18 0.14 0.16 0.18 0.16 0.16 0.24 0.37 0.24 0.12 0.16 0.24 0.54 0.46 0.30 0.11 0.01 0.04 0.04 0.27 0.62 0.86 0.82 0.66 0.59 0.29 0.15 0.04 0.01 0.00 0.00 0.00 0.00 0.00 0.00 0.00 0.00 0.00 0.00 0.00 0.00 0.00 0.00 0.00 0.00
0.31 0.29 0.26 0.23 0.18 0.21 0.18 0.13 0.13 0.14 0.12 0.15 0.19 0.22 0.19 0.31 0.54 0.36 0.34 0.27 0.30 0.39 0.58 0.52 0.29 0.06 0.04 0.08 0.11 0.42 0.58 0.59 0.51 0.52 0.31 0.11 0.03 0.08 0.07 0.01 0.00 0.00 0.00 0.00 0.00 0.00 0.00 0.00 0.00 0.00 0.00 0.00 0.00 0.00
0.34 0.31 0.25 0.24 0.23 0.25 0.21 0.12 0.12 0.20 0.20 0.19 0.23 0.24 0.21 0.35 0.38 0.45 0.33 0.45 0.41 0.37 0.55 0.56 0.36 0.13 0.04 0.03 0.03 0.22 0.52 0.62 0.50 0.42 0.23 0.13 0.08 0.16 0.14 0.01 0.00 0.00 0.00 0.00 0.00 0.00 0.00 0.00 0.00 0.00 0.00 0.00 0.00 0.00
0.75 0.82 0.79 0.50 0.41 0.38 0.37 0.19 0.20 0.28 0.34 0.22 0.26 0.30 0.33 0.42 0.36 0.32 0.12 0.21 0.37 0.54 0.46 0.38 0.27 0.14 0.08 0.09 0.11 0.17 0.55 0.69 0.61 0.43 0.19 0.09 0.09 0.19 0.14 0.01 0.00 0.00 0.00 0.00 0.00 0.00 0.00 0.00 0.00 0.00 0.00 0.00 0.00 0.01
0.78 0.80 0.97 1.13 0.98 0.78 0.64 0.45 0.34 0.36 0.42 0.40 0.41 0.48 0.51 0.38 0.22 0.22 0.49 0.47 0.34 0.76 0.70 0.17 0.06 0.12 0.04 0.09 0.10 0.11 0.27 0.55 0.52 0.40 0.26 0.32 0.22 0.13 0.03 0.00 0.00 0.00 0.00 0.00 0.00 0.00 0.00 0.00 0.00 0.00 0.00 0.00 0.00 0.00
0.74 0.74 0.74 0.87 1.10 1.27 1.23 0.94 0.72 0.53 0.54 0.71 0.73 0.77 0.60 0.39 0.46 0.66 1.03 0.74 0.65 0.41 0.37 0.26 0.05 0.07 0.06 0.06 0.07 0.10 0.14 0.35 0.38 0.34 0.40 0.32 0.18 0.12 0.02 0.00 0.00 0.00 0.00 0.00 0.00 0.00 0.00 0.00 0.00 0.00 0.00 0.00 0.00 0.00
0.56 0.69 0.77 0.79 0.96 1.17 1.53 1.59 1.46 1.22 1.12 1.16 1.16 0.71 0.64 0.72 0.84 0.79 0.80 0.47 0.54 0.23 0.08 0.06 0.06 0.07 0.04 0.03 0.09 0.02 0.05 0.08 0.12 0.20 0.28 0.27 0.19 0.06 0.00 0.00 0.00 0.00 0.00 0.00 0.00 0.00 0.00 0.00 0.00 0.00 0.00 0.00 0.00 0.00
0.40 0.44 0.63 0.79 0.90 1.39 1.63 2.08 2.56 2.68 2.06 1.19 0.76 0.96 1.13 0.86 0.84 0.63 0.48 0.20 0.08 0.03 0.00 0.02 0.01 0.03 0.09 0.06 0.02 0.00 0.00 0.00 0.02 0.07 0.18 0.11 0.04 0.00 0.00 0.00 0.00 0.00 0.00 0.00 0.00 0.00 0.00 0.00 0.01 0.01 0.00 0.00 0.00 0.00
0.34 0.38 0.47 0.67 0.86 1.16 1.73 2.02 2.70 2.76 1.67 1.15 1.27 1.88 1.14 0.80 0.55 0.16 0.16 0.05 0.01 0.00 0.00 0.01 0.01 0.00 0.02 0.11 0.09 0.02 0.01 0.01 0.00 0.02 0.07 0.11 0.01 0.00 0.00 0.00 0.00 0.00 0.14 0.20 0.13 0.04 0.01 0.01 0.04 0.06 0.03 0.01 0.00 0.00
0.29 0.35 0.42 0.53 0.88 1.09 1.76 2.46 3.10 2.96 2.38 1.93 1.82 1.62 0.64 0.45 0.08 0.08 0.04 0.00 0.00 0.00 0.00 0.02 0.07 0.01 0.00 0.00 0.04 0.02 0.01 0.01 0.02 0.01 0.00 0.00 0.00 0.00 0.00 0.00 0.00 0.00 0.02 0.02 0.10 0.10 0.10 0.12 0.20 0.14 0.10 0.08 0.04 0.02
0.26 0.28 0.31 0.44 0.76 1.26 2.00 2.89 3.14 2.36 2.01 1.67 1.01 0.62 0.28 0.08 0.03 0.03 0.02 0.00 0.00 0.00 0.00 0.01 0.03 0.00 0.00 0.01 0.01 0.01 0.03 0.01 0.00 0.00 0.00 0.00 0.00 0.00 0.00 0.00 0.00 0.00 0.00 0.00 0.00 0.02 0.03 0.07 0.13 0.14 0.07 0.07 0.06 0.07
0.26 0.28 0.33 0.43 0.53 0.90 1.62 1.89 2.05 1.60 1.89 1.53 0.76 0.35 0.09 0.01 0.01 0.01 0.01 0.00 0.00 0.00 0.01 0.01 0.01 0.01 0.00 0.00 0.02 0.00 0.00 0.00 0.00 0.00 0.00 0.00 0.00 0.00 0.00 0.00 0.00 0.00 0.00 0.00 0.00 0.00 0.00 0.00 0.00 0.02 0.07 0.09 0.11 0.14
0.20 0.15 0.33 0.32 0.33 0.61 1.23 1.74 1.52 1.69 1.94 1.45 0.45 0.05 0.02 0.00 0.00 0.02 0.01 0.00 0.00 0.04 0.05 0.06 0.10 0.03 0.01 0.02 0.01 0.00 0.00 0.00 0.00 0.00 0.00 0.00 0.00 0.00 0.00 0.00 0.00 0.00 0.00 0.00 0.00 0.00 0.00 0.00 0.00 0.00 0.00 0.00 0.00 0.01
0.08 0.11 0.26 0.23 0.26 0.52 0.90 1.31 1.77 1.76 1.47 0.73 0.12 0.03 0.01 0.00 0.00 0.01 0.02 0.03 0.03 0.08 0.13 0.25 0.11 0.09 0.03 0.01 0.00 0.00 0.00 0.00 0.00 0.00 0.00 0.00 0.00 0.00 0.00 0.00 0.00 0.00 0.00 0.00 0.00 0.00 0.00 0.00 0.00 0.00 0.00 0.00 0.00 0.00
0.09 0.16 0.20 0.17 0.24 0.47 0.76 1.00 1.22 1.07 0.68 0.26 0.07 0.04 0.03 0.02 0.01 0.01 0.03 0.05 0.06 0.10 0.23 0.31 0.20 0.08 0.00 0.00 0.00 0.00 0.00 0.00 0.00 0.00 0.00 0.00 0.00 0.00 0.00 0.00 0.00 0.00 0.00 0.00 0.00 0.00 0.00 0.00 0.00 0.00 0.00 0.00 0.00 0.00
0.25 0.33 0.24 0.14 0.20 0.39 0.55 0.77 0.78 0.67 0.44 0.30 0.18 0.12 0.09 0.06 0.06 0.05 0.04 0.07 0.11 0.21 0.33 0.27 0.08 0.03 0.01 0.01 0.02 0.02 0.00 0.00 0.00 0.00 0.00 0.00 0.00 0.00 0.00 0.00 0.00 0.00 0.00 0.00 0.00 0.00 0.00 0.00 0.00 0.00 0.00 0.00 0.00 0.00
0.19 0.21 0.15 0.07 0.21 0.34 0.47 0.41 0.61 0.55 0.47 0.42 0.52 0.36 0.31 0.25 0.20 0.23 0.37 0.34 0.48 0.56 0.27 0.11 0.04 0.02 0.03 0.04 0.04 0.03 0.01 0.01 0.00 0.00 0.00 0.00 0.00 0.00 0.00 0.00 0.00 0.00 0.00 0.00 0.00 0.00 0.00 0.00 0.00 0.00 0.00 0.00 0.00 0.00
0.06 0.10 0.07 0.08 0.23 0.23 0.26 0.33 0.42 0.43 0.34 0.45 0.62 0.59 0.55 0.53 0.54 0.57 0.62 0.82 0.82 0.38 0.13 0.06 0.09 0.07 0.04 0.04 0.06 0.06 0.05 0.03 0.01 0.00 0.00 0.00 0.00 0.00 0.00 0.00 0.00 0.00 0.00 0.00 0.00 0.00 0.00 0.00 0.00 0.00 0.00 0.00 0.00 0.00
0.04 0.02 0.07 0.11 0.15 0.12 0.20 0.24 0.26 0.34 0.35 0.44 0.50 0.51 0.60 0.59 0.69 0.82 0.96 0.78 0.45 0.26 0.18 0.16 0.14 0.14 0.12 0.08 0.06 0.04 0.05 0.06 0.04 0.02 0.01 0.00 0.00 0.00 0.00 0.00 0.00 0.00 0.00 0.00 0.00 0.00 0.00 0.00 0.00 0.00 0.00 0.00 0.00 0.00
0.04 0.05 0.03 0.06 0.10 0.13 0.14 0.20 0.16 0.21 0.27 0.30 0.38 0.39 0.38 0.53 0.65 0.64 0.51 0.26 0.25 0.27 0.25 0.25 0.20 0.13 0.12 0.14 0.16 0.13 0.09 0.07 0.05 0.06 0.08 0.07 0.04 0.02 0.01 0.01 0.00 0.00 0.00 0.00 0.00 0.00 0.00 0.00 0.00 0.00 0.00 0.00 0.00 0.00
0.22 0.11 0.04 0.03 0.01 0.02 0.04 0.12 0.14 0.12 0.19 0.26 0.32 0.36 0.37 0.45 0.55 0.42 0.24 0.20 0.33 0.40 0.34 0.26 0.19 0.16 0.14 0.12 0.12 0.15 0.16 0.16 0.13 0.09 0.10 0.13 0.11 0.10 0.10 0.06 0.03 0.01 0.00 0.00 0.00 0.00 0.00 0.00 0.00 0.00 0.00 0.00 0.01 0.03
0.19 0.04 0.02 0.00 0.00 0.00 0.00 0.06 0.12 0.16 0.20 0.24 0.28 0.29 0.33 0.36 0.32 0.31 0.18 0.21 0.34 0.45 0.47 0.37 0.27 0.20 0.17 0.17 0.18 0.22 0.21 0.20 0.18 0.15 0.21 0.27 0.20 0.15 0.11 0.10 0.09 0.07 0.04 0.03 0.04 0.03 0.04 0.04 0.03 0.04 0.03 0.03 0.07 0.17
0.07 0.02 0.01 0.00 0.00 0.00 0.00 0.00 0.01 0.04 0.09 0.14 0.16 0.18 0.20 0.22 0.25 0.14 0.13 0.22 0.33 0.40 0.45 0.47 0.38 0.26 0.22 0.22 0.23 0.25 0.28 0.32 0.28 0.21 0.24 0.33 0.34 0.29 0.20 0.14 0.08 0.06 0.10 0.15 0.13 0.11 0.10 0.11 0.11 0.12 0.15 0.17 0.17 0.18
0.02 0.00 0.00 0.00 0.00 0.00 0.00 0.00 0.00 0.00 0.00 0.03 0.10 0.09 0.10 0.11 0.08 0.08 0.13 0.22 0.33 0.38 0.44 0.48 0.46 0.34 0.29 0.27 0.28 0.30 0.34 0.38 0.39 0.33 0.31 0.35 0.39 0.40 0.38 0.31 0.29 0.29 0.27 0.24 0.26 0.27 0.25 0.23 0.23 0.23 0.25 0.23 0.20 0.21
0.02 0.00 0.00 0.00 0.00 0.00 0.00 0.00 0.00 0.00 0.00 0.00 0.01 0.03 0.03 0.03 0.06 0.09 0.14 0.21 0.30 0.36 0.39 0.42 0.45 0.43 0.39 0.37 0.36 0.37 0.38 0.37 0.32 0.27 0.20 0.20 0.25 0.34 0.42 0.44 0.46 0.48 0.43 0.36 0.35 0.32 0.27 0.26 0.28 0.29 0.29 0.29 0.26 0.26
0.02 0.00 0.00 0.01 0.00 0.00 0.00 0.01 0.01 0.01 0.00 0.00 0.00 0.00 0.01 0.03 0.06 0.09 0.14 0.19 0.26 0.32 0.37 0.42 0.44 0.44 0.42 0.40 0.41 0.42 0.43 0.43 0.41 0.31 0.24 0.21 0.23 0.31 0.40 0.44 0.46 0.47 0.47 0.43 0.41 0.45 0.44 0.44 0.43 0.41 0.37 0.35 0.33 0.31
0.02 0.01 0.00 0.00 0.00 0.01 0.02 0.03 0.02 0.01 0.00 0.00 0.00 0.00 0.01 0.02 0.04 0.07 0.11 0.16 0.22 0.28 0.33 0.36 0.39 0.43 0.42 0.44 0.43 0.42 0.40 0.41 0.42 0.43 0.39 0.38 0.40 0.40 0.43 0.46 0.46 0.46 0.48 0.46 0.42 0.36 0.32 0.29 0.23 0.21 0.23 0.25 0.25 0.25
0.05 0.02 0.01 0.01 0.01 0.02 0.03 0.02 0.02 0.01 0.02 0.01 0.01 0.01 0.01 0.02 0.03 0.04 0.07 0.10 0.15 0.20 0.26 0.29 0.29 0.31 0.33 0.34 0.36 0.39 0.40 0.39 0.38 0.39 0.39 0.37 0.36 0.38 0.40 0.43 0.45 0.44 0.47 0.48 0.44 0.40 0.37 0.36 0.38 0.37 0.35 0.36 0.35 0.31
0.08 0.08 0.06 0.04 0.02 0.02 0.02 0.02 0.02 0.01 0.01 0.01 0.01 0.02 0.02 0.02 0.03 0.03 0.03 0.07 0.10 0.15 0.19 0.23 0.26 0.28 0.30 0.31 0.34 0.36 0.39 0.44 0.47 0.50 0.53 0.50 0.45 0.41 0.40 0.41 0.41 0.42 0.41 0.42 0.45 0.47 0.50 0.48 0.45 0.43 0.41 0.40 0.39 0.38

GFSWCAN_prec_precacc_060.txt.gz
Total_Precipitation_Accumulation
0.34 0.30 0.32 0.33 0.31 0.30 0.26 0.27 0.32 0.31 0.24 0.21 0.20 0.25 0.27 0.27 0.51 0.40 0.35 0.38 0.33 0.20 0.08 0.02 0.02 0.04 0.18 0.42 0.58 0.51 0.60 0.36 0.36 0.46 0.30 0.12 0.03 0.01 0.00 0.01 0.00 0.02 0.04 0.06 0.09 0.10 0.01 0.00 0.00 0.00 0.00 0.00 0.00 0.05
0.36 0.34 0.34 0.36 0.33 0.28 0.29 0.28 0.31 0.28 0.24 0.22 0.18 0.21 0.24 0.21 0.40 0.49 0.33 0.33 0.33 0.25 0.11 0.03 0.01 0.01 0.05 0.27 0.56 0.55 0.49 0.28 0.21 0.20 0.11 0.07 0.04 0.01 0.00 0.01 0.00 0.00 0.00 0.01 0.00 0.00 0.00 0.00 0.00 0.00 0.00 0.00 0.00 0.00
0.37 0.41 0.36 0.34 0.32 0.30 0.26 0.26 0.33 0.28 0.24 0.22 0.20 0.19 0.20 0.21 0.29 0.46 0.30 0.26 0.32 0.26 0.10 0.03 0.02 0.03 0.00 0.08 0.44 0.70 0.45 0.38 0.23 0.11 0.15 0.05 0.06 0.02 0.01 0.00 0.00 0.00 0.00 0.00 0.00 0.00 0.00 0.00 0.00 0.00 0.00 0.00 0.00 0.00
0.34 0.37 0.31 0.28 0.28 0.22 0.21 0.26 0.25 0.24 0.18 0.19 0.21 0.17 0.15 0.19 0.28 0.37 0.24 0.17 0.32 0.36 0.18 0.10 0.03 0.06 0.05 0.06 0.35 0.67 0.69 0.50 0.46 0.29 0.26 0.19 0.06 0.02 0.01 0.00 0.00 0.00 0.00 0.00 0.00 0.00 0.00 0.00 0.00 0.00 0.00 0.00 0.00 0.00
0.30 0.30 0.28 0.24 0.21 0.20 0.21 0.19 0.19 0.19 0.15 0.16 0.18 0.17 0.17 0.24 0.37 0.25 0.12 0.16 0.24 0.55 0.47 0.30 0.11 0.01 0.04 0.05 0.28 0.65 0.86 0.82 0.66 0.61 0.30 0.15 0.05 0.01 0.00 0.00 0.00 0.00 0.00 0.00 0.00 0.00 0.00 0.00 0.00 0.00 0.00 0.00 0.00 0.00
0.33 0.31 0.28 0.25 0.20 0.23 0.19 0.15 0.14 0.15 0.12 0.15 0.19 0.23 0.20 0.31 0.55 0.37 0.34 0.27 0.30 0.39 0.59 0.53 0.29 0.08 0.06 0.12 0.15 0.46 0.60 0.61 0.53 0.55 0.33 0.12 0.03 0.08 0.07 0.01 0.00 0.00 0.00 0.00 0.00 0.00 0.00 0.00 0.00 0.00 0.00 0.00 0.00 0.00
0.36 0.34 0.28 0.27 0.25 0.26 0.23 0.14 0.13 0.20 0.20 0.19 0.24 0.24 0.21 0.36 0.39 0.45 0.33 0.45 0.42 0.37 0.56 0.66 0.51 0.18 0.10 0.38 0.13 0.31 0.57 0.63 0.52 0.45 0.25 0.13 0.09 0.16 0.15 0.01 0.00 0.00 0.00 0.00 0.00 0.00 0.00 0.00 0.00 0.00 0.00 0.00 0.00 0.00
0.77 0.86 0.82 0.53 0.43 0.40 0.40 0.21 0.20 0.28 0.34 0.23 0.26 0.30 0.34 0.44 0.36 0.33 0.12 0.21 0.37 0.55 0.49 0.51 0.49 0.25 0.27 0.49 0.23 0.23 0.60 0.71 0.62 0.45 0.20 0.09 0.09 0.20 0.16 0.01 0.00 0.00 0.00 0.00 0.00 0.00 0.00 0.00 0.00 0.00 0.00 0.00 0.00 0.01
0.81 0.84 1.01 1.17 1.02 0.82 0.67 0.46 0.34 0.36 0.42 0.40 0.41 0.49 0.52 0.38 0.22 0.23 0.50 0.48 0.35 0.79 0.78 0.34 0.25 0.23 0.16 0.21 0.15 0.13 0.29 0.56 0.54 0.43 0.26 0.33 0.24 0.14 0.03 0.00 0.00 0.00 0.00 0.00 0.00 0.00 0.00 0.00 0.00 0.00 0.00 0.00 0.00 0.00
0.76 0.78 0.80 0.94 1.17 1.34 1.28 0.94 0.72 0.53 0.54 0.71 0.73 0.77 0.61 0.41 0.48 0.74 1.10 0.81 0.72 0.46 0.43 0.32 0.17 0.19 0.13 0.11 0.09 0.12 0.16 0.36 0.39 0.35 0.42 0.35 0.19 0.12 0.02 0.00 0.00 0.00 0.00 0.00 0.00 0.00 0.00 0.00 0.00 0.00 0.00 0.00 0.00 0.00
0.63 0.79 0.88 0.94 1.12 1.27 1.58 1.61 1.47 1.22 1.12 1.16 1.16 0.71 0.66 0.79 0.92 0.88 0.87 0.51 0.58 0.27 0.10 0.06 0.08 0.10 0.05 0.05 0.13 0.07 0.15 0.11 0.14 0.20 0.29 0.28 0.19 0.06 0.00 0.00 0.00 0.00 0.00 0.00 0.00 0.00 0.00 0.00 0.00 0.00 0.00 0.00 0.00 0.00
0.46 0.56 0.83 0.99 1.09 1.49 1.67 2.10 2.57 2.68 2.06 1.19 0.76 0.96 1.16 0.92 0.92 0.70 0.52 0.21 0.09 0.03 0.00 0.02 0.01 0.03 0.10 0.08 0.05 0.02 0.00 0.01 0.02 0.08 0.19 0.11 0.04 0.00 0.00 0.00 0.00 0.00 0.00 0.00 0.00 0.00 0.00 0.00 0.01 0.01 0.00 0.00 0.00 0.00
0.45 0.49 0.66 0.89 1.00 1.23 1.76 2.03 2.71 2.76 1.67 1.15 1.27 1.93 1.18 0.85 0.60 0.19 0.17 0.06 0.01 0.00 0.00 0.01 0.02 0.00 0.03 0.11 0.09 0.02 0.01 0.01 0.01 0.03 0.07 0.11 0.01 0.00 0.00 0.00 0.00 0.00 0.15 0.21 0.15 0.05 0.02 0.01 0.05 0.07 0.03 0.01 0.00 0.00
0.55 0.62 0.61 0.67 0.93 1.11 1.78 2.49 3.10 2.96 2.38 1.93 1.82 1.66 0.67 0.49 0.08 0.08 0.04 0.00 0.00 0.00 0.00 0.03 0.09 0.01 0.00 0.00 0.04 0.02 0.01 0.01 0.02 0.01 0.00 0.00 0.00 0.00 0.00 0.00 0.00 0.00 0.02 0.03 0.10 0.10 0.10 0.14 0.23 0.17 0.11 0.08 0.04 0.02
0.53 0.59 0.55 0.54 0.78 1.28 2.03 2.94 3.14 2.36 2.01 1.68 1.01 0.63 0.30 0.09 0.03 0.03 0.02 0.00 0.00 0.00 0.00 0.01 0.10 0.01 0.00 0.01 0.01 0.01 0.03 0.01 0.00 0.00 0.00 0.00 0.00 0.00 0.00 0.00 0.00 0.00 0.00 0.00 0.00 0.02 0.03 0.07 0.13 0.15 0.08 0.09 0.09 0.08
0.57 0.52 0.46 0.48 0.57 0.94 1.68 1.92 2.05 1.60 1.89 1.53 0.77 0.36 0.10 0.02 0.02 0.01 0.01 0.01 0.00 0.00 0.01 0.01 0.02 0.01 0.00 0.00 0.02 0.00 0.00 0.00 0.00 0.00 0.00 0.00 0.00 0.00 0.00 0.00 0.00 0.00 0.00 0.00 0.00 0.00 0.00 0.00 0.00 0.02 0.07 0.09 0.11 0.15
0.32 0.23 0.39 0.38 0.41 0.69 1.26 1.74 1.52 1.69 1.94 1.45 0.45 0.05 0.02 0.01 0.01 0.02 0.01 0.00 0.00 0.04 0.08 0.08 0.10 0.03 0.01 0.03 0.01 0.00 0.00 0.00 0.00 0.00 0.00 0.00 0.00 0.00 0.00 0.00 0.00 0.00 0.00 0.00 0.00 0.00 0.00 0.00 0.00 0.00 0.00 0.00 0.00 0.01
0.13 0.17 0.32 0.27 0.29 0.54 0.93 1.32 1.77 1.76 1.47 0.73 0.12 0.03 0.01 0.00 0.00 0.01 0.02 0.03 0.04 0.09 0.15 0.28 0.11 0.10 0.03 0.01 0.00 0.00 0.00 0.00 0.00 0.00 0.00 0.00 0.00 0.00 0.00 0.00 0.00 0.00 0.00 0.00 0.00 0.00 0.00 0.00 0.00 0.00 0.00 0.00 0.00 0.00
0.12 0.19 0.22 0.18 0.24 0.48 0.78 1.00 1.22 1.07 0.68 0.26 0.07 0.04 0.03 0.02 0.01 0.01 0.03 0.06 0.07 0.11 0.25 0.33 0.21 0.08 0.00 0.00 0.00 0.00 0.00 0.00 0.00 0.00 0.00 0.00 0.00 0.00 0.00 0.00 0.00 0.00 0.00 0.00 0.00 0.00 0.00 0.00 0.00 0.00 0.00 0.00 0.00 0.00
0.28 0.36 0.26 0.15 0.21 0.39 0.56 0.78 0.78 0.67 0.44 0.30 0.18 0.12 0.09 0.06 0.06 0.05 0.04 0.07 0.11 0.21 0.34 0.28 0.08 0.03 0.01 0.01 0.02 0.02 0.00 0.00 0.00 0.00 0.00 0.00 0.00 0.00 0.00 0.00 0.00 0.00 0.00 0.00 0.00 0.00 0.00 0.00 0.00 0.00 0.00 0.00 0.00 0.00
0.23 0.25 0.17 0.08 0.22 0.35 0.48 0.43 0.63 0.57 0.47 0.43 0.54 0.38 0.32 0.25 0.20 0.23 0.37 0.34 0.48 0.56 0.27 0.11 0.04 0.02 0.03 0.04 0.04 0.03 0.01 0.01 0.00 0.00 0.00 0.00 0.00 0.00 0.00 0.00 0.00 0.00 0.00 0.00 0.00 0.00 0.00 0.00 0.00 0.00 0.00 0.00 0.00 0.00
0.06 0.12 0.08 0.09 0.23 0.23 0.27 0.34 0.44 0.45 0.36 0.47 0.64 0.62 0.58 0.55 0.56 0.58 0.62 0.83 0.83 0.38 0.13 0.06 0.09 0.07 0.04 0.04 0.06 0.06 0.05 0.03 0.01 0.00 0.00 0.00 0.00 0.00 0.00 0.00 0.00 0.00 0.00 0.00 0.00 0.00 0.00 0.00 0.00 0.00 0.00 0.00 0.00 0.00
0.04 0.02 0.07 0.11 0.15 0.12 0.20 0.24 0.26 0.35 0.35 0.45 0.53 0.54 0.64 0.62 0.72 0.84 0.97 0.78 0.45 0.26 0.18 0.16 0.14 0.14 0.12 0.08 0.06 0.04 0.05 0.06 0.04 0.02 0.01 0.00 0.00 0.00 0.00 0.00 0.00 0.00 0.00 0.00 0.00 0.00 0.00 0.00 0.00 0.00 0.00 0.00 0.00 0.00
0.04 0.05 0.03 0.06 0.10 0.13 0.14 0.20 0.16 0.21 0.27 0.30 0.38 0.39 0.39 0.55 0.66 0.65 0.51 0.26 0.25 0.27 0.25 0.25 0.20 0.13 0.12 0.14 0.16 0.13 0.09 0.07 0.05 0.06 0.08 0.07 0.04 0.02 0.01 0.01 0.00 0.00 0.00 0.00 0.00 0.00 0.00 0.00 0.00 0.00 0.00 0.00 0.00 0.00
0.22 0.11 0.04 0.03 0.01 0.02 0.04 0.12 0.14 0.12 0.19 0.26 0.32 0.36 0.37 0.45 0.55 0.42 0.24 0.20 0.33 0.40 0.34 0.26 0.19 0.16 0.14 0.12 0.12 0.15 0.16 0.16 0.13 0.09 0.10 0.13 0.11 0.10 0.10 0.06 0.03 0.01 0.00 0.00 0.00 0.00 0.00 0.00 0.00 0.00 0.00 0.00 0.01 0.03
0.19 0.04 0.02 0.00 0.00 0.00 0.00 0.06 0.12 0.16 0.20 0.24 0.28 0.29 0.33 0.36 0.32 0.31 0.18 0.21 0.34 0.45 0.47 0.37 0.27 0.20 0.17 0.17 0.18 0.22 0.21 0.20 0.18 0.15 0.21 0.27 0.20 0.15 0.11 0.10 0.09 0.07 0.04 0.03 0.04 0.03 0.04 0.04 0.03 0.04 0.03 0.03 0.07 0.17
0.07 0.03 0.02 0.00 0.00 0.00 0.00 0.00 0.01 0.04 0.09 0.14 0.16 0.18 0.20 0.22 0.25 0.14 0.13 0.22 0.33 0.40 0.45 0.47 0.38 0.26 0.22 0.22 0.23 0.25 0.28 0.32 0.28 0.21 0.24 0.33 0.34 0.29 0.20 0.14 0.08 0.06 0.10 0.15 0.13 0.11 0.10 0.11 0.11 0.12 0.15 0.17 0.17 0.18
0.02 0.00 0.00 0.01 0.00 0.00 0.00 0.00 0.00 0.00 0.00 0.03 0.10 0.09 0.10 0.11 0.08 0.08 0.13 0.22 0.33 0.38 0.44 0.48 0.46 0.34 0.29 0.27 0.28 0.30 0.34 0.38 0.39 0.33 0.31 0.35 0.39 0.40 0.38 0.31 0.29 0.29 0.27 0.24 0.26 0.27 0.25 0.23 0.23 0.23 0.25 0.24 0.20 0.21
0.02 0.00 0.00 0.00 0.00 0.00 0.00 0.00 0.00 0.00 0.00 0.00 0.01 0.03 0.03 0.03 0.06 0.09 0.14 0.21 0.30 0.36 0.39 0.42 0.45 0.43 0.39 0.37 0.36 0.37 0.38 0.37 0.32 0.27 0.20 0.20 0.25 0.34 0.42 0.44 0.46 0.48 0.43 0.36 0.35 0.32 0.27 0.26 0.28 0.29 0.30 0.29 0.26 0.26
0.02 0.00 0.00 0.01 0.00 0.00 0.00 0.01 0.01 0.01 0.00 0.00 0.00 0.00 0.01 0.03 0.06 0.09 0.14 0.19 0.26 0.32 0.37 0.42 0.44 0.44 0.42 0.40 0.41 0.42 0.43 0.43 0.41 0.31 0.24 0.21 0.23 0.31 0.40 0.44 0.46 0.47 0.47 0.43 0.41 0.45 0.44 0.44 0.43 0.42 0.38 0.36 0.33 0.31
0.02 0.01 0.00 0.00 0.00 0.01 0.02 0.03 0.02 0.01 0.00 0.00 0.00 0.00 0.01 0.02 0.04 0.07 0.11 0.16 0.22 0.28 0.33 0.36 0.39 0.43 0.42 0.44 0.43 0.42 0.40 0.41 0.42 0.43 0.39 0.38 0.40 0.40 0.43 0.46 0.46 0.46 0.48 0.46 0.42 0.36 0.33 0.29 0.23 0.21 0.23 0.25 0.25 0.25
0.05 0.02 0.01 0.01 0.01 0.02 0.03 0.02 0.02 0.01 0.02 0.01 0.01 0.01 0.01 0.02 0.03 0.04 0.07 0.10 0.15 0.20 0.26 0.29 0.29 0.31 0.33 0.34 0.36 0.39 0.40 0.39 0.38 0.39 0.39 0.37 0.36 0.38 0.40 0.43 0.45 0.44 0.47 0.48 0.44 0.40 0.37 0.37 0.38 0.37 0.35 0.36 0.35 0.32
0.09 0.08 0.06 0.04 0.02 0.02 0.02 0.02 0.02 0.01 0.01 0.01 0.01 0.02 0.02 0.02 0.03 0.03 0.03 0.07 0.10 0.15 0.19 0.23 0.26 0.28 0.30 0.31 0.34 0.36 0.39 0.44 0.47 0.50 0.53 0.51 0.45 0.41 0.40 0.41 0.41 0.42 0.41 0.43 0.45 0.47 0.50 0.49 0.45 0.43 0.42 0.41 0.39 0.38